[[{"header":{"parameterUnit":"m.s-1","parameterCategory":1,"la1":30.6,"la2":29.2853,"lo1":-89.7004,"lo2":-87.6739,"dy":0.0162,"dx":0.0183,"nx":112,"ny":82,"refTime":"2023-03-22T06:00:00:Z","depth":0,"parameterNumber":2,"parameterNumberName":"U-component_of_WINDS"},"data":[0.0,0.0,0.0,0.0,0.0,0.0,0.0,0.0,0.0,0.0,0.0,0.0,0.0,0.0,0.0,0.0,0.0,0.0,0.0,0.0,0.0,0.0,0.0,0.0,0.0,0.0,0.0,0.0,0.0,0.0,0.0,0.0,0.0,0.0,0.0,0.0,0.0,0.0,0.0,0.0,0.0,0.0,0.0,0.0,0.0,0.0,0.0,0.0,0.0,0.0,0.0,0.0,0.0,0.0,0.0,0.0,0.0,0.0,0.0,0.0,0.0,0.0,0.0,0.0,0.0,0.0,0.0,0.0,0.0,0.0,0.0,0.0,0.0,0.0,0.0,0.0,0.0,0.0,0.0,0.0,0.0,0.0,0.0,0.0,0.0,0.0,0.0,0.0,0.0,0.0,-1.5166,-1.6394,-1.8338,-1.9346,-1.8897,-1.8565,-1.8506,-1.8837,0.0,0.0,0.0,0.0,0.0,0.0,0.0,0.0,0.0,0.0,0.0,0.0,0.0,0.0,0.0,0.0,0.0,0.0,0.0,0.0,0.0,0.0,0.0,0.0,0.0,0.0,0.0,0.0,0.0,0.0,0.0,0.0,0.0,0.0,0.0,0.0,0.0,0.0,0.0,0.0,0.0,0.0,0.0,0.0,0.0,0.0,0.0,0.0,0.0,0.0,0.0,0.0,0.0,0.0,0.0,0.0,0.0,0.0,0.0,0.0,0.0,0.0,0.0,0.0,0.0,0.0,0.0,0.0,0.0,0.0,0.0,0.0,0.0,0.0,0.0,0.0,0.0,0.0,0.0,0.0,0.0,0.0,0.0,0.0,0.0,0.0,0.0,0.0,0.0,0.0,0.0,0.0,0.0,0.0,0.0,0.0,0.0,0.0,0.0,0.0,0.0,0.0,0.0,0.0,-1.5888,-1.6592,-1.7972,-1.9031,-1.9513,-1.7983,-1.7727,-1.9453,0.0,0.0,0.0,0.0,0.0,0.0,0.0,0.0,0.0,0.0,0.0,0.0,0.0,0.0,0.0,0.0,0.0,0.0,0.0,0.0,0.0,0.0,0.0,0.0,0.0,0.0,0.0,0.0,0.0,0.0,0.0,0.0,0.0,0.0,0.0,0.0,0.0,0.0,0.0,0.0,0.0,0.0,0.0,0.0,0.0,0.0,0.0,0.0,0.0,0.0,0.0,0.0,0.0,0.0,0.0,0.0,0.0,0.0,0.0,0.0,0.0,0.0,0.0,0.0,0.0,0.0,0.0,0.0,0.0,0.0,0.0,0.0,0.0,0.0,0.0,0.0,0.0,0.0,0.0,0.0,0.0,0.0,0.0,0.0,0.0,0.0,0.0,0.0,0.0,0.0,0.0,0.0,0.0,0.0,0.0,0.0,0.0,0.0,0.0,0.0,0.0,0.0,0.0,-1.5609,-1.5785,-1.6907,-1.7707,-1.8281,-1.8597,-1.7146,-1.7056,-1.9031,-1.758,0.0,0.0,0.0,0.0,0.0,0.0,0.0,0.0,0.0,0.0,0.0,0.0,0.0,0.0,0.0,0.0,0.0,0.0,0.0,0.0,0.0,0.0,0.0,0.0,0.0,0.0,0.0,0.0,0.0,0.0,0.0,0.0,0.0,0.0,0.0,0.0,0.0,0.0,0.0,0.0,0.0,0.0,0.0,0.0,0.0,0.0,0.0,0.0,0.0,0.0,0.0,0.0,0.0,0.0,0.0,0.0,0.0,0.0,0.0,0.0,0.0,0.0,0.0,0.0,0.0,0.0,0.0,0.0,0.0,0.0,0.0,0.0,0.0,0.0,0.0,0.0,0.0,0.0,0.0,0.0,0.0,0.0,0.0,0.0,0.0,0.0,0.0,0.0,0.0,0.0,0.0,0.0,0.0,0.0,0.0,0.0,0.0,0.0,0.0,0.0,0.0,0.0,-1.5245,-1.5169,-1.6979,-1.7332,-1.7518,-1.7699,-1.6383,-1.6458,-1.8568,-1.6877,0.0,0.0,0.0,0.0,0.0,0.0,0.0,0.0,0.0,0.0,0.0,0.0,0.0,0.0,0.0,0.0,0.0,0.0,0.0,0.0,0.0,0.0,0.0,0.0,0.0,0.0,0.0,0.0,0.0,0.0,0.0,0.0,0.0,0.0,0.0,0.0,0.0,0.0,0.0,0.0,0.0,0.0,0.0,0.0,0.0,0.0,0.0,0.0,0.0,0.0,0.0,0.0,0.0,0.0,0.0,0.0,0.0,0.0,0.0,0.0,0.0,0.0,0.0,0.0,0.0,0.0,0.0,0.0,0.0,0.0,0.0,0.0,0.0,0.0,0.0,0.0,0.0,0.0,0.0,0.0,0.0,0.0,0.0,0.0,0.0,0.0,0.0,0.0,0.0,0.0,0.0,0.0,0.0,0.0,0.0,0.0,0.0,0.0,0.0,0.0,0.0,0.0,-1.4522,-1.3925,-1.6458,-1.6772,-1.7025,-1.7637,-1.5964,-1.5979,-1.8538,-1.6877,0.0,0.0,0.0,0.0,0.0,0.0,0.0,0.0,0.0,0.0,0.0,0.0,0.0,0.0,0.0,0.0,0.0,0.0,0.0,0.0,0.0,0.0,0.0,0.0,0.0,0.0,0.0,0.0,0.0,0.0,0.0,0.0,0.0,0.0,0.0,0.0,0.0,0.0,0.0,0.0,0.0,0.0,0.0,0.0,0.0,0.0,0.0,0.0,0.0,0.0,0.0,0.0,0.0,0.0,0.0,0.0,0.0,0.0,0.0,0.0,0.0,0.0,0.0,0.0,0.0,0.0,0.0,0.0,0.0,0.0,0.0,0.0,0.0,0.0,0.0,0.0,0.0,0.0,0.0,0.0,0.0,0.0,0.0,0.0,0.0,0.0,0.0,0.0,0.0,0.0,0.0,0.0,0.0,0.0,0.0,0.0,0.0,0.0,0.0,0.0,0.0,0.0,-1.5469,-1.4586,-1.5979,-1.6144,-1.6069,-1.5904,-1.4842,-1.5112,-1.7309,0.0,0.0,0.0,0.0,0.0,0.0,0.0,0.0,0.0,0.0,0.0,0.0,0.0,0.0,0.0,0.0,0.0,0.0,0.0,0.0,0.0,0.0,0.0,0.0,0.0,0.0,0.0,0.0,0.0,0.0,0.0,0.0,0.0,0.0,0.0,0.0,0.0,0.0,0.0,0.0,0.0,0.0,0.0,0.0,0.0,0.0,0.0,0.0,0.0,0.0,0.0,0.0,0.0,0.0,0.0,0.0,0.0,0.0,0.0,0.0,0.0,0.0,0.0,0.0,0.0,0.0,0.0,0.0,0.0,0.0,0.0,0.0,0.0,0.0,0.0,0.0,0.0,0.0,0.0,0.0,0.0,0.0,0.0,0.0,0.0,0.0,0.0,0.0,0.0,0.0,0.0,0.0,0.0,0.0,0.0,0.0,0.0,0.0,0.0,0.0,0.0,0.0,-1.7604,-1.5822,-1.4751,-1.541,-1.5399,-1.5046,-1.4393,-1.3787,-1.4264,-1.6207,0.0,0.0,0.0,0.0,0.0,0.0,0.0,0.0,0.0,0.0,0.0,0.0,0.0,0.0,0.0,0.0,0.0,0.0,0.0,0.0,0.0,0.0,0.0,0.0,0.0,0.0,0.0,0.0,0.0,0.0,0.0,0.0,0.0,0.0,0.0,0.0,0.0,0.0,0.0,0.0,0.0,0.0,0.0,0.0,0.0,0.0,0.0,0.0,0.0,0.0,0.0,0.0,0.0,0.0,0.0,0.0,0.0,0.0,0.0,0.0,0.0,0.0,0.0,0.0,0.0,0.0,0.0,0.0,0.0,0.0,0.0,0.0,0.0,0.0,0.0,0.0,0.0,0.0,0.0,0.0,0.0,0.0,0.0,0.0,0.0,0.0,0.0,0.0,0.0,0.0,0.0,0.0,0.0,0.0,0.0,0.0,0.0,0.0,0.0,0.0,0.0,0.0,-1.7123,-1.5251,-1.4049,-1.4721,-1.4507,-1.4022,-1.334,-1.2925,-1.3495,0.0,0.0,0.0,0.0,0.0,0.0,0.0,0.0,0.0,0.0,0.0,0.0,0.0,0.0,0.0,0.0,0.0,0.0,0.0,0.0,0.0,0.0,0.0,0.0,0.0,0.0,0.0,0.0,0.0,0.0,0.0,0.0,0.0,0.0,0.0,0.0,0.0,0.0,0.0,0.0,0.0,0.0,0.0,0.0,0.0,0.0,0.0,0.0,0.0,0.0,0.0,0.0,0.0,0.0,0.0,0.0,0.0,0.0,0.0,0.0,0.0,0.0,0.0,0.0,0.0,0.0,0.0,0.0,0.0,0.0,0.0,0.0,0.0,0.0,0.0,0.0,0.0,0.0,0.0,0.0,0.0,0.0,0.0,0.0,0.0,0.0,0.0,0.0,0.0,0.0,0.0,0.0,0.0,0.0,0.0,0.0,0.0,0.0,0.0,0.0,0.0,0.0,0.0,-1.7254,-1.5278,-1.3872,-1.4066,-1.4418,-1.4092,-1.2719,-1.287,-1.3544,-1.4729,0.0,0.0,0.0,0.0,0.0,0.0,0.0,0.0,0.0,0.0,0.0,0.0,0.0,0.0,0.0,0.0,0.0,0.0,0.0,0.0,0.0,0.0,0.0,0.0,0.0,0.0,0.0,0.0,0.0,0.0,0.0,0.0,0.0,0.0,0.0,0.0,0.0,0.0,0.0,0.0,0.0,0.0,0.0,0.0,0.0,0.0,0.0,0.0,0.0,0.0,0.0,0.0,0.0,0.0,0.0,0.0,0.0,0.0,0.0,0.0,0.0,0.0,0.0,0.0,0.0,0.0,0.0,0.0,0.0,0.0,0.0,0.0,0.0,0.0,0.0,0.0,0.0,0.0,0.0,0.0,0.0,0.0,0.0,0.0,0.0,0.0,0.0,0.0,0.0,0.0,0.0,0.0,0.0,0.0,0.0,0.0,0.0,0.0,0.0,0.0,0.0,0.0,-1.7409,-1.5337,-1.3902,-1.4169,-1.4211,-1.3734,-1.2562,-1.262,-1.3087,-1.3936,0.0,0.0,0.0,0.0,0.0,0.0,0.0,0.0,0.0,0.0,0.0,0.0,0.0,0.0,0.0,0.0,0.0,0.0,0.0,0.0,0.0,0.0,0.0,0.0,0.0,0.0,0.0,0.0,0.0,0.0,0.0,0.0,0.0,0.0,0.0,0.0,0.0,0.0,0.0,0.0,0.0,0.0,0.0,0.0,0.0,0.0,0.0,0.0,0.0,0.0,0.0,0.0,0.0,0.0,0.0,0.0,0.0,0.0,0.0,0.0,0.0,0.0,0.0,0.0,0.0,0.0,0.0,0.0,0.0,0.0,0.0,0.0,0.0,0.0,0.0,0.0,0.0,0.0,0.0,0.0,0.0,0.0,0.0,0.0,0.0,0.0,0.0,0.0,0.0,0.0,0.0,0.0,0.0,0.0,0.0,0.0,0.0,0.0,0.0,0.0,0.0,0.0,-1.7459,-1.5426,-1.4109,-1.4648,-1.3902,-1.3151,-1.2691,-1.2275,-1.237,-1.3183,0.0,0.0,0.0,0.0,0.0,0.0,0.0,0.0,0.0,0.0,0.0,0.0,0.0,0.0,0.0,0.0,0.0,0.0,0.0,0.0,0.0,0.0,0.0,0.0,0.0,0.0,0.0,0.0,0.0,0.0,0.0,0.0,0.0,0.0,0.0,0.0,0.0,0.0,0.0,0.0,0.0,0.0,0.0,0.0,0.0,0.0,0.0,0.0,0.0,0.0,0.0,0.0,0.0,0.0,0.0,0.0,0.0,0.0,0.0,0.0,-1.9405,-1.9708,0.0,0.0,0.0,0.0,0.0,0.0,0.0,0.0,0.0,0.0,0.0,0.0,0.0,0.0,0.0,0.0,0.0,0.0,0.0,0.0,0.0,0.0,0.0,0.0,0.0,0.0,0.0,0.0,0.0,0.0,0.0,0.0,0.0,0.0,0.0,0.0,0.0,0.0,0.0,0.0,-1.6891,-1.5546,-1.4438,-1.4049,-1.3821,-1.3329,-1.2463,-1.2245,-1.2512,-1.3381,-1.4185,0.0,0.0,0.0,0.0,0.0,0.0,0.0,0.0,0.0,0.0,0.0,0.0,0.0,0.0,0.0,0.0,0.0,0.0,0.0,0.0,0.0,0.0,0.0,0.0,0.0,0.0,0.0,0.0,0.0,0.0,0.0,0.0,0.0,0.0,0.0,0.0,0.0,0.0,0.0,0.0,0.0,0.0,0.0,0.0,0.0,0.0,0.0,0.0,0.0,0.0,0.0,0.0,0.0,0.0,0.0,0.0,0.0,0.0,0.0,-1.9921,-1.9708,0.0,0.0,0.0,0.0,0.0,0.0,0.0,0.0,0.0,0.0,0.0,0.0,0.0,0.0,0.0,0.0,0.0,0.0,0.0,0.0,0.0,0.0,0.0,0.0,0.0,0.0,0.0,0.0,0.0,0.0,0.0,0.0,0.0,0.0,0.0,0.0,0.0,0.0,0.0,0.0,-1.7145,-1.58,-1.4796,-1.4766,-1.4468,-1.4099,-1.3678,-1.331,-1.3346,-1.3946,-1.4365,0.0,0.0,0.0,0.0,0.0,0.0,0.0,0.0,0.0,0.0,0.0,0.0,0.0,0.0,0.0,0.0,0.0,0.0,0.0,0.0,0.0,0.0,0.0,0.0,0.0,0.0,0.0,0.0,0.0,0.0,0.0,0.0,0.0,0.0,0.0,0.0,0.0,0.0,0.0,0.0,0.0,0.0,0.0,0.0,0.0,0.0,0.0,0.0,0.0,0.0,0.0,0.0,0.0,-2.3668,-2.3772,-2.3701,-2.3933,-2.3623,-2.2827,-2.1121,-2.0192,-1.9869,-1.9869,0.0,0.0,0.0,0.0,0.0,0.0,0.0,0.0,0.0,0.0,0.0,0.0,0.0,0.0,0.0,0.0,0.0,0.0,0.0,0.0,0.0,0.0,0.0,0.0,-1.9708,-1.9708,-1.9708,0.0,0.0,0.0,0.0,0.0,0.0,0.0,0.0,0.0,0.0,0.0,-1.7639,-1.6099,-1.5185,-1.5739,-1.52,-1.4882,-1.5037,-1.4428,-1.4199,-1.4525,-1.4756,-1.4978,0.0,0.0,0.0,0.0,0.0,0.0,0.0,0.0,0.0,0.0,0.0,0.0,0.0,0.0,0.0,0.0,0.0,0.0,0.0,0.0,0.0,0.0,0.0,0.0,0.0,0.0,0.0,0.0,0.0,0.0,0.0,0.0,-2.2194,-2.212,0.0,0.0,0.0,0.0,0.0,0.0,0.0,0.0,0.0,0.0,0.0,0.0,0.0,-2.3866,-2.5136,-2.5088,-2.5443,-2.6168,-2.6219,-2.6065,-2.5715,-2.576,-2.5491,-2.4922,-2.3648,0.0,-2.0554,-2.0554,0.0,0.0,0.0,0.0,0.0,0.0,0.0,0.0,0.0,0.0,0.0,0.0,0.0,0.0,0.0,0.0,0.0,0.0,0.0,0.0,0.0,0.0,-1.9708,-1.9708,-1.9708,-1.9708,0.0,-1.9708,-1.9708,-1.9708,-1.9708,0.0,0.0,0.0,0.0,0.0,0.0,0.0,-1.7699,-1.6503,-1.5709,-1.5784,-1.52,-1.4814,-1.4834,-1.4225,-1.4094,-1.472,-1.4272,-1.4492,-1.5652,-1.5202,0.0,0.0,0.0,0.0,0.0,0.0,0.0,0.0,0.0,0.0,0.0,0.0,0.0,0.0,0.0,0.0,0.0,0.0,0.0,0.0,0.0,0.0,0.0,0.0,0.0,0.0,0.0,0.0,0.0,-2.3493,-2.3851,-2.3021,-2.2897,-2.266,0.0,0.0,0.0,0.0,0.0,0.0,0.0,0.0,0.0,-2.5236,-2.5659,-2.6167,-2.6826,-2.7283,-2.7875,-2.8619,-2.9025,-2.8917,-2.8345,-2.8483,-2.7761,-2.6431,-2.5601,-2.4132,-2.2248,-2.1137,-2.0543,-2.0228,0.0,0.0,0.0,0.0,-1.9708,-1.9753,-2.0124,-2.0022,-1.9813,-2.0483,0.0,0.0,0.0,0.0,0.0,0.0,0.0,-1.9708,0.0,0.0,-2.0258,-2.0258,-2.0258,-2.0258,-2.0258,-1.9959,-1.9708,0.0,-1.9708,-1.9708,-1.9708,0.0,0.0,0.0,0.0,-1.8252,-1.8252,-1.746,-1.6727,-1.6338,-1.6039,-1.5725,-1.5395,-1.5095,-1.505,-1.5335,-1.4722,-1.4782,-1.5769,-1.5155,-1.511,0.0,0.0,0.0,0.0,0.0,0.0,0.0,0.0,0.0,0.0,0.0,0.0,0.0,0.0,0.0,0.0,0.0,0.0,0.0,0.0,0.0,0.0,0.0,0.0,0.0,0.0,0.0,0.0,-2.5067,-2.5338,-2.3849,-2.4392,-2.4362,0.0,0.0,0.0,0.0,0.0,0.0,-2.6437,-2.6979,-2.7368,-2.7554,-2.8094,-2.8568,-2.8939,-2.9533,-3.0192,-3.0954,-3.1495,-3.1376,-3.0664,-3.0814,-2.9927,-2.8241,-2.7375,-2.6175,-2.4643,-2.239,-2.1261,-2.0917,-2.0408,-2.0217,-2.0217,-2.0217,-2.0217,-2.0273,-2.0782,-2.0632,-2.0322,-2.0991,-2.0872,-2.0441,-2.0262,0.0,0.0,0.0,0.0,-2.0217,-2.0217,-2.0587,-2.0961,-2.0961,-2.0961,-2.0961,-2.0961,-2.0557,-2.0112,0.0,-1.9708,-1.9708,-1.9708,0.0,0.0,0.0,0.0,-1.8702,-1.8702,-1.7968,-1.7249,-1.6741,-1.6562,-1.6278,-1.5844,-1.5799,-1.5799,-1.5799,-1.5335,-1.5275,-1.5784,-1.532,-1.529,-1.5784,0.0,0.0,0.0,0.0,0.0,0.0,0.0,0.0,0.0,0.0,0.0,0.0,0.0,0.0,0.0,0.0,0.0,0.0,0.0,0.0,0.0,0.0,0.0,0.0,0.0,0.0,0.0,0.0,0.0,-2.4609,-2.6319,0.0,0.0,0.0,0.0,-2.6522,-2.7215,-2.7976,-2.879,-2.8857,-2.9213,-2.9922,-2.9954,-3.0666,-3.2056,-3.2107,-3.2513,-3.3237,-3.3271,-3.2899,-3.2192,-3.2205,-3.1759,-3.0903,-2.9088,-2.8244,-2.7918,-2.4747,-2.2742,-2.165,-2.1605,-2.159,-2.159,-2.159,-2.159,-2.1605,-2.1635,-2.162,-2.1695,-2.2388,-2.2583,-2.2433,-2.1784,-2.159,0.0,0.0,-2.159,-2.159,-2.159,-2.162,-2.165,-2.165,-2.165,-2.165,-2.165,-2.162,-2.1216,0.0,-1.9708,-1.9708,-1.9708,0.0,-1.9708,-1.9708,-1.9121,-1.8702,-1.8702,-1.7548,-1.6741,-1.6696,-1.6189,-1.5829,-1.5799,-1.5799,-1.5799,-1.5799,-1.5769,-1.5769,-1.5799,-1.5769,-1.5769,-1.5799,-1.5829,0.0,0.0,0.0,0.0,0.0,0.0,0.0,0.0,0.0,0.0,0.0,0.0,0.0,0.0,0.0,0.0,0.0,0.0,0.0,0.0,0.0,0.0,0.0,0.0,0.0,0.0,0.0,0.0,-2.8163,-3.0074,0.0,-2.8315,-2.8586,-2.9076,-2.955,-3.0277,-3.1241,-3.2479,-3.2983,-3.3372,-3.3622,-3.3639,-3.3875,-3.4421,-3.4421,-3.4573,-3.4822,-3.4822,-3.4438,-3.3715,-3.322,-3.2374,-3.1249,-2.9702,-2.8573,-2.7698,-2.6153,-2.4492,-2.2877,-2.2508,-2.2089,-2.1739,-2.2194,-2.2054,-2.1754,-2.2173,-2.2343,-2.2448,-2.3092,-2.3017,-2.2658,-2.2418,-2.2044,-2.1695,-2.1695,-2.1695,-2.1695,-2.1695,-2.2009,-2.2343,-2.2343,-2.2343,-2.2343,-2.2343,-2.1994,-2.156,-2.1066,-2.0647,-2.0213,-1.9783,-1.9708,-1.9708,-1.9708,-1.9513,-1.9348,-1.9348,-1.8553,-1.7833,-1.7384,-1.6772,-1.6219,-1.5829,-1.5799,-1.5799,-1.5799,-1.5799,-1.5799,-1.5799,-1.5799,-1.5799,-1.5799,-1.6623,-1.7026,0.0,0.0,0.0,0.0,0.0,0.0,0.0,0.0,0.0,0.0,0.0,0.0,0.0,0.0,0.0,0.0,0.0,0.0,0.0,0.0,0.0,0.0,0.0,0.0,0.0,0.0,-3.1224,-3.1224,-3.3186,-3.3677,-3.1444,-3.1661,-3.2171,-3.2662,-3.3393,-3.4358,-3.5571,-3.6113,-3.6377,-3.6377,-3.6124,-3.6011,-3.6011,-3.5735,-3.56,-3.56,-3.56,-3.5216,-3.4472,-3.3981,-3.3013,-3.1627,-3.0334,-2.9139,-2.8059,-2.7033,-2.5809,-2.4522,-2.367,-2.3071,-2.2742,-2.3176,-2.3191,-2.3071,-2.3505,-2.3691,-2.3729,-2.4148,-2.3999,-2.3691,-2.3691,-2.337,-2.2966,-2.2742,-2.2682,-2.2637,-2.2398,-2.2673,-2.3002,-2.3002,-2.3002,-2.3002,-2.3002,-2.2637,-2.2278,-2.2069,-2.1321,-2.0572,-2.0109,-1.9857,-1.9783,-1.9989,-1.9824,-1.9783,-2.0004,-1.9256,-1.8448,-1.7773,-1.71,-1.6458,-1.5858,-1.5994,-1.6024,-1.5814,-1.5994,-1.6099,-1.6099,-1.6099,-1.6204,-1.6443,-1.743,-1.805,-1.8273,0.0,0.0,0.0,0.0,0.0,0.0,0.0,0.0,0.0,0.0,0.0,0.0,0.0,0.0,0.0,0.0,0.0,0.0,0.0,0.0,0.0,0.0,0.0,-2.9027,-3.163,-3.3491,-3.3541,-3.552,-3.6034,-3.3795,-3.4856,-3.5701,-3.5701,-3.6417,-3.7202,-3.7939,-3.7973,-3.7973,-3.7973,-3.7246,-3.688,-3.688,-3.6062,-3.5633,-3.5633,-3.5616,-3.5233,-3.4523,-3.4506,-3.3715,-3.2266,-3.1038,-3.0076,-2.9268,-2.7398,-2.6617,-2.6467,-2.5173,-2.4649,-2.4634,-2.4649,-2.5053,-2.5615,-2.563,-2.563,-2.5621,-2.5659,-2.5659,-2.563,-2.563,-2.563,-2.5457,-2.4814,-2.4634,-2.4485,-2.3834,-2.3655,-2.3655,-2.3655,-2.3655,-2.3655,-2.3655,-2.3655,-2.3445,-2.2868,-2.168,-2.0748,-2.0733,-2.0183,-1.9944,-2.0598,-2.0124,0.0,-2.0583,-1.9525,-1.8446,-1.7803,-1.713,-1.6488,-1.5918,-1.6398,-1.6458,-1.5873,-1.6398,-1.6711,-1.6696,-1.6711,-1.7055,-1.7728,-1.8179,-1.8728,-1.9401,0.0,0.0,0.0,0.0,0.0,0.0,0.0,0.0,0.0,0.0,0.0,0.0,0.0,0.0,0.0,0.0,0.0,0.0,0.0,0.0,0.0,0.0,-3.1952,-3.2154,-3.3812,-3.5397,-3.6535,-3.8142,-3.8742,-3.7567,-3.7838,-3.8075,-3.8075,-3.8261,-3.8717,-3.9469,-3.9503,-3.9503,-3.9503,-3.8792,-3.8403,-3.8403,-3.711,-3.6468,-3.6451,-3.5893,-3.5481,-3.5278,-3.4742,-3.3981,-3.3005,-3.1267,-3.0076,-2.93,-2.7902,-2.7046,-2.6557,-2.6198,-2.5749,-2.5367,-2.5869,-2.5869,-2.5674,-2.6153,-2.6318,-2.6393,-2.6896,-2.6707,-2.6318,-2.6318,-2.5989,-2.557,-2.5367,-2.5322,-2.5277,-2.5106,-2.5061,-2.5061,-2.5061,-2.5061,-2.5061,-2.5061,-2.4664,-2.4276,-2.4096,-2.3026,-2.1994,-2.1515,-2.0872,-2.0498,-2.0673,-2.0124,0.0,-1.9944,-1.9226,-1.8627,-1.8431,-1.7833,-1.737,-1.719,-1.734,-1.7145,-1.6488,-1.7055,-1.7219,-1.6711,-1.7174,-1.7743,-1.8401,-1.8553,-1.8951,0.0,0.0,0.0,0.0,0.0,0.0,0.0,0.0,0.0,0.0,0.0,0.0,0.0,0.0,0.0,0.0,0.0,0.0,0.0,0.0,0.0,0.0,-3.3,-3.4754,-3.6022,-3.6411,-3.7222,-3.9073,-3.9766,-3.9943,-3.9503,-3.9469,-3.9469,-3.9469,-3.9469,-3.9656,-4.0079,-4.0096,-4.0096,-4.0096,-3.9377,-3.8853,-3.8531,-3.7388,-3.6795,-3.6795,-3.6315,-3.6096,-3.6096,-3.5656,-3.4878,-3.3748,-3.1828,-3.0548,-2.9738,-2.8247,-2.7375,0.0,0.0,0.0,0.0,0.0,-2.6752,-2.6482,-2.6896,-2.7031,-2.7091,-2.7465,-2.7345,-2.7076,-2.735,-2.6961,-2.6437,-2.6437,-2.6243,-2.5959,-2.5674,-2.5615,-2.5615,-2.5615,-2.5615,-2.5615,-2.5615,-2.5068,-2.4605,-2.4605,-2.3789,0.0,-2.2562,-2.1739,-2.1126,-2.1126,-2.0557,-2.0124,-2.0124,-1.9525,-1.9016,-1.8732,-1.8341,-1.8012,-1.7712,-1.7968,0.0,0.0,0.0,-1.7953,-1.7548,-1.8177,0.0,0.0,0.0,-1.9301,-1.9708,0.0,0.0,0.0,-2.2003,-2.2296,0.0,0.0,0.0,0.0,0.0,0.0,0.0,0.0,0.0,0.0,0.0,0.0,0.0,0.0,0.0,0.0,-3.5571,-3.7121,-4.0062,-3.9276,-3.9089,-4.0984,-4.0544,-4.0096,-4.0096,-4.0096,-4.0096,-4.0096,-4.0096,-4.0096,-4.0096,0.0,0.0,0.0,0.0,-3.8802,-3.8159,-3.7415,-3.7049,-3.7049,-3.6965,-3.6931,-3.6931,-3.6846,-3.6,-3.4513,-3.255,-3.1251,-3.0343,-2.8474,-2.766,-2.754,-2.6956,-2.6692,-2.6767,-2.7375,-2.76,-2.76,-2.76,0.0,0.0,-2.76,-2.7645,-2.7824,-2.8412,-2.8233,-2.7809,-2.7735,-2.7285,-2.6662,-2.6004,-2.5839,-2.5839,-2.5839,-2.5839,-2.5839,-2.5839,-2.5292,-2.4799,-2.4724,-2.4156,-2.3684,-2.361,-2.2532,-2.1695,-2.1695,-2.1081,-2.0583,-2.0583,-2.0064,-1.9465,-1.8882,0.0,0.0,-1.7983,-1.8461,-1.8538,-1.7863,-1.8371,-1.8732,-1.8807,-1.9375,-1.9708,-1.9708,-1.9708,-1.9708,-1.9708,-2.0106,-2.0533,-2.1007,-2.184,-2.2254,0.0,0.0,0.0,0.0,0.0,0.0,0.0,0.0,0.0,0.0,0.0,0.0,0.0,0.0,0.0,-3.6958,-3.8345,-4.0054,-4.2412,-4.1999,-4.139,-4.1221,-4.0544,-4.0096,-4.0096,-4.0096,-4.0096,-4.0096,-4.0096,-4.0096,-4.0096,-4.0096,-4.0096,-4.0096,-3.996,-3.9825,-3.969,-3.8937,-3.8565,-3.8589,0.0,0.0,-3.7669,-3.7083,-3.6265,-3.5273,-3.321,-3.1622,-3.0405,-2.8942,-2.8042,-2.7585,-2.7465,-2.7405,-2.742,-2.754,-2.76,-2.76,-2.76,-2.76,-2.76,-2.76,-2.7974,-2.8427,-2.8562,-2.8876,0.0,-2.8547,-2.8308,-2.8053,-2.739,-2.721,-2.721,-2.721,-2.721,-2.721,-2.721,-2.6701,-2.6048,-2.5501,-2.4859,-2.4231,-2.3684,-2.2532,-2.1695,-2.1695,-2.0662,-1.9902,-1.9902,-1.9783,-1.9648,-1.9528,-1.9513,-1.9453,-1.9316,-1.942,-1.9211,-1.8553,-1.8627,-1.8942,-1.9465,-1.9633,-1.9708,-1.9708,-1.9708,-1.9708,-1.9708,-2.0106,-2.0533,-2.1007,-2.1507,-2.1928,0.0,0.0,0.0,0.0,0.0,0.0,0.0,0.0,0.0,0.0,0.0,-3.4066,0.0,0.0,-3.822,-3.9377,-4.0476,-4.1711,-4.3172,-4.2777,-4.2286,-4.232,-4.1322,-4.0646,-4.0646,-4.0333,-4.0096,-4.0096,-4.0096,-4.0096,-4.0096,-4.0096,-4.0096,-4.0096,-4.0096,-3.9926,-3.9554,-3.9174,-3.8988,-3.8988,-3.8633,-3.8447,-3.843,-3.7686,-3.6924,-3.609,-3.396,-3.2275,-3.0934,-2.9252,-2.8374,-2.8113,-2.8483,-2.8184,-2.76,-2.76,-2.7809,-2.8109,-2.8109,-2.8334,-2.8558,-2.8214,-2.8547,-2.9086,-2.9086,-2.9325,-2.9532,-2.919,-2.8861,-2.8442,-2.7779,-2.76,-2.76,-2.76,-2.76,-2.76,-2.76,-2.6821,-2.6004,-2.5674,-2.4807,-2.3999,-2.3655,-2.2817,-2.2104,-2.1739,-2.1126,-2.0471,-1.9798,-1.9708,-1.9708,-1.9708,-1.9708,-1.9708,-1.9708,-1.9708,-1.9573,-1.9211,-1.9196,-1.9436,-1.9984,-1.9818,-1.98,-2.0,-1.98,-1.9708,-1.9708,-2.0106,-2.0533,-2.1023,-2.1414,-2.1838,0.0,0.0,0.0,0.0,0.0,0.0,0.0,0.0,-3.3478,-3.3766,-3.5351,-3.6907,-3.7533,-3.9225,-4.0755,-4.1525,-4.2134,-4.2777,-4.3538,-4.2997,-4.2726,-4.3325,-4.2117,-4.1136,-4.1001,-4.0468,-4.0096,-4.0096,-4.0096,-4.0096,-4.0096,-4.0096,-4.0096,-4.0096,-4.0096,-3.9808,-3.9208,-3.9208,-3.9208,-3.9208,-3.9208,-3.9208,-3.9174,-3.8311,-3.7584,-3.6884,-3.4466,-3.2704,-3.1454,-2.9551,-2.8786,-2.8846,-2.9397,-2.8948,-2.7989,-2.7989,-2.8334,-2.8786,-2.8786,-2.9146,-2.9517,-2.8966,-2.9235,-2.9759,-2.9759,-2.9864,-2.9939,-2.9804,-2.9295,-2.8637,-2.7974,-2.7705,-2.76,-2.76,-2.76,-2.76,-2.76,-2.6761,-2.5959,-2.5824,-2.4822,-2.3954,-2.3819,-2.3266,-2.2658,-2.1979,-2.1784,-2.1261,-2.0049,-1.9902,-1.9824,-1.9708,-1.9708,-1.9708,-1.9708,-1.9708,-1.9708,-1.9708,-1.9708,-1.9839,-2.0176,-1.9962,-1.9929,-2.0193,-1.9929,-1.9782,-1.9708,-2.0106,-2.0533,-2.1023,-2.1414,-2.1838,-2.9832,-3.045,-3.1346,-3.2852,-3.3322,-3.4235,0.0,0.0,-3.7652,-3.8946,-3.9969,-4.0612,-4.0696,-4.1441,-4.2303,-4.302,-4.3206,-4.3572,-4.4333,-4.3775,-4.3291,-4.3375,-4.2117,-4.0933,-4.0299,-4.0146,-4.0096,-4.0096,-4.0096,-4.0096,-4.0096,-4.0096,-4.0096,-4.0096,-4.0096,-4.0062,-3.9977,-3.9977,-3.9977,-3.9977,-3.9977,-3.9977,-3.9943,-3.8531,-3.7855,-3.758,-3.4202,-3.2264,-3.1398,-3.0055,-2.9502,-2.9517,-2.9577,-2.9517,-2.9382,-2.9382,-2.9427,-2.9502,-2.9502,-2.9547,-2.9592,-2.9517,-2.9894,-3.0402,-3.0402,-3.0836,-3.1152,-3.0567,-2.9953,-2.9325,-2.8652,-2.8064,-2.76,-2.76,-2.76,-2.76,-2.76,-2.748,-2.721,-2.6587,-2.5884,-2.5196,-2.459,-2.3954,-2.3281,-2.2688,-2.2069,-2.1425,-2.0673,-2.0583,-2.0363,-1.9768,-1.9708,-1.9708,-1.9708,-1.9708,-1.9708,-1.9708,-1.9708,-1.9711,-1.9764,-2.007,-2.0089,-1.9764,-2.0072,-2.0054,-1.9708,-2.0106,-2.0533,-2.1023,-2.1414,-2.1838,-3.151,-3.2413,-3.3406,0.0,-3.5733,-3.7696,-3.9292,-4.007,-4.0646,-4.1255,-4.2337,-4.3031,-4.2574,-4.3115,-4.3752,0.0,-4.4096,-4.4215,-4.4564,-4.391,-4.3223,-4.2811,-4.1847,-4.1085,-4.0764,-4.0367,-4.0096,-4.0096,-4.0096,-4.0096,-4.0096,-4.0096,-4.0096,-4.0096,-4.0096,-4.0096,-4.0096,-4.0096,-4.0096,-4.0096,-4.0096,-4.0096,-4.0045,-3.8565,-3.7415,-3.6455,-3.4185,-3.2781,-3.207,-3.1145,-3.0512,-3.0163,-3.0552,-3.0717,-3.0627,-2.9864,-2.9804,-3.0118,-3.0118,-3.0387,-3.0657,-3.0253,-3.0567,-3.1002,-3.0627,-3.0957,-3.1361,-3.0702,-3.0313,-2.9879,-2.8861,-2.8382,-2.8068,-2.769,-2.76,-2.76,-2.76,-2.7285,-2.6941,-2.6632,-2.6063,-2.5501,-2.5217,-2.4933,-2.4552,-2.3909,-2.2936,-2.2044,-2.1365,-2.0946,-2.0453,-1.9768,-1.9708,-1.9708,-1.9708,-1.9708,-1.9708,-1.9708,-1.9708,-1.9927,-2.0447,-2.0364,-2.0466,-2.0797,-2.0732,-2.0632,-2.0464,-2.0862,-2.1165,-2.1353,-2.1794,-2.2106,-3.2443,0.0,0.0,-3.5554,-3.8091,-4.0552,-4.1204,-4.232,-4.3234,-4.3234,-4.3944,-4.4333,-4.3555,-4.3876,-4.4265,-4.4265,-4.4479,-4.4615,-4.4615,-4.3724,-4.2912,-4.2354,-4.1457,-4.0899,-4.0899,-4.0417,-4.0096,-4.0096,-4.0096,-4.0096,-4.0096,-4.0096,-4.0096,-4.0096,-4.0096,-4.0096,-4.0096,-4.0096,-4.0096,-4.0096,-4.0096,-4.0096,-4.0045,-3.8565,-3.7273,-3.6151,-3.4559,-3.3615,-3.3102,-3.2238,-3.1454,-3.0808,-3.1316,-3.1511,-3.1391,-3.0462,-3.0402,-3.0791,-3.0791,-3.1077,-3.1421,-3.0913,-3.1092,-3.1406,-3.0913,-3.1107,-3.1406,-3.0898,-3.0657,-3.0298,-2.9355,-2.8996,-2.8742,-2.8274,-2.8019,-2.7884,-2.7884,-2.736,-2.6881,-2.6881,-2.6333,-2.5884,-2.5884,-2.5734,-2.545,-2.4948,-2.4088,-2.3137,-2.2119,-2.1395,-2.0797,-2.0288,-2.0262,-2.0187,-1.9989,-1.9974,-1.9884,-1.9708,-1.9708,-2.0032,-2.078,-2.06,-2.0797,-2.1414,-2.126,-2.1102,-2.0991,-2.1399,-2.1597,-2.1628,-2.2293,-2.26,0.0,0.0,-3.5297,-3.8149,-4.002,-4.1745,-4.3972,-4.5043,-4.5602,-4.5602,-4.506,-4.4333,-4.3555,-4.3409,-4.3426,-4.3426,-4.4079,-4.4615,-4.4615,-4.3295,-4.232,-4.2286,-4.1027,-4.013,0.0,-4.0113,-4.0096,-4.0096,-4.0096,-4.0096,-4.0096,-4.0096,-4.0096,-4.0096,-4.0096,-4.0096,-4.0096,-4.0096,-4.0096,-4.0096,-4.0096,-4.0096,-4.0045,-3.8565,-3.7889,-3.7706,-3.5533,-3.4594,-3.4542,-3.3146,-3.2145,-3.1466,-3.1496,-3.1511,-3.1511,-3.1466,-3.1451,-3.1466,-3.1466,-3.1481,-3.1511,-3.1481,-3.1481,-3.1511,-3.1481,-3.1481,-3.1511,-3.1481,-3.0987,-3.0492,-3.0447,-2.9998,-2.9577,-2.9547,-2.9026,-2.8562,-2.8562,-2.8049,-2.757,-2.757,-2.7031,-2.6557,-2.6557,-2.6033,-2.56,-2.5561,-2.5555,-2.4822,-2.2912,-2.2069,-2.1665,-2.1635,-2.1635,-2.138,-2.0718,-2.0658,-2.0393,-1.9753,-1.9708,-1.9892,-2.0297,-2.0732,-2.0991,-2.1007,-2.1384,-2.1384,-2.0991,-2.1399,-2.1597,-2.1628,-2.2811,-2.3359,0.0,0.0,-3.8706,-4.0696,-4.2692,-4.4654,-4.6397,-4.6599,-4.6295,-4.5805,-4.4688,-4.342,-4.2185,-4.1948,-4.21,-4.2591,-4.3768,-4.4401,-4.3876,-4.3809,-4.325,-4.1745,-4.1119,0.0,0.0,0.0,0.0,-4.0096,-4.0096,-4.0096,-4.0096,-4.0096,-4.0096,-4.0096,-4.0096,-4.0096,-4.0096,-4.0096,-4.0096,-4.0096,-4.0096,-3.9842,-3.9351,-3.8345,-3.7635,-3.7127,-3.6377,-3.525,-3.3966,-3.3996,-3.3001,-3.1511,-3.1511,-3.1511,-3.1511,-3.1511,-3.1511,-3.1511,-3.1511,-3.1511,-3.1511,-3.1511,-3.1511,-3.1511,-3.1511,-3.1511,-3.1511,-3.1511,-3.1331,-3.1047,-3.0627,-3.0357,-3.0088,-2.9711,-2.9442,-2.925,-2.925,-2.9097,-2.8933,-2.8933,-2.8753,-2.8603,-2.8603,-2.8023,-2.729,-2.6393,-2.5501,-2.453,-2.343,-2.2763,-2.2194,-2.1739,-2.1306,-2.0942,-2.0718,-2.0288,-1.9929,-1.9708,-1.9708,-2.0071,-2.093,-2.1445,-2.2053,-2.2769,-2.3267,-2.3455,-2.3331,-2.3455,-2.3516,-2.3533,-2.3939,-2.4135,0.0,-3.9394,-4.1382,-4.3386,-4.5213,-4.6735,-4.7669,-4.7344,-4.643,-4.5145,-4.3673,-4.2168,-4.0696,-4.0206,-4.0358,-4.1356,-4.2364,-4.3081,-4.3341,-4.3386,-4.3031,-4.21,-4.1525,-4.1119,0.0,0.0,0.0,-4.013,-4.0096,-4.0096,-4.0096,-4.0096,-4.0096,-4.0096,-4.0096,-4.0096,-4.0096,-4.0096,-4.0096,-4.0096,-4.0096,-3.9859,-3.9385,-3.8633,-3.8176,-3.7946,-3.7422,-3.6404,-3.5169,-3.5075,-3.3975,-3.2243,-3.1956,-3.1705,-3.1511,-3.1511,-3.1511,-3.1511,-3.1511,-3.1511,-3.1511,-3.1511,-3.1511,-3.1511,-3.1511,-3.1511,-3.1511,-3.1511,-3.1511,-3.1406,-3.0957,-3.0866,-3.0776,-3.0372,-3.0088,-2.9909,-2.9909,-2.9744,-2.9606,-2.9606,-2.9606,-2.9606,-2.9606,-2.922,-2.8577,-2.747,-2.6378,-2.527,-2.4118,-2.3625,-2.3116,-2.2443,-2.1799,-2.1321,-2.1081,-2.0557,-2.0201,-2.0067,-2.0183,-2.0691,-2.1623,-2.2174,-2.2846,-2.3687,-2.4223,-2.4491,-2.4491,-2.4491,-2.4491,-2.4508,-2.4778,-2.4897,-3.9681,-4.139,-4.3217,-4.6126,-4.7394,-4.7872,-4.7838,-4.7208,-4.5974,-4.3707,-4.2033,-4.0527,0.0,0.0,-3.8345,-3.9842,-4.0189,-4.0984,-4.3088,-4.2243,-4.1914,0.0,0.0,0.0,0.0,0.0,0.0,-4.0282,0.0,-4.018,-4.0214,-4.018,-4.0163,-4.0163,-4.013,-4.0096,-4.0096,-4.0096,-4.0096,-4.0096,-4.0096,-4.0096,-4.0079,-3.9351,-3.9377,-3.9977,-3.8565,-3.7952,-3.7814,-3.6357,-3.496,-3.3668,-3.2867,-3.2123,-3.1555,-3.1555,-3.1525,-3.1511,-3.1511,-3.1525,-3.1555,-3.1511,-3.1525,-3.1555,-3.1555,-3.1525,-3.1511,-3.154,-3.1525,-3.1511,-3.154,-3.1525,-3.1525,-3.1585,-3.1047,-3.0567,-3.0597,-3.0118,-2.9711,-2.9711,-2.9711,-2.9696,-2.9666,-2.9651,-2.94,-2.8742,-2.8094,-2.6941,-2.4963,-2.4649,-2.435,-2.3729,-2.3092,-2.2448,-2.1819,-2.1503,-2.1197,-2.0809,-2.1158,-2.1657,-2.2327,-2.2864,-2.336,-2.3769,-2.434,-2.4609,-2.4609,-2.4609,-2.4609,-2.4626,-2.5321,-2.5659,-4.1955,-4.4079,-4.5974,-4.7293,-4.7753,-4.7753,-4.7208,-4.5618,-4.3639,-4.139,-3.9326,-3.7618,0.0,0.0,0.0,-3.9766,-4.1474,0.0,-4.3308,-4.4079,0.0,-4.2743,0.0,-4.2709,-4.2337,-4.2117,0.0,0.0,-4.1221,-4.1153,-4.1721,-4.1204,-4.0916,-4.0916,-4.04,-4.0096,-4.0096,-4.0096,-4.0096,-4.0096,-4.0096,-4.0096,-4.0079,-3.9351,-3.9089,-3.9242,-3.887,-3.8103,-3.7089,-3.6675,-3.57,-3.4368,-3.3547,-3.2841,-3.2243,-3.2243,-3.1929,-3.1511,-3.1511,-3.1824,-3.2153,-3.166,-3.1839,-3.2243,-3.2243,-3.1899,-3.16,-3.2093,-3.1884,-3.1615,-3.2108,-3.1869,-3.175,-3.2766,-3.2108,-3.1376,-3.1898,-3.1466,-3.1017,-3.1017,-3.1017,-3.0866,-3.0357,-3.0268,-3.0058,-2.943,-2.8757,-2.7799,-2.6273,-2.5217,-2.453,-2.4365,-2.3355,-2.2628,-2.2463,-2.2244,-2.2078,-2.1978,-2.2075,-2.2425,-2.3088,-2.3631,-2.4202,-2.4809,-2.5696,-2.6149,-2.6149,-2.6149,-2.6149,-2.6149,-2.6319,-2.642,-4.4299,-4.6075,-4.7394,-4.7817,-4.7682,-4.6972,-4.5213,-4.3335,-4.1212,-3.865,-3.6874,0.0,-3.4793,0.0,0.0,0.0,0.0,0.0,-4.2777,-4.3656,-4.3978,0.0,-4.3656,0.0,-4.3335,-4.3328,-4.3328,0.0,-4.2286,-4.1863,-4.2269,-4.1914,-4.1677,-4.1677,-4.0967,-4.0434,-4.0096,-4.0096,-4.0096,-4.0096,-4.0096,-4.0096,-4.0096,-3.9673,-3.9486,-3.9486,0.0,-3.9017,-3.822,-3.7866,-3.6894,-3.554,-3.4433,-3.3411,-3.2452,-3.2168,-3.1824,-3.1511,-3.1511,-3.1929,-3.2378,-3.172,-3.2138,-3.2886,-3.2602,-3.2228,-3.2019,-3.2378,-3.2019,-3.1645,-3.2318,-3.2213,-3.2183,-3.3245,-3.2931,-3.2497,-3.2871,-3.2392,-3.1854,-3.157,-3.1511,-3.1376,-3.0987,-3.0956,-3.0731,-3.0088,-2.9669,-2.9057,-2.8005,-2.6419,-2.5384,-2.5346,-2.4138,-2.3354,-2.3354,-2.2952,-2.2836,-2.3172,-2.3167,-2.3463,-2.4158,-2.4703,-2.5171,-2.5542,-2.6298,-2.6691,-2.6691,-2.6691,-2.6691,-2.6691,-2.6691,-2.6691,-4.638,-4.7564,-4.8125,-4.7939,-4.72,-4.5722,-4.2719,-4.0787,-3.8806,-3.5813,0.0,-3.3998,-3.3372,-3.3931,-3.503,-3.6694,0.0,-3.9918,-4.2117,-4.2523,-4.3108,-4.4445,-4.4784,-4.4852,-4.4767,-4.4835,-4.4852,-4.4767,-4.3504,-4.2709,-4.2608,-4.2489,-4.2354,-4.2151,-4.1525,-4.0849,-4.0113,-4.0096,-4.0096,-4.0096,-4.0096,-4.0096,-4.0096,-4.0096,-4.0096,-4.0096,-4.0096,-4.0096,-4.0045,-3.9236,-3.8177,-3.6954,-3.5504,-3.4067,-3.2705,-3.2032,-3.1703,-3.164,-3.164,-3.2089,-3.2511,-3.1749,-3.2392,-3.338,-3.2826,-3.2647,-3.2662,-3.2751,-3.2273,-3.1914,-3.2602,-3.2706,-3.2826,-3.3574,-3.3619,-3.3514,-3.3604,-3.311,-3.2452,-3.1869,-3.1765,-3.1765,-3.1765,-3.169,-3.1436,-3.0851,-3.0612,-3.0289,-2.9703,-2.7906,-2.6642,-2.6606,-2.542,-2.4617,-2.4617,-2.401,-2.3865,-2.4441,-2.439,-2.4615,-2.517,-2.5805,-2.6162,-2.6162,-2.6705,-2.6945,-2.6843,-2.6843,-2.6793,-2.6691,-2.6691,-2.6691,-4.7445,-4.8697,-4.9424,-4.8193,-4.6401,-4.4162,-4.1294,-3.8911,0.0,0.0,-3.2856,-3.2649,-3.2513,-3.3575,-3.5199,-3.7364,0.0,0.0,0.0,0.0,-4.431,0.0,0.0,0.0,0.0,-4.6058,0.0,0.0,-4.5263,-4.484,-4.4242,-4.3572,-4.2658,-4.1441,-4.1271,-4.0849,-4.0113,-4.0096,-4.0096,-4.0096,-4.0096,-4.0096,-4.0096,-4.0096,-4.0096,-4.0096,-4.0096,0.0,-4.0045,-3.9236,-3.8744,-3.8395,-3.6843,-3.5471,-3.4214,-3.3457,-3.2849,-3.241,-3.241,-3.2798,-3.3115,-3.1892,-3.2392,-3.3469,-3.3365,-3.332,-3.344,-3.3978,-3.3664,-3.3305,-3.3994,-3.3724,-3.3634,-3.4861,-3.4307,-3.3649,-3.4219,-3.3784,-3.329,-3.3185,-3.3155,-3.3155,-3.3155,-3.2706,-3.2273,-3.2183,-3.121,-3.047,-3.0336,-2.9045,-2.8107,-2.8052,-2.7318,-2.684,-2.684,-2.658,-2.6276,-2.5949,-2.5761,-2.5521,-2.5205,-2.6314,-2.692,-2.692,-2.8031,-2.8264,-2.7604,-2.7604,-2.73,-2.6691,-2.6691,-2.6691,-4.8071,-4.8984,-4.906,-4.7127,-4.502,-4.2439,-3.8743,0.0,0.0,0.0,-3.1094,-3.1258,-3.1258,0.0,0.0,0.0,0.0,0.0,0.0,0.0,0.0,0.0,0.0,0.0,0.0,-4.6718,-4.6921,-4.5788,-4.5703,-4.5382,-4.4649,-4.4215,-4.3335,-4.1813,-4.1762,-4.1221,-4.0113,-4.0096,-4.0096,-4.0096,-4.0096,-4.0096,-4.0096,-4.0096,-4.0096,-4.0096,-4.0096,-4.0096,-4.007,-3.9688,-3.9289,-3.8794,-3.7757,-3.6704,-3.5654,-3.4522,-3.3935,-3.3634,-3.3245,-3.3324,-3.3511,-3.3248,-3.3553,-3.4008,-3.4008,-3.4008,-3.4099,-3.4414,-3.4039,-3.3649,-3.4339,-3.4279,-3.4262,-3.5265,-3.5011,-3.4532,-3.4518,-3.4264,-3.3934,-3.3559,-3.3499,-3.3499,-3.3499,-3.323,-3.2901,-3.2557,-3.1958,-3.1533,-3.1554,-3.0998,-3.0117,-2.8934,-2.8467,-2.8232,-2.8232,-2.7899,-2.7682,-2.7701,-2.7335,-2.7137,-2.7172,-2.7761,-2.8091,-2.8091,-2.8697,-2.8824,-2.8416,-2.8416,-2.823,-2.791,-2.791,-2.791,-4.8257,-4.9001,-4.863,-4.6127,-4.3814,-4.1012,-3.6522,-3.3879,0.0,0.0,-2.9783,-3.0293,-3.0293,0.0,-3.432,0.0,0.0,0.0,0.0,0.0,0.0,0.0,0.0,0.0,0.0,-4.7212,0.0,-4.6041,-4.5652,-4.5213,-4.4632,-4.4615,-4.3988,-4.2574,-4.2371,-4.166,-4.0367,-4.018,-4.0096,-4.0096,-4.0096,-4.0096,-4.0096,-4.0096,-4.0096,-4.0096,-4.0096,-4.0096,-4.0096,-4.0096,-3.9731,-3.909,-3.8438,-3.7736,-3.6911,-3.561,-3.5166,-3.5072,-3.4481,-3.4288,-3.4401,-3.5126,-3.509,-3.4744,-3.4741,-3.483,-3.4919,-3.4745,-3.4322,-3.4038,-3.4593,-3.4728,-3.4863,-3.537,-3.5504,-3.5355,-3.4816,-3.4728,-3.4547,-3.4023,-3.3918,-3.3918,-3.3918,-3.3799,-3.3529,-3.3021,-3.2796,-3.2669,-3.255,-3.2629,-3.1981,-3.0119,-2.9783,-2.9636,-2.9484,-2.8944,-2.8748,-2.9046,-2.8636,-2.8515,-2.8829,-2.909,-2.9247,-2.9247,-2.9399,-2.9399,-2.9247,-2.9247,-2.9162,-2.8993,-2.8993,-2.8993,-4.7753,-4.8984,-4.9285,-4.6243,-4.343,-4.0259,-3.5873,0.0,0.0,-2.9002,-2.9496,-3.0293,-3.0293,-3.2035,-3.3728,0.0,0.0,0.0,0.0,0.0,0.0,0.0,0.0,0.0,0.0,-4.7804,-4.7581,-4.6752,-4.5478,-4.4682,-4.4615,-4.4615,-4.4198,-4.3325,-4.2642,-4.1914,-4.1119,-4.0434,-4.0096,-4.0096,-4.0096,-4.0096,-4.0096,-4.0096,-4.0096,-4.0096,-4.0096,-4.0096,0.0,-4.0096,-4.0045,-3.991,-3.9126,-3.8447,-3.7791,-3.6922,-3.6615,-3.6609,-3.6527,-3.651,-3.6617,-3.7305,-3.6643,-3.5586,-3.5525,-3.5905,-3.6261,-3.561,-3.537,-3.534,-3.5385,-3.5415,-3.5429,-3.5489,-3.5504,-3.5489,-3.5429,-3.5415,-3.5385,-3.5325,-3.5325,-3.5325,-3.5325,-3.4801,-3.4399,-3.4339,-3.3815,-3.3215,-3.2668,-3.3067,-3.3106,-3.2275,-3.2081,-3.1735,-3.1038,-3.034,-2.9743,-2.9301,-2.9051,-2.8738,-2.829,-2.9374,-3.0006,-3.0006,-3.0649,-3.0666,-3.0006,-3.0006,-2.9651,-2.8993,-2.8993,-2.8993,-4.6562,-4.7888,-4.7866,-4.4885,-4.1644,-3.8229,-3.4298,0.0,-2.9479,-2.8678,-2.9157,-3.0,-3.081,-3.2307,-3.3643,0.0,0.0,0.0,0.0,0.0,0.0,0.0,0.0,0.0,0.0,0.0,-4.8071,-4.6887,-4.5444,-4.4615,-4.4615,-4.4615,-4.4215,-4.3426,-4.2675,-4.1948,-4.1221,-4.0485,-4.0096,-4.0096,-4.0096,-4.0096,-4.0096,-4.0096,-4.0096,-4.0096,-4.0096,-4.0096,0.0,-4.0096,-4.0096,-4.007,-3.9756,-3.9469,-3.9167,-3.8417,-3.8119,-3.807,-3.7609,-3.7459,-3.7593,-3.8288,-3.8144,-3.76,-3.708,-3.7117,-3.7249,-3.6981,-3.689,-3.6768,-3.629,-3.5831,-3.5504,-3.5504,-3.5504,-3.5504,-3.5504,-3.5504,-3.5504,-3.5504,-3.5504,-3.5504,-3.5504,-3.528,-3.4951,-3.4563,-3.394,-3.3577,-3.3774,-3.3665,-3.3598,-3.369,-3.2862,-3.2192,-3.1887,-3.119,-3.0673,-3.0462,-3.0367,-3.0217,-3.0009,-3.0485,-3.0768,-3.0768,-3.1055,-3.1055,-3.0768,-3.0768,-3.0615,-3.033,-3.033,-3.033,-4.435,-4.5748,-4.5748,-4.3202,-3.9913,-3.6445,0.0,0.0,-2.8527,-2.8278,-2.8873,-2.9685,-3.0631,-3.2233,-3.3575,0.0,0.0,-3.5808,0.0,0.0,0.0,0.0,0.0,-4.6261,0.0,-4.824,-4.8071,-4.6583,-4.55,-4.4852,-4.4615,-4.4615,-4.4333,-4.3775,-4.3014,-4.2269,-4.1525,-4.1001,-4.0536,-4.0096,-4.0333,-4.0316,-4.0096,-4.0096,-4.0096,-4.0096,-4.0096,-4.0096,0.0,-4.0096,-4.0096,-4.0096,-4.0096,-4.0096,-4.0045,-3.9537,-3.9326,-3.9242,-3.8717,-3.8548,-3.8633,-3.9157,-3.9326,-3.9219,-3.8657,-3.8318,-3.8092,-3.7863,-3.7793,-3.7661,-3.7084,-3.6554,-3.6101,-3.5863,-3.5846,-3.5846,-3.5846,-3.5636,-3.5554,-3.5782,-3.5636,-3.5504,-3.5504,-3.5504,-3.534,-3.4861,-3.4607,-3.4637,-3.5163,-3.4843,-3.4716,-3.5127,-3.385,-3.2767,-3.2344,-3.1819,-3.1427,-3.1207,-3.119,-3.119,-3.119,-3.119,-3.119,-3.119,-3.119,-3.119,-3.119,-3.119,-3.119,-3.119,-3.119,-3.119,-4.0849,-4.2351,-4.3051,-4.143,-3.8456,-3.5326,0.0,0.0,-2.8412,-2.7735,-2.8551,-2.9406,-2.9422,-3.1588,-3.3406,-3.3423,0.0,0.0,0.0,0.0,0.0,0.0,0.0,-4.4333,-4.6583,-4.7479,-4.731,-4.5821,-4.5703,0.0,-4.4649,-4.4615,-4.4615,-4.4598,-4.3809,-4.3047,-4.2286,-4.2269,-4.1551,-4.0113,-4.0832,-4.0798,-4.0096,-4.0096,-4.0096,-4.0096,-4.0096,-4.0096,0.0,-4.0096,-4.0096,-4.0096,-4.0096,-4.0096,-4.0096,-4.0096,-4.0096,-4.0096,-4.0079,-4.0079,-4.0079,-4.0096,-4.0096,-4.0096,-4.007,-3.9516,-3.8745,-3.8007,-3.7793,-3.7793,-3.7777,-3.7793,-3.7573,-3.6798,-3.6584,-3.6584,-3.6584,-3.6038,-3.5733,-3.6446,-3.6006,-3.5504,-3.5504,-3.5504,-3.5504,-3.5489,-3.6148,-3.6678,-3.6678,-3.6728,-3.6755,-3.6778,-3.5407,-3.3901,-3.2412,-3.2293,-3.1989,-3.1241,-3.119,-3.119,-3.119,-3.119,-3.119,-3.119,-3.119,-3.119,-3.119,-3.119,-3.119,-3.119,-3.119,-3.119,-3.637,-3.784,-3.8386,-3.66,-3.4508,-3.2485,-3.0891,0.0,-2.8474,-2.8259,-2.918,-3.0185,-3.068,-3.18,-3.2966,-3.3981,-3.5182,0.0,0.0,0.0,0.0,0.0,-4.5534,-4.7513,0.0,0.0,-4.7513,-4.6515,-4.5991,-4.5382,-4.4649,-4.4615,-4.4615,-4.4615,-4.3318,-4.254,-4.2286,-4.1314,-4.0823,-4.0849,-4.0561,-4.0578,-4.0832,-4.0333,-4.0096,-4.0096,-4.0096,-4.0096,-4.0096,-4.0096,-4.0096,-4.0096,-4.0096,-4.0096,-4.0096,-4.0096,-4.0096,-4.0096,-4.0096,-4.0096,-4.0096,-4.0096,-4.0096,-4.0096,-4.0096,-3.9927,-3.9662,-3.9454,-3.8995,-3.8553,-3.8553,-3.8177,-3.7735,-3.7485,-3.7427,-3.7427,-3.7427,-3.7235,-3.7145,-3.7368,-3.6783,-3.6244,-3.6244,-3.6244,-3.6244,-3.6244,-3.6562,-3.6929,-3.7384,-3.6636,-3.6257,-3.6749,-3.5876,-3.4861,-3.3901,-3.2886,-3.2429,-3.2696,-3.2222,-3.1955,-3.1955,-3.1955,-3.1718,-3.1207,-3.119,-3.1444,-3.1955,-3.1464,-3.1464,-3.1955,-3.1955,-3.2205,0.0,-3.4165,-3.4861,-3.3744,-3.2112,0.0,0.0,0.0,-2.8238,-2.8439,-2.9271,-3.0168,-3.0848,-3.1704,-3.2699,-3.388,-3.4709,0.0,0.0,0.0,0.0,-4.3606,0.0,0.0,0.0,-4.802,-4.7597,-4.6853,-4.6126,-4.5382,-4.4649,-4.4615,-4.4479,-4.4147,-4.3217,-4.2574,-4.2286,-4.1399,-4.0891,-4.0781,-4.0595,-4.0595,-4.0764,-4.0316,-4.0096,-4.0096,-4.0096,-4.0096,0.0,-4.0096,-4.0096,-4.0096,-4.0096,-4.0096,-4.0096,-4.0096,-4.0096,-4.0096,-4.0096,-4.0096,-4.0096,-4.0096,-4.0096,-4.0096,-4.0096,-4.0096,-4.0096,-4.0096,-3.9756,-3.9342,-3.9342,-3.9022,-3.8596,-3.829,-3.8234,-3.8234,-3.8234,-3.8007,-3.7892,-3.8161,-3.7336,-3.6707,-3.6994,-3.6783,-3.6691,-3.701,-3.7361,-3.7731,-3.8169,-3.7475,-3.7,-3.7205,-3.6518,-3.574,-3.4979,-3.3833,-3.3203,-3.3389,-3.2966,-3.2733,-3.2733,-3.2733,-3.2493,-3.2036,-3.2036,-3.2256,-3.2716,-3.2239,-3.2273,-3.2733,-3.2733,-3.2949,0.0,0.0,0.0,0.0,0.0,0.0,0.0,0.0,0.0,-2.8334,-2.8966,-2.9601,-3.021,-3.1375,-3.2523,-3.3355,-3.415,-3.5419,0.0,-3.9343,0.0,0.0,-4.6041,0.0,-4.6802,-4.7513,-4.7665,-4.6853,-4.616,-4.5432,-4.4649,-4.4615,-4.4215,-4.3426,-4.3341,-4.298,-4.2219,-4.2151,-4.1474,-4.0197,-4.0815,-4.0781,-4.018,-4.013,-4.0096,0.0,-4.0096,-4.0096,-4.0096,-4.0096,-4.0096,-4.0096,-4.0096,-4.0096,-4.0096,-4.0096,-4.0096,-4.0096,-4.0096,-4.0096,-4.0096,-4.0096,-4.0096,-4.0096,-4.0096,-4.0096,-4.0096,-4.0096,-4.0096,-4.0096,-4.0096,-4.0096,-3.9901,-3.9166,-3.9005,-3.9005,-3.9005,-3.8458,-3.8177,-3.8854,-3.7787,-3.6994,-3.7748,-3.7263,-3.7024,-3.7777,-3.8497,-3.9005,-3.9005,-3.8974,-3.8734,-3.8058,-3.7313,-3.6535,-3.5752,-3.4962,-3.4218,-3.3609,-3.3508,-3.3491,-3.3491,-3.3491,-3.3457,-3.3406,-3.3457,-3.3457,-3.3406,-3.3457,-3.3491,-3.3491,-3.3491,-3.3508,-2.5702,0.0,-2.6983,-2.6609,-2.6913,-2.7315,0.0,0.0,0.0,0.0,0.0,0.0,0.0,-3.1079,-3.2183,-3.3951,-3.5391,-3.6637,-3.7753,0.0,0.0,-4.6058,-4.7581,-4.8037,-4.6904,-4.7986,-4.8206,-4.6887,-4.6633,-4.5957,-4.4682,-4.4615,-4.4215,-4.3426,-4.2861,-4.2202,-4.1474,-4.0908,-4.0739,-4.0933,-4.057,-4.0544,-4.0916,-4.0367,-4.0096,-4.0096,-4.0096,-4.0096,-4.0096,-4.0096,-4.0096,-4.0096,-4.0096,-4.0096,-4.0096,-4.0096,-4.0096,-4.0096,-4.0096,-4.0096,-4.0096,-4.0096,-4.0096,-4.0096,-4.0096,-4.0096,-4.0096,-4.0096,-4.0096,-4.0096,-4.0096,-4.0096,-4.0045,-3.9876,-3.9808,-3.9808,-3.9808,-3.9679,-3.961,-3.9782,-3.9032,-3.8425,-3.8608,-3.8481,-3.8425,-3.8608,-3.9315,-3.9808,-3.9808,-3.9353,-3.892,-3.8751,-3.8075,-3.733,-3.6569,-3.5267,-3.4675,-3.5059,-3.4556,-3.4235,-3.4235,-3.4235,-3.3981,-3.3423,-3.3947,-3.3964,-3.3406,-3.3964,-3.4235,-3.4235,-3.4235,-3.4539,-2.4109,-2.5211,-2.6265,-2.6041,-2.6752,-2.7515,0.0,0.0,0.0,0.0,0.0,0.0,0.0,0.0,-3.2517,-3.4665,-3.5707,0.0,0.0,0.0,-4.4333,-4.6532,-4.7496,-4.7936,0.0,-4.7919,-4.7665,-4.6853,-4.616,-4.5461,-4.4649,-4.4231,-4.369,-4.2929,-4.2185,-4.1593,-4.1204,-4.0485,-4.0316,-4.0679,-4.0299,-4.0316,-4.0679,-4.0282,-4.0096,-4.0096,-4.0096,-4.0096,-4.0096,-4.0096,-4.0096,-4.0096,-4.0096,-4.0096,-4.0096,-4.0096,-4.0096,-4.0096,-4.0096,-4.0096,-4.0096,-4.0096,-4.0096,-4.0096,-4.0096,-4.0096,-4.0096,-4.0096,-4.0096,-4.0096,-4.0096,-4.0096,-4.0096,-4.0096,-4.0096,-4.0096,-4.0096,-4.0096,-4.0096,-4.0096,-3.9463,-3.9032,-3.9385,-3.9139,-3.9032,-3.9411,-3.9808,-4.0096,-4.0096,-3.9757,-3.9385,-3.9039,-3.8633,-3.8108,-3.7364,-3.6237,-3.5571,-3.56,-3.5233,-3.5013,-3.5013,-3.5013,-3.4827,-3.4416,-3.481,-3.481,-3.4399,-3.4827,-3.5013,-3.5013,-3.5013,-3.5211,-2.3849,-2.5713,-2.7491,-2.7229,-2.7809,-2.8412,0.0,0.0,0.0,0.0,0.0,0.0,0.0,-3.2117,0.0,0.0,0.0,0.0,-4.1172,-4.2301,-4.3754,-4.6481,-4.6989,0.0,-4.8409,-4.7564,-4.687,-4.665,-4.5449,-4.4682,-4.4418,-4.3775,-4.3031,-4.2151,-4.1525,-4.1153,-4.1035,-4.0417,-4.0096,-4.0096,-4.0096,-4.0096,-4.0096,-4.0096,-4.0096,-4.0096,0.0,0.0,-4.0096,-4.0096,-4.0096,-4.0096,-4.0096,-4.0096,-4.0096,-4.0096,-4.0096,-4.0096,-4.0096,-4.0096,-4.0096,-4.0096,-4.0096,-4.0096,-4.0096,-4.0096,-4.0096,-4.0096,-4.0096,-4.0096,-4.0096,-4.0096,-4.0096,-4.0096,-4.0096,-4.0096,-4.0096,-4.0096,-4.0096,-4.0096,-3.9542,-3.9315,-3.9978,-3.9516,-3.9315,-3.9995,-4.0096,-4.0096,-4.0096,-4.0096,-3.9859,-3.9225,-3.9157,-3.887,-3.8142,-3.7483,-3.6789,-3.5988,-3.5718,-3.56,-3.56,-3.56,-3.56,-3.56,-3.56,-3.56,-3.56,-3.56,-3.56,-3.56,-3.56,-3.56,-2.4986,-2.6825,-2.787,-2.5615,-2.6422,-2.76,0.0,0.0,0.0,0.0,0.0,0.0,0.0,-3.3072,-3.4618,0.0,0.0,-3.948,0.0,0.0,-4.5402,-4.6659,0.0,-4.802,-4.638,-4.7141,-4.7225,-4.5974,-4.5669,-4.4959,-4.3656,-4.346,-4.2794,-4.1407,-4.1271,-4.0899,-4.0282,-4.0163,-4.0096,-4.0096,-4.0096,-4.0096,-4.0096,-4.0096,-4.0096,-4.0096,0.0,-4.0096,-4.0096,-4.0096,-4.0096,-4.0096,-4.0096,-4.0096,-4.0096,-4.0096,-4.0096,-4.0096,-4.0096,-4.0096,-4.0096,-4.0096,-4.0096,-4.0096,-4.0096,-4.0096,-4.0096,-4.0096,-4.0096,-4.0096,-4.0096,-4.0096,-4.0096,-4.0096,-4.0096,-4.0096,-4.0096,-4.0096,-4.0096,-4.0096,-3.9995,-3.9969,-4.007,-3.9995,-3.9952,-4.007,-4.0096,-4.0096,-4.0096,-4.0096,-4.0062,-3.9943,-3.9943,-3.9639,-3.8886,-3.8717,-3.8345,-3.7577,-3.6309,-3.56,-3.56,-3.56,-3.56,-3.56,-3.56,-3.56,-3.56,-3.56,-3.56,-3.56,-3.56,-3.56,-2.4358,-2.5989,-2.7215,-2.5989,-2.7709,-2.9445,0.0,0.0,0.0,0.0,0.0,0.0,0.0,0.0,-3.5257,-3.7411,0.0,-4.0511,-4.2653,-4.3644,-4.4486,0.0,0.0,-4.6972,-4.6346,-4.6549,-4.6447,-4.5754,-4.5331,-4.4604,-4.3443,-4.3031,-4.232,-4.1238,-4.0798,-4.0426,-4.0096,-4.0096,-4.0096,-4.0096,-4.0096,-4.0096,-4.0096,-4.0096,-4.0096,-4.0096,0.0,-4.0096,-4.0096,-4.0096,-4.0096,-4.0096,-4.0096,-4.0096,-4.0096,-4.0096,-4.0096,-4.0096,-4.0096,-4.0096,-4.0096,-4.0096,-4.0096,-4.0096,-4.0096,-4.0096,-4.0096,-4.0096,-4.0096,-4.0096,-4.0096,-4.0096,-4.0096,-4.0096,-4.0096,-4.0096,-4.0096,-4.0096,-4.0096,-4.0096,-4.0096,-4.0096,-4.0096,-4.0096,-4.0096,-4.0096,-4.0096,-4.0096,-4.0096,-4.0096,-4.0096,-4.0096,-4.0096,-3.996,-3.9622,-3.9249,-3.8514,-3.7364,-3.7009,-3.6462,-3.5633,-3.6028,-3.6045,-3.56,-3.56,-3.56,-3.56,-3.6045,-3.6248,-3.6265,-3.6671,-3.6834,-2.3984,-2.542,-2.6811,-2.6811,0.0,0.0,0.0,0.0,0.0,0.0,0.0,0.0,0.0,-3.4257,0.0,-3.9178,-4.0357,-4.1115,-4.1636,-4.2783,-4.382,-4.4512,-4.539,-4.6109,-4.6498,-4.5833,-4.5332,-4.5167,-4.4479,-4.371,-4.2919,-4.2354,-4.1694,-4.0967,-4.0375,-4.0096,-4.0096,-4.0096,-4.0096,-4.0096,-4.0096,-4.0096,-4.0096,-4.0096,-4.0096,-4.0096,-4.0096,-4.0096,-4.0096,-4.0096,-4.0096,-4.0096,-4.0096,-4.0096,-4.0096,-4.0096,-4.0096,-4.0096,-4.0096,-4.0096,-4.0096,-4.0096,-4.0096,-4.0096,-4.0096,-4.0096,-4.0096,-4.0096,-4.0096,-4.0096,-4.0096,-4.0096,-4.0096,-4.0096,-4.0096,-4.0096,-4.0096,-4.0096,-4.0096,-4.0096,-4.0096,-4.0096,-4.0096,-4.0096,-4.0096,-4.0096,-4.0096,-4.0096,-4.0096,-4.0096,-4.0096,-4.0096,-4.0096,-4.0096,-4.0096,-3.9588,-3.8684,-3.7405,-3.7686,-3.7381,-3.6174,-3.6721,-3.6772,-3.614,-3.614,-3.6039,-3.5893,-3.6671,-3.6981,-3.6829,-3.755,-3.7905,-2.5121,-2.6452,-2.7525,-2.7525,-2.8158,0.0,-3.0193,-2.9998,0.0,-3.2087,0.0,0.0,0.0,-3.6194,-3.8035,-3.9524,-4.0836,-4.1674,-4.1774,0.0,-4.5074,-4.5383,-4.6203,-4.6464,-4.5838,-4.499,-4.4255,-4.3591,-4.2827,-4.2081,-4.1388,-4.1322,-4.0933,-4.0214,-4.013,-4.0096,-4.0096,-4.0096,-4.0096,-4.0096,-4.0096,-4.0096,-4.0096,-4.0096,-4.0096,-4.0096,-4.0096,-4.0096,-4.0096,-4.0096,-4.0096,-4.0096,-4.0096,-4.0096,-4.0096,-4.0096,-4.0096,-4.0096,-4.0096,-4.0096,-4.0096,-4.0096,-4.0096,-4.0096,-4.0096,-4.0096,-4.0096,-4.0096,-4.0096,-4.0096,-4.0096,-4.0096,-4.0096,-4.0096,-4.0096,-4.0096,-4.0096,-4.0096,-4.0096,-4.0096,-4.0096,-4.0096,-4.0096,-4.0096,-4.0096,-4.0096,-4.0096,-4.0096,-4.0096,-4.0096,-4.0096,-4.0096,-4.0096,-4.0096,-4.0096,-4.0045,-3.969,-3.8886,-3.8261,-3.7855,-3.7753,-3.7787,-3.7804,-3.7753,-3.7736,-3.7398,-3.6728,-3.7449,-3.7466,-3.6829,-3.755,-3.7905,-2.4223,-2.6274,-2.8075,-2.7199,-2.8779,0.0,0.0,-3.1913,-3.2871,-3.3652,-3.4881,0.0,0.0,0.0,-3.8231,-3.9999,-4.0683,-4.114,-4.1495,-4.3243,-4.4136,-4.3216,-4.4426,-4.4633,-4.2944,-4.2478,-4.2024,-4.134,-4.1453,-4.1269,-4.055,-4.0935,-4.0849,-4.013,-4.0096,-4.0096,-4.0096,-4.0096,-4.0096,-4.0096,-4.0096,-4.0096,-4.0096,-4.0096,-4.0096,-4.0096,-4.0096,-4.0096,-4.0096,-4.0096,-4.0096,-4.0096,-4.0096,-4.0096,-4.0096,-4.0096,-4.0096,-4.0096,-4.0096,-4.0096,-4.0096,-4.0096,-4.0096,-4.0096,-4.0096,-4.0096,-4.0096,-4.0096,-4.0096,-4.0096,-4.0096,-4.0096,-4.0096,-4.0096,-4.0096,-4.0096,-4.0096,-4.0096,-4.0096,-4.0096,-4.0096,-4.0096,-4.0096,-4.0096,-4.0096,-4.0096,-4.0096,-4.0096,-4.0096,-4.0096,-4.0096,-4.0096,-4.0096,-4.0096,-4.0096,-4.0096,-3.9994,-3.9706,-3.9436,-3.8853,-3.7939,-3.8345,-3.8379,-3.7922,-3.7905,-3.777,-3.7483,-3.821,-3.843,-3.82,-3.8903,-3.9259,-2.3595,-2.5628,-2.7549,0.0,0.0,0.0,-3.227,-3.335,-3.4491,-3.5557,-3.6723,0.0,0.0,0.0,0.0,0.0,-4.0935,-4.121,-4.0837,-4.2251,-4.2858,-4.1531,-4.2509,-4.2707,-4.1162,-4.0562,-4.0101,-3.9672,-3.9909,-3.9968,-3.9743,-4.0204,-4.0372,-4.0113,-4.0096,-4.0096,-4.0096,-4.0096,-4.0096,-4.0096,-4.0096,-4.0096,-4.0096,-4.0096,-4.0096,-4.0096,-4.0096,-4.0096,-4.0096,-4.0096,-4.0096,-4.0096,-4.0096,-4.0096,-4.0096,-4.0096,-4.0096,-4.0096,-4.0096,-4.0096,-4.0096,-4.0096,-4.0096,-4.0096,-4.0096,-4.0096,-4.0096,-4.0096,-4.0096,-4.0096,-4.0096,-4.0096,-4.0096,-4.0096,-4.0096,-4.0096,-4.0096,-4.0096,-4.0096,-4.0096,-4.0096,-4.0096,-4.0096,-4.0096,-4.0096,-4.0096,-4.0096,-4.0096,-4.0096,-4.0096,-4.0096,-4.0096,-4.0096,-4.0096,-4.0096,-4.0096,-4.0096,-4.0096,-4.0096,-3.9656,-3.8633,-3.9073,-3.9106,-3.8599,-3.8582,-3.8481,-3.8261,-3.8988,-3.9249,-3.9005,-3.9757,-4.0096,-2.361,-2.4597,-2.5779,0.0,0.0,0.0,-3.3904,-3.3978,-3.4512,-3.7924,0.0,-3.9814,-3.9874,-4.0621,0.0,-3.9948,-4.1566,-4.2118,-3.9721,-4.0695,-4.143,-4.0752,-4.0846,-4.0973,-4.0957,-3.9581,-3.8732,-3.8848,-3.8058,-3.7957,-3.8832,-3.8908,-3.9262,-4.007,-4.0113,-4.0113,-4.007,-4.0113,-4.0096,-4.0096,-4.0096,-4.0096,-4.0096,-4.0096,-4.0096,-4.0096,-4.0096,-4.0096,-4.0096,-4.0096,-4.0096,-4.0096,-4.0096,-4.0096,-4.0096,-4.0096,-4.0096,-4.0096,-4.0096,-4.0096,-4.0096,-4.0096,-4.0096,-4.0096,-4.0096,-4.0096,-4.0096,-4.0096,-4.0096,-4.0096,-4.0096,-4.0096,-4.0096,-4.0096,-4.0096,-4.0096,-4.0096,-4.0096,-4.0096,-4.0096,-4.0096,-4.0096,-4.0096,-4.0096,-4.0096,-4.0096,-4.0096,-4.0096,-4.0096,-4.0096,-4.0096,-4.0096,-4.0096,-4.0096,-4.0096,-4.0096,-4.0096,-4.0096,-4.0096,-4.0096,-4.0096,-4.0096,-4.0096,-4.0096,-4.0096,-3.974,-3.9005,-3.9757,-3.9723,-3.9022,-3.9757,-4.0096,-2.4171,-2.6001,0.0,-2.7966,0.0,0.0,0.0,-3.5087,0.0,0.0,-3.9523,-3.933,-4.0392,0.0,0.0,-3.9719,-4.0183,-4.0158,-3.8883,-3.96,-3.9804,-3.8516,-3.898,-3.8963,-3.7929,-3.7436,-3.6975,-3.6532,-3.6754,-3.7274,-3.8092,-3.8608,-3.9005,-3.9262,-3.9808,-3.9833,-3.9262,-3.9808,-4.0096,-4.0096,-4.0096,-4.0096,-4.0096,-4.0096,-4.0096,-4.0096,-4.0096,-4.0096,-4.0096,-4.0096,-4.0096,-4.0096,-4.0096,-4.0096,-4.0096,-4.0096,-4.0096,-4.0096,-4.0096,-4.0096,-4.0096,-4.0096,-4.0096,-4.0096,-4.0096,-4.0096,-4.0096,-4.0096,-4.0096,-4.0096,-4.0096,-4.0096,-4.0096,-4.0096,-4.0096,-4.0096,-4.0096,-4.0096,-4.0096,-4.0096,-4.0096,-4.0096,-4.0096,-4.0096,-4.0096,-4.0096,-4.0096,-4.0096,-4.0096,-4.0096,-4.0096,-4.0096,-4.0096,-4.0096,-4.0096,-4.0096,-4.0096,-4.0096,-4.0096,-4.0096,-4.0096,-4.0096,-4.0096,-4.0096,-4.0096,-3.9994,-3.9774,-3.9994,-3.9994,-3.9791,-3.9994,-4.0096,-2.435,-2.5993,0.0,-2.8737,-3.1122,-3.36,-3.4973,0.0,0.0,0.0,0.0,-3.9645,-4.0274,-4.0606,0.0,-3.9363,-3.9743,-3.9755,-3.8656,-3.8678,-3.8544,-3.7928,-3.7854,-3.7484,-3.6588,-3.6252,-3.5938,-3.5534,-3.5911,-3.6631,-3.7719,-3.8218,-3.8745,-3.9342,-3.985,-3.9876,-3.9368,-3.9876,-4.0096,-4.0096,-4.0096,-3.996,-3.9673,-3.9977,-4.0096,-4.0096,-4.0096,-4.0096,-4.0096,-4.0096,-4.0096,-4.0096,-4.0096,-4.0096,-4.0096,-4.0096,-4.0096,-4.0096,-4.0096,-4.0096,-4.0096,-4.0096,-4.0096,-4.0096,-4.0096,-4.0096,-4.0096,-4.0096,-4.0096,-4.0096,-4.0096,-4.0096,-4.0096,-4.0096,-4.0096,-4.0096,-4.0096,-4.0096,-4.0096,-4.0096,-4.0096,-4.0096,-4.0096,-4.0096,-4.0096,-4.0096,-4.0096,-4.0096,-4.0096,-4.0096,-4.0096,-4.0096,-4.0096,-4.0096,-4.0096,-4.0096,-4.0096,-4.0096,-4.0096,-4.0096,-4.0096,-4.0096,-4.0096,-4.0096,-4.0096,-4.0096,-4.0096,-4.0096,-4.0096,-4.0096,-4.0096,-4.0096,-2.4321,0.0,0.0,-2.9086,-3.133,0.0,-3.5938,-3.7913,-3.923,-3.9337,0.0,-4.0344,-3.973,-4.0862,-4.1174,-3.8963,-3.9754,-4.0135,-3.8627,-3.7773,-3.7556,-3.8229,-3.7182,-3.6402,-3.6402,-3.5863,-3.5504,-3.5504,-3.5504,-3.6148,-3.7602,-3.7748,-3.843,-3.985,-3.9952,-3.9944,-3.9893,-3.9918,-3.991,-3.991,-3.991,-3.9554,-3.892,-3.974,-4.0096,-4.0096,-4.0096,-4.0096,-4.0096,-4.0096,-4.0096,-4.0096,-4.0096,-4.0096,-4.0096,-4.0096,-4.0096,-4.0096,-4.0096,-4.0096,-4.0096,-4.0096,-4.0096,-4.0096,-4.0096,-4.0096,-4.0096,-4.0096,-4.0096,-4.0096,-4.0096,-4.0096,-4.0096,-4.0096,-4.0096,-4.0096,-4.0096,-4.0096,-4.0096,-4.0096,-4.0096,-4.0096,-4.0096,-4.0096,-4.0096,-4.0096,-4.0096,-4.0096,-4.0096,-4.0096,-4.0096,-4.0096,-4.0096,-4.0096,-4.0096,-4.0096,-4.0096,-4.0096,-4.0096,-4.0096,-4.0096,-4.0096,-4.0096,-4.0096,-4.0096,-4.0096,-4.0096,-4.0096,-4.0096,-4.0096,-4.0096,-4.0096,0.0,-2.5869,0.0,0.0,0.0,-3.5774,-3.6357,-3.718,-3.803,-3.8729,-3.9395,-3.9882,-3.9834,-3.9629,-3.9266,-3.8707,-3.8356,-3.7901,-3.7062,-3.6805,-3.6558,-3.623,-3.5887,-3.5714,-3.5714,-3.5594,-3.5504,-3.5504,-3.5504,-3.5894,-3.6828,-3.7456,-3.795,-3.829,-3.8904,-3.8942,-3.8311,-3.8346,-3.8379,-3.8379,-3.8379,-3.8294,-3.8176,-3.9503,-4.0096,-4.0096,-4.0096,-4.0096,-4.0096,-4.0096,-4.0096,-4.0096,-4.0096,-4.0096,-4.0096,-4.0096,-4.0096,-4.0096,-4.0096,-4.0096,-4.0096,-4.0096,-4.0096,-4.0096,-4.0096,-4.0096,-4.0096,-4.0096,-4.0096,-4.0096,-4.0096,-4.0096,-4.0096,-4.0096,-4.0096,-4.0096,-4.0096,-4.0096,-4.0096,-4.0096,-4.0096,-4.0096,-4.0096,-4.0096,-4.0096,-4.0096,-4.0096,-4.0096,-4.0096,-4.0096,-4.0096,-4.0096,-4.0096,-4.0096,-4.0096,-4.0096,-4.0096,-4.0096,-4.0096,-4.0096,-4.0096,-4.0096,-4.0096,-4.0096,-4.0096,-4.0096,-4.0096,-4.0096,-4.0096,-4.0096,-4.0096,-4.0096,0.0,0.0,0.0,0.0,0.0,0.0,-3.6492,-3.6971,-3.7451,-3.7621,-3.8162,-3.8632,-3.869,-3.8709,-3.847,-3.7704,-3.7578,-3.7301,-3.6632,-3.6245,-3.6027,-3.602,-3.5701,-3.5504,-3.5504,-3.5504,-3.5504,-3.5504,-3.5504,-3.5663,-3.612,-3.6509,-3.6934,-3.7324,-3.7722,-3.7912,-3.7853,-3.7881,-3.7905,-3.7905,-3.7905,-3.8091,-3.8447,-3.9208,-3.9571,-3.9605,-3.996,-3.991,-3.9605,-3.996,-4.0096,-4.0096,-4.0096,-4.0096,-4.0096,-4.0096,-4.0096,-4.0096,-4.0096,-4.0096,-4.0096,-4.0096,-4.0096,-4.0096,-4.0096,-4.0096,-4.0096,-4.0096,-4.0096,-4.0096,-4.0096,-4.0096,-4.0096,-4.0096,-4.0096,-4.0096,-4.0096,-4.0096,-4.0096,-4.0096,-4.0096,-4.0096,-4.0096,-4.0096,-4.0096,-4.0096,-4.0096,-4.0096,-4.0096,-4.0096,-4.0096,-4.0096,-4.0096,-4.0096,-4.0096,-4.0096,-4.0096,-4.0096,-4.0096,-4.0096,-4.0096,-4.0096,-4.0096,-4.0096,-4.0096,-4.0096,-4.0096,-4.0096,-4.0096,-4.0096,-4.0096,-4.0096,0.0,0.0,0.0,0.0,0.0,0.0,-3.6133,-3.6626,-3.6941,-3.6417,-3.6821,-3.7244,-3.7278,-3.7765,-3.7795,-3.6688,-3.6989,-3.7093,-3.6492,-3.5894,-3.5733,-3.6337,-3.5863,-3.5504,-3.5504,-3.5504,-3.5504,-3.5504,-3.5385,-3.5359,-3.5399,-3.5424,-3.5793,-3.6596,-3.6618,-3.6954,-3.7702,-3.7584,-3.7493,-3.7493,-3.7493,-3.7905,-3.8616,-3.8616,-3.8751,-3.9039,-3.9791,-3.969,-3.9056,-3.9808,-4.0096,-4.0096,-4.0096,-4.0096,-4.0096,-4.0096,-4.0096,-4.0096,-4.0096,-4.0096,-4.0096,-4.0096,-4.0096,-4.0096,-4.0096,-4.0096,-4.0096,-4.0096,-4.0096,-4.0096,-4.0096,-4.0096,-4.0096,-4.0096,-4.0096,-4.0096,-4.0096,-4.0096,-4.0096,-4.0096,-4.0096,-4.0096,-4.0096,-4.0096,-4.0096,-4.0096,-4.0096,-4.0096,-4.0096,-4.0096,-4.0096,-4.0096,-4.0096,-4.0096,-4.0096,-4.0096,-4.0096,-4.0096,-4.0096,-4.0096,-4.0096,-4.0096,-4.0096,-4.0096,-4.0096,-4.0096,-4.0096,-4.0096,-4.0096,-4.0096,-4.0096,-4.0096,0.0,0.0,0.0,0.0,0.0,0.0,0.0,0.0,-3.5729,0.0,-3.6148,-3.6634,-3.6706,-3.6265,-3.6073,-3.6507,-3.6143,-3.5774,-3.5651,-3.5554,-3.5537,-3.5651,-3.5554,-3.5504,-3.5504,-3.5504,-3.5504,-3.5504,-3.4951,-3.4625,-3.466,-3.4771,-3.5125,-3.583,-3.5836,-3.6205,-3.6948,-3.6265,-3.5904,-3.5904,-3.5904,-3.6332,-3.71,-3.71,-3.7794,-3.9039,-3.9791,-3.969,-3.9056,-3.9808,-4.0096,-4.0096,-4.0096,-4.0096,-4.0096,-4.0096,-4.0096,-4.0096,-4.0096,-4.0096,-4.0096,-4.0096,-4.0096,-4.0096,-4.0096,-4.0096,-4.0096,-4.0096,-4.0096,-4.0096,-4.0096,-4.0096,-4.0096,-4.0096,-4.0096,-4.0096,-4.0096,-4.0096,-4.0096,-4.0096,-4.0096,-4.0096,-4.0096,-4.0096,-4.0096,-4.0096,-4.0096,-4.0096,-4.0096,-4.0096,-4.0096,-4.0096,-4.0096,-4.0096,-4.0096,-4.0096,-4.0096,-4.0096,-4.0096,-4.0096,-4.0096,-4.0096,-4.0096,-4.0096,-4.0096,-4.0096,-4.0096,-4.0096,-4.0096,-4.0096,-4.0096,-4.0096,-2.4799,0.0,0.0,0.0,0.0,0.0,0.0,0.0,-3.4382,-3.4382,-3.4607,-3.5063,-3.5835,-3.5733,-3.5619,-3.5911,-3.5701,-3.5504,-3.5504,-3.5504,-3.5504,-3.5504,-3.5504,-3.5504,-3.5504,-3.5504,-3.534,-3.4966,-3.4683,-3.4189,-3.3425,-3.3441,-3.3631,-3.394,-3.3958,-3.4473,-3.5552,-3.5218,-3.523,-3.56,-3.56,-3.6028,-3.6795,-3.6795,-3.7151,-3.7828,-3.8548,-3.8684,-3.8447,-3.9174,-3.974,-4.0096,-4.0096,-4.0096,-4.0096,-4.0096,-4.0096,-4.0096,-4.0096,-4.0096,-4.0096,-4.0096,-4.0096,-4.0096,-4.0096,-4.0096,-4.0096,-4.0096,-4.0096,-4.0096,-4.0096,-4.0096,-4.0096,-4.0096,-4.0096,-4.0096,-4.0096,-4.0096,-4.0231,-4.0629,-4.0383,-4.0231,-4.0646,-4.0383,-4.0096,-4.0096,-4.0096,-4.0096,-4.0096,-4.0096,-4.0096,-4.0096,-4.0096,-4.0096,-4.0096,-4.0096,-4.0096,-4.0096,-4.0096,-4.0096,-4.0096,-4.0096,-4.0096,-4.0096,-4.0096,-4.0096,-4.0096,-4.0096,-4.0096,-4.0096,-4.0096,-4.0096,0.0,0.0,0.0,0.0,0.0,0.0,0.0,0.0,-3.329,0.0,-3.3499,-3.3799,-3.4816,-3.513,-3.5295,-3.5474,-3.5504,-3.5504,-3.5504,-3.5355,-3.531,-3.5489,-3.5355,-3.531,-3.5489,-3.5355,-3.5026,-3.4548,-3.4158,-3.3544,-3.2557,-3.2333,-3.2352,-3.2574,-3.2586,-3.3172,-3.4333,-3.4503,-3.4847,-3.5362,-3.5515,-3.5904,-3.6485,-3.6485,-3.6485,-3.6535,-3.7499,-3.7787,-3.7686,-3.8413,-3.9165,-3.9825,-3.9825,-3.9943,-4.0096,-4.0096,-4.0096,-4.0096,-4.0096,-4.0096,-4.0096,-4.0096,-4.0096,-4.0096,-4.0096,-4.0096,-4.0096,-4.0096,-4.0096,-4.0096,-4.0096,-4.0096,-4.0096,-4.0096,-4.0096,-4.0096,-4.0096,-4.0096,-4.0333,-4.1068,-4.0595,-4.0333,-4.1068,-4.0578,-4.0096,-4.0096,-4.0096,-4.0096,-4.0096,-4.0265,-4.0383,-4.0383,-4.0383,-4.0383,-4.0383,-4.0214,-4.0096,-4.0096,-4.0096,-4.0096,-4.0096,-4.0096,-4.0096,-4.0096,-4.0096,-4.0096,-4.0096,-4.0096,-4.0096,-4.0096,-4.0096,-4.0096,0.0,0.0,0.0,0.0,0.0,0.0,0.0,0.0,0.0,-3.3365,-3.3499,-3.3514,-3.3589,-3.4098,-3.4773,-3.54,-3.5504,-3.5504,-3.5504,-3.4936,-3.4771,-3.5429,-3.4936,-3.4786,-3.5444,-3.4921,-3.4548,-3.4503,-3.332,-3.2557,-3.2512,-3.1899,-3.1855,-3.2574,-3.2586,-3.2949,-3.3633,-3.4284,-3.4616,-3.4664,-3.5293,-3.5616,-3.565,-3.565,-3.565,-3.5752,-3.7263,-3.7499,-3.6914,-3.7652,-3.8396,-3.9056,-3.9056,-3.9486,-4.0096,-4.0096,-4.0096,-4.0096,-4.0096,-4.0096,-4.0096,-4.0096,-4.0096,-4.0096,-4.0096,-4.0096,-4.0096,-4.0096,-4.0096,-4.0096,-4.0096,-4.0096,-4.0096,-4.0096,-4.0096,-4.0096,-4.0096,-4.0096,-4.0333,-4.1068,-4.0595,-4.0333,-4.1068,-4.0578,-4.0096,-4.0096,-4.0096,-4.0096,-4.0096,-4.0696,-4.1136,-4.1136,-4.1136,-4.1136,-4.1136,-4.0493,-4.0096,-4.0096,-4.0096,-4.0096,-4.0096,-4.0096,-4.0096,-4.0096,-4.0096,-4.0096,-4.0096,-4.0096,-4.0096,-4.0096,-4.0096,-4.0096,0.0,0.0,0.0,0.0,0.0,0.0,-2.7575,-2.8876,-3.0073,-3.0313,-3.0687,-3.1106,-3.1495,-3.2826,-3.3933,-3.4173,-3.4218,-3.4218,-3.4218,-3.4008,-3.3948,-3.4188,-3.3993,-3.3948,-3.4188,-3.3993,-3.3664,-3.3245,-3.2781,-3.2303,-3.1869,-3.1212,-3.1174,-3.1866,-3.147,-3.1597,-3.2301,-3.3405,-3.3971,-3.3971,-3.5081,-3.56,-3.56,-3.56,-3.56,-3.5633,-3.6174,-3.6569,-3.6829,-3.71,-3.7618,-3.8345,-3.8819,-3.9157,-3.9445,-3.9926,-4.0096,-4.0096,-4.0096,-4.0096,-4.0096,-4.0096,-4.0096,-4.0096,-4.0096,-4.0096,-4.0096,-4.0096,-4.0096,-4.0096,-4.0096,-4.0096,-4.0096,-4.0096,-4.0468,-4.0798,-4.0798,-4.0798,-4.1153,-4.2388,-4.1644,-4.1187,-4.2405,-4.161,-4.0798,-4.0798,-4.0417,-4.0096,-4.0096,-4.073,-4.1204,-4.1204,-4.1204,-4.1204,-4.1204,-4.051,-4.0096,-4.0096,-4.0096,-4.0096,-4.0096,-4.0096,-4.0096,-4.0096,-4.0096,-4.0096,-4.0096,-4.0096,-4.0096,-4.0096,-4.0096,-4.0096,0.0,0.0,0.0,0.0,0.0,-2.5367,-2.5839,0.0,-2.8053,-2.8502,-2.8951,-2.9445,-3.0073,-3.1285,-3.2392,-3.3066,-3.335,-3.3499,-3.3499,-3.3305,-3.3245,-3.3469,-3.3305,-3.3245,-3.3469,-3.3305,-3.2976,-3.2512,-3.2273,0.0,-3.1525,-3.0853,-3.0612,-3.0838,-3.0432,-3.0531,-3.1217,-3.2576,-3.3385,-3.363,-3.495,-3.56,-3.56,-3.56,-3.56,-3.56,-3.56,-3.591,-3.64,-3.64,-3.684,-3.7601,-3.8345,-3.8768,-3.9089,-3.9842,-4.0096,-4.0096,-4.0096,-4.0096,-4.0096,-4.0096,-4.0096,-4.0096,-4.0096,-4.0096,-4.0096,-4.0096,-4.0096,-4.0096,-4.0096,-4.0096,-4.0096,-4.0096,-4.0832,-4.1576,-4.1576,-4.1576,-4.1931,-4.3156,-4.2422,-4.1965,-4.3172,-4.2388,-4.1576,-4.1576,-4.1136,-4.084,-4.084,-4.1474,-4.1847,-4.1593,-4.1796,-4.1847,-4.1593,-4.1119,-4.084,-4.084,-4.062,-4.0485,-4.0485,-4.0231,-4.0096,-4.0096,-4.0096,-4.0096,-4.0096,-4.0096,-4.0096,-4.0096,-4.0096,-4.0096,0.0,0.0,0.0,0.0,0.0,0.0,-2.4575,0.0,-2.6901,-2.8203,-2.8502,-2.8712,-2.934,-2.9517,-3.0118,-3.2033,-3.2916,-3.338,-3.338,-3.2826,-3.2662,-3.3305,-3.2841,-3.2706,-3.335,-3.2841,-3.2452,-3.2452,-3.1854,-3.1466,-3.1466,-3.0851,-3.0193,-2.9592,-2.9577,-2.9849,-3.0477,-3.1877,-3.2912,-3.3576,-3.4941,-3.56,-3.56,-3.56,-3.56,-3.56,-3.56,-3.56,-3.56,-3.56,-3.6062,-3.6846,-3.7584,-3.8328,-3.9056,-3.9808,-4.0079,-4.0096,-4.0096,-4.0096,-4.0096,-4.0096,-4.0096,-4.0096,-4.0096,-4.0096,-4.0096,-4.0096,-4.0096,-4.0096,-4.0096,-4.0096,-4.0113,-4.013,-4.1221,-4.2303,-4.232,-4.2337,-4.2574,-4.3318,-4.2844,-4.2574,-4.3291,-4.2828,-4.232,-4.232,-4.2303,-4.2286,-4.2286,-4.2946,-4.3149,-4.2405,-4.298,-4.3115,-4.2388,-4.2303,-4.2286,-4.2286,-4.1627,-4.1221,-4.1204,-4.0493,-4.013,-4.0096,-4.0096,-4.0096,-4.0096,-4.0096,-4.0096,-4.0096,-4.0096,-4.0096,-2.2997,0.0,0.0,0.0,0.0,0.0,0.0,0.0,-2.5247,-2.5621,-2.6084,-2.6497,-2.6677,-2.7096,-2.7615,-2.8143,-2.9609,-3.0685,-3.0685,-3.0507,-3.0462,-3.0642,-3.0896,-3.1135,-3.1315,-3.1585,-3.178,0.0,-3.1152,-3.0791,-3.0791,-3.0178,-2.9549,-2.8891,-2.8876,-2.919,-2.9834,-3.1196,-3.2199,-3.2905,-3.4732,-3.56,-3.56,-3.56,-3.56,-3.56,-3.56,-3.56,-3.56,-3.56,-3.5718,-3.6011,-3.6789,-3.755,-3.8294,-3.9022,-3.9656,-4.0096,-4.0096,-4.0096,-4.0096,-4.0096,-4.0096,-4.0096,-4.0096,-4.0096,-4.0096,-4.0096,-4.0096,-4.0096,-4.0096,-4.0096,-4.0231,-4.0764,-4.161,-4.2439,-4.298,-4.3538,-4.4039,-4.4215,-4.3623,-4.3352,-4.413,-4.3623,-4.3115,-4.3115,-4.2642,-4.2286,-4.2286,-4.2946,-4.3308,-4.3132,-4.3274,-4.3308,-4.3115,-4.2608,-4.2286,-4.2286,-4.21,-4.1762,-4.1221,-4.1001,-4.0629,-4.0113,-4.0096,-4.0096,-4.0096,-4.0096,-4.0096,-4.0096,-4.0096,-4.0096,0.0,0.0,0.0,0.0,0.0,0.0,-2.3595,-2.3909,-2.4261,-2.4545,-2.4679,-2.4866,-2.5128,-2.551,-2.5779,-2.5779,-2.6976,-2.8218,-2.9056,-2.94,-2.9606,-2.9606,-2.9909,-3.0118,-3.0118,-3.0477,-3.0717,-3.0717,-3.0342,-2.9998,-2.9714,-2.937,-2.8861,-2.8188,-2.8173,-2.8487,-2.916,-3.0513,-3.151,-3.2222,-3.4222,-3.5168,-3.5207,-3.547,-3.56,-3.56,-3.56,-3.56,-3.56,-3.56,-3.56,-3.5701,-3.6823,-3.7516,-3.8041,-3.9056,-3.974,-4.0096,-4.0096,-4.0096,-4.0096,-4.0096,-4.0096,-4.0096,-4.0096,-4.0096,-4.0096,-4.0096,-4.0096,-4.0096,-4.0096,-4.0096,-4.0299,-4.1018,-4.1762,-4.2489,-4.3223,-4.4028,-4.4615,-4.4615,-4.4215,-4.4045,-4.453,-4.4198,-4.3792,-4.3443,-4.3318,-4.3132,-4.2794,-4.3436,-4.3775,-4.3426,-4.3707,-4.3775,-4.3426,-4.3301,-4.3278,-4.3278,-4.2642,-4.21,-4.1677,-4.1068,-4.0527,-4.0113,-4.0096,-4.0096,-4.0096,-4.0096,-4.0096,-4.0096,-4.0096,-4.0096,0.0,0.0,0.0,0.0,0.0,0.0,-2.3819,-2.3819,-2.3969,-2.4485,-2.4126,-2.3879,-2.4395,-2.4485,-2.4485,-2.4485,-2.5053,-2.6153,-2.8008,-2.8771,-2.9172,-2.9172,-2.9292,-2.9382,-2.9382,-2.9517,-2.9606,-2.9606,-2.9532,-2.9217,-2.8517,-2.8487,-2.8229,-2.7615,-2.76,-2.7959,-2.8697,-2.9966,-3.1016,-3.1846,-3.3704,-3.464,-3.4736,-3.5339,-3.56,-3.56,-3.56,-3.56,-3.56,-3.56,-3.565,-3.5853,-3.7246,-3.7889,-3.8176,-3.9503,-4.0028,-4.0096,-4.0096,-4.0096,-4.0096,-4.0096,-4.0096,-4.0096,-4.0096,-4.0096,-4.0096,-4.0096,-4.0096,-4.0096,-4.0096,-4.0096,-4.0299,-4.1018,-4.1762,-4.2489,-4.3223,-4.4028,-4.4615,-4.4615,-4.4615,-4.4615,-4.4615,-4.4615,-4.435,-4.3656,-4.413,-4.4333,-4.3639,-4.4147,-4.4344,-4.3623,-4.4164,-4.4299,-4.3578,-4.4181,-4.4615,-4.4615,-4.3328,-4.2506,-4.2422,-4.1094,-4.0316,-4.0231,-4.0146,-4.0096,-4.0096,-4.0096,-4.0096,-4.0096,-4.0096,-4.0096,0.0,0.0,0.0,0.0,0.0,0.0,-2.5211,-2.5211,-2.5083,-2.4679,-2.45,-2.4276,-2.3879,-2.3804,-2.3804,-2.3804,-2.435,-2.5113,-2.6063,-2.6303,-2.6378,-2.6378,-2.732,-2.7989,-2.7989,-2.8978,-2.9606,-2.9606,-2.9086,-2.8487,-2.7839,-2.7809,-2.7735,-2.76,-2.76,-2.8184,-2.9397,-3.0196,-3.1491,-3.321,-3.4154,-3.4894,-3.5407,-3.5538,-3.56,-3.56,-3.56,-3.56,-3.56,-3.56,-3.5994,-3.6609,-3.6914,-3.7736,-3.8819,-3.9106,-3.9605,-4.0096,-4.0096,-4.0096,-4.0096,-4.0096,-4.0096,-4.0096,-4.0096,-4.0096,-4.0096,-4.0096,-4.0096,-4.0096,-4.0096,-4.0096,-4.0299,-4.1018,-4.1762,-4.2489,-4.3223,-4.4028,-4.4615,-4.4615,-4.4615,-4.4615,-4.4615,-4.4615,-4.4564,-4.4395,-4.4513,-4.4547,-4.4395,-4.4513,-4.4547,-4.4395,-4.4513,-4.4547,-4.4395,-4.4513,-4.4615,-4.4615,-4.4327,-4.3842,-4.3189,-4.2337,-4.1576,-4.1001,-4.0417,-4.0096,-4.0096,-4.0096,-4.0096,-4.0096,-4.0096,-4.0096,0.0,0.0,0.0,-2.6183,0.0,0.0,0.0,-2.5615,-2.551,-2.5158,-2.456,-2.4014,-2.367,-2.334,-2.3152,-2.3152,-2.3684,-2.4216,-2.4567,-2.5181,-2.5615,-2.5615,-2.6183,-2.6587,-2.6587,-2.75,-2.8244,-2.8588,-2.8304,-2.7959,-2.7615,-2.76,-2.76,-2.76,-2.7929,-2.8438,-2.9086,-3.0046,-3.1246,-3.2599,-3.3625,-3.4431,-3.5098,-3.5447,-3.56,-3.56,-3.56,-3.56,-3.56,-3.56,-3.6299,-3.7347,-3.7347,-3.8024,-3.9039,-3.9394,-3.9791,-4.0096,-4.0096,-4.0096,-4.0096,-4.0096,-4.0096,-4.0096,-4.0096,-4.0096,-4.0096,-4.0096,-4.0096,-4.0096,-4.0096,-4.0096,-4.0299,-4.1018,-4.1762,-4.2489,-4.3223,-4.4028,-4.4615,-4.4615,-4.4615,-4.4615,-4.4615,-4.4615,-4.4479,-4.4062,-4.4333,-4.4479,-4.4045,-4.4333,-4.4615,-4.4615,-4.4615,-4.4615,-4.4615,-4.4615,-4.4615,-4.4615,-4.4215,-4.3826,-4.3409,-4.2692,-4.1948,-4.1221,-4.0832,-4.0485,-4.0096,-4.0096,-4.0096,-4.0096,-4.0096,-4.0096,0.0,0.0,0.0,0.0,0.0,-2.6153,0.0,0.0,0.0,-2.5824,0.0,0.0,0.0,0.0,0.0,0.0,0.0,0.0,0.0,-2.4537,0.0,-2.5211,-2.5322,-2.5397,-2.5397,-2.6123,-2.6811,-2.736,-2.7525,-2.76,-2.76,-2.76,-2.76,-2.76,-2.8248,-2.8667,-2.8786,-2.9939,-3.094,-3.1807,-3.3018,-3.3962,-3.4624,-3.5276,-3.56,-3.56,-3.56,-3.56,-3.56,-3.56,-3.6495,-3.7905,-3.7905,-3.8447,-3.9276,-3.9893,-4.0096,-4.0096,-4.0096,-4.0096,-4.0096,-4.0096,-4.0096,-4.0096,-4.0096,-4.0096,-4.0096,-4.0096,-4.0096,-4.013,-4.0282,-4.0316,-4.0468,-4.1068,-4.1762,-4.2422,-4.2895,-4.3707,-4.4378,-4.4378,-4.4496,-4.4615,-4.4615,-4.4615,-4.4395,-4.3741,-4.4181,-4.4378,-4.3724,-4.4198,-4.4615,-4.4615,-4.4615,-4.4615,-4.4615,-4.4615,-4.4615,-4.4615,-4.3995,-4.3639,-4.3639,-4.2777,-4.1948,-4.1221,-4.1204,-4.0832,-4.0096,-4.0248,-4.0248,-4.0096,-4.0096,-4.0096,0.0,0.0,0.0,0.0,-2.7874,0.0,0.0,0.0,-2.721,-2.6602,0.0,0.0,0.0,0.0,0.0,0.0,0.0,0.0,-2.3684,-2.3729,-2.3834,-2.3834,-2.435,-2.4709,-2.4709,-2.5869,-2.6617,-2.6692,-2.727,-2.76,-2.76,-2.76,-2.76,-2.76,-2.8248,-2.8891,-2.9487,-3.0163,-3.1182,-3.2505,-3.3255,-3.3962,-3.4624,-3.5276,-3.56,-3.56,-3.56,-3.56,-3.56,-3.56,-3.6495,-3.7905,-3.7905,-3.8751,-3.9994,-4.0079,-4.0096,-4.0096,-4.0096,-4.0096,-4.0096,-4.0096,-4.0096,-4.0096,-4.0096,-4.0096,-4.0096,-4.0096,-4.0096,-4.0265,-4.0899,-4.1085,-4.1102,-4.1187,-4.1762,-4.2134,-4.1576,-4.2557,-4.3527,-4.3527,-4.4113,-4.4615,-4.4615,-4.4615,-4.4581,-4.4496,-4.4547,-4.4581,-4.4496,-4.4547,-4.4615,-4.4615,-4.4615,-4.4615,-4.4615,-4.4615,-4.4615,-4.4615,-4.4513,-4.4479,-4.4479,-4.3064,-4.1948,-4.1221,-4.1204,-4.0832,-4.0096,-4.0747,-4.073,-4.0096,-4.0096,-4.0096,0.0,0.0,0.0,0.0,0.0,0.0,-2.766,0.0,-2.7525,0.0,0.0,0.0,0.0,0.0,0.0,0.0,-2.5173,0.0,0.0,0.0,-2.4477,0.0,0.0,0.0,-2.4575,-2.5457,-2.6019,-2.6019,-2.7001,-2.742,-2.7046,-2.739,-2.76,-2.76,-2.8633,-2.9337,-2.9606,-3.0597,-3.1578,-3.2629,-3.3287,-3.3962,-3.46,-3.4894,-3.523,-3.5577,-3.5184,-3.523,-3.5633,-3.6096,-3.6924,-3.7939,-3.8379,-3.9174,-4.0096,-4.0096,-4.0096,-4.0096,-4.0096,-4.0096,-4.0096,-4.0096,-4.0096,-4.0096,-4.0096,-4.0096,-4.0096,-4.0096,-4.0417,-4.0798,-4.1119,-4.1204,-4.1204,-4.1204,-4.1441,-4.1576,-4.1271,-4.2371,-4.3392,-4.3392,-4.4045,-4.4615,-4.4615,-4.4615,-4.4615,-4.4615,-4.4615,-4.4615,-4.4615,-4.4615,-4.4615,-4.4615,-4.4615,-4.4615,-4.4615,-4.4615,-4.4615,-4.4615,-4.4615,-4.4615,-4.4615,-4.3988,-4.3267,-4.2506,-4.2489,-4.2117,-4.1382,-4.1255,-4.1255,-4.1365,-4.0502,-4.0096,-2.7824,0.0,0.0,0.0,0.0,0.0,0.0,0.0,0.0,0.0,0.0,0.0,0.0,0.0,0.0,0.0,0.0,-2.5809,0.0,-2.5615,0.0,0.0,0.0,0.0,0.0,-2.4933,-2.5322,-2.5322,-2.6581,-2.7121,-2.6641,-2.724,-2.769,-2.7869,-2.9007,-2.9696,-2.9834,-3.0943,-3.1768,-3.2299,-3.3013,-3.3582,-3.4062,-3.4431,-3.4871,-3.5316,-3.5005,-3.5144,-3.5633,-3.6036,-3.675,-3.7645,-3.8192,-3.8983,-3.9825,-4.0028,-4.0096,-4.0096,-4.0096,-4.0096,-4.0096,-4.0096,-4.0096,-4.0096,-4.0096,-4.0096,-4.0096,-4.0096,-4.0476,-4.0984,-4.1407,-4.1356,-4.1305,-4.1711,-4.166,-4.1508,-4.1508,-4.2354,-4.3139,-4.3358,-4.3876,-4.4333,-4.4564,-4.4615,-4.4615,-4.4615,-4.4615,-4.4615,-4.4615,-4.4615,-4.4615,-4.4615,-4.4615,-4.4615,-4.4615,-4.4615,-4.4615,-4.4615,-4.4615,-4.4615,-4.4615,-4.4395,-4.3995,-4.3409,-4.3392,-4.3047,-4.2286,-4.1982,-4.1982,-4.2252,-4.0984,-4.0519,0.0,0.0,0.0,-2.8727,0.0,0.0,0.0,0.0,-2.8382,0.0,0.0,0.0,0.0,0.0,0.0,0.0,0.0,0.0,0.0,0.0,0.0,0.0,0.0,0.0,0.0,-2.4231,-2.4634,-2.4634,-2.5869,-2.6617,-2.6587,-2.724,-2.7899,-2.8547,-2.922,-2.9864,-3.0477,-3.1152,-3.1496,-3.1524,-3.2272,-3.2641,-3.2722,-3.4012,-3.46,-3.4664,-3.5293,-3.5577,-3.5538,-3.4911,-3.5535,-3.6827,-3.6846,-3.7761,-3.9106,-3.9842,-4.0096,-4.0096,-4.0096,-4.0096,-4.0096,-4.0096,-4.0096,-4.0096,-4.0096,-4.0096,-4.0096,-4.0096,-4.013,-4.0468,-4.188,-4.1728,-4.1559,-4.2987,-4.2777,-4.2252,-4.2252,-4.2286,-4.254,-4.324,-4.3409,-4.369,-4.4479,-4.4615,-4.4615,-4.4615,-4.4615,-4.4615,-4.4615,-4.4615,-4.4615,-4.4615,-4.4615,-4.4615,-4.4615,-4.4615,-4.4615,-4.4615,-4.4615,-4.4615,-4.4615,-4.3859,-4.3426,-4.3392,-4.3392,-4.3047,-4.2286,-4.2997,-4.298,-4.2269,-4.1525,-4.1542,0.0,0.0,-2.8981,-2.9205,0.0,0.0,0.0,0.0,0.0,0.0,0.0,0.0,0.0,0.0,0.0,0.0,0.0,0.0,0.0,0.0,0.0,0.0,0.0,0.0,0.0,0.0,-2.4605,-2.4605,-2.5839,-2.6408,-2.5959,-2.7001,-2.7914,-2.8577,-2.9235,-2.9879,-3.0492,-3.1152,-3.1511,-3.1511,-3.2244,-3.2841,-3.3287,-3.3735,-3.4423,-3.5253,-3.5012,-3.5207,-3.5588,-3.5402,-3.6211,-3.7537,-3.7577,-3.8479,-3.9757,-4.0011,-4.0096,-4.0096,-4.0096,-4.0096,-4.0096,-4.0096,-4.0096,-4.0096,-4.0096,-4.0096,-4.0096,-4.0096,-4.0468,-4.1052,-4.2033,-4.21,-4.2185,-4.3156,-4.2844,-4.2286,-4.2286,-4.2675,-4.3115,-4.3341,-4.3826,-4.4265,-4.4564,-4.4615,-4.4615,-4.4615,-4.4615,-4.4615,-4.4615,-4.4615,-4.4615,-4.4615,-4.4615,-4.4615,-4.4615,-4.4615,-4.4615,-4.4615,-4.4615,-4.4615,-4.4615,-4.4333,-4.4181,-4.4181,-4.4181,-4.4062,-4.3836,-4.3538,-4.3555,-4.3819,-4.3031,-4.254,-2.8979,-2.928,0.0,-2.9804,-2.9594,0.0,-2.8697,0.0,0.0,0.0,0.0,0.0,0.0,0.0,0.0,0.0,0.0,0.0,0.0,-2.7225,0.0,0.0,0.0,0.0,0.0,0.0,-2.4948,-2.4948,-2.5974,-2.6408,0.0,-2.7001,-2.7914,-2.8577,-2.9235,-2.9879,-3.0492,-3.1152,-3.1511,-3.1511,-3.2244,-3.268,-3.2864,-3.3375,-3.4078,-3.4847,-3.4431,-3.4616,-3.5218,-3.5029,-3.582,-3.7157,-3.7442,-3.8462,-3.974,-4.0011,-4.0096,-4.0096,-4.0096,-4.0096,-4.0096,-4.0096,-4.0096,-4.0096,-4.0096,-4.0096,-4.0096,-4.0096,-4.0426,-4.0984,-4.1711,-4.1694,-4.1762,-4.2777,-4.2642,-4.2371,-4.2625,-4.3064,-4.3477,-4.3775,-4.4012,-4.4248,-4.4564,-4.4615,-4.4615,-4.4615,-4.4615,-4.4615,-4.4615,-4.4615,-4.4615,-4.4615,-4.4615,-4.4615,-4.4615,-4.4615,-4.4615,-4.4615,-4.4615,-4.4615,-4.4615,-4.4615,-4.4852,-4.5376,-4.4886,-4.4869,-4.5393,-4.4333,-4.4079,-4.4598,-4.4062,-4.3572]},{"header":{"parameterUnit":"m.s-1","parameterCategory":1,"la1":30.6,"la2":29.2853,"lo1":-89.7004,"lo2":-87.6739,"dy":0.0162,"dx":0.0183,"nx":112,"ny":82,"refTime":"2023-03-22T06:00:00:Z","depth":0,"parameterNumber":3,"parameterNumberName":"V-component_of_WINDS"},"data":[0.0,0.0,0.0,0.0,0.0,0.0,0.0,0.0,0.0,0.0,0.0,0.0,0.0,0.0,0.0,0.0,0.0,0.0,0.0,0.0,0.0,0.0,0.0,0.0,0.0,0.0,0.0,0.0,0.0,0.0,0.0,0.0,0.0,0.0,0.0,0.0,0.0,0.0,0.0,0.0,0.0,0.0,0.0,0.0,0.0,0.0,0.0,0.0,0.0,0.0,0.0,0.0,0.0,0.0,0.0,0.0,0.0,0.0,0.0,0.0,0.0,0.0,0.0,0.0,0.0,0.0,0.0,0.0,0.0,0.0,0.0,0.0,0.0,0.0,0.0,0.0,0.0,0.0,0.0,0.0,0.0,0.0,0.0,0.0,0.0,0.0,0.0,0.0,0.0,0.0,0.9709,1.2158,1.4783,1.6233,1.5856,1.5613,1.5563,1.5806,0.0,0.0,0.0,0.0,0.0,0.0,0.0,0.0,0.0,0.0,0.0,0.0,0.0,0.0,0.0,0.0,0.0,0.0,0.0,0.0,0.0,0.0,0.0,0.0,0.0,0.0,0.0,0.0,0.0,0.0,0.0,0.0,0.0,0.0,0.0,0.0,0.0,0.0,0.0,0.0,0.0,0.0,0.0,0.0,0.0,0.0,0.0,0.0,0.0,0.0,0.0,0.0,0.0,0.0,0.0,0.0,0.0,0.0,0.0,0.0,0.0,0.0,0.0,0.0,0.0,0.0,0.0,0.0,0.0,0.0,0.0,0.0,0.0,0.0,0.0,0.0,0.0,0.0,0.0,0.0,0.0,0.0,0.0,0.0,0.0,0.0,0.0,0.0,0.0,0.0,0.0,0.0,0.0,0.0,0.0,0.0,0.0,0.0,0.0,0.0,0.0,0.0,0.0,0.0,1.1359,1.3556,1.5014,1.5969,1.6337,1.5123,1.4941,1.6287,0.0,0.0,0.0,0.0,0.0,0.0,0.0,0.0,0.0,0.0,0.0,0.0,0.0,0.0,0.0,0.0,0.0,0.0,0.0,0.0,0.0,0.0,0.0,0.0,0.0,0.0,0.0,0.0,0.0,0.0,0.0,0.0,0.0,0.0,0.0,0.0,0.0,0.0,0.0,0.0,0.0,0.0,0.0,0.0,0.0,0.0,0.0,0.0,0.0,0.0,0.0,0.0,0.0,0.0,0.0,0.0,0.0,0.0,0.0,0.0,0.0,0.0,0.0,0.0,0.0,0.0,0.0,0.0,0.0,0.0,0.0,0.0,0.0,0.0,0.0,0.0,0.0,0.0,0.0,0.0,0.0,0.0,0.0,0.0,0.0,0.0,0.0,0.0,0.0,0.0,0.0,0.0,0.0,0.0,0.0,0.0,0.0,0.0,0.0,0.0,0.0,0.0,0.0,1.0703,1.2058,1.3508,1.4629,1.5374,1.5605,1.4387,1.4312,1.5969,1.4751,0.0,0.0,0.0,0.0,0.0,0.0,0.0,0.0,0.0,0.0,0.0,0.0,0.0,0.0,0.0,0.0,0.0,0.0,0.0,0.0,0.0,0.0,0.0,0.0,0.0,0.0,0.0,0.0,0.0,0.0,0.0,0.0,0.0,0.0,0.0,0.0,0.0,0.0,0.0,0.0,0.0,0.0,0.0,0.0,0.0,0.0,0.0,0.0,0.0,0.0,0.0,0.0,0.0,0.0,0.0,0.0,0.0,0.0,0.0,0.0,0.0,0.0,0.0,0.0,0.0,0.0,0.0,0.0,0.0,0.0,0.0,0.0,0.0,0.0,0.0,0.0,0.0,0.0,0.0,0.0,0.0,0.0,0.0,0.0,0.0,0.0,0.0,0.0,0.0,0.0,0.0,0.0,0.0,0.0,0.0,0.0,0.0,0.0,0.0,0.0,0.0,0.0,1.1281,1.2147,1.3355,1.4224,1.4765,1.4884,1.3747,1.3779,1.558,1.413,0.0,0.0,0.0,0.0,0.0,0.0,0.0,0.0,0.0,0.0,0.0,0.0,0.0,0.0,0.0,0.0,0.0,0.0,0.0,0.0,0.0,0.0,0.0,0.0,0.0,0.0,0.0,0.0,0.0,0.0,0.0,0.0,0.0,0.0,0.0,0.0,0.0,0.0,0.0,0.0,0.0,0.0,0.0,0.0,0.0,0.0,0.0,0.0,0.0,0.0,0.0,0.0,0.0,0.0,0.0,0.0,0.0,0.0,0.0,0.0,0.0,0.0,0.0,0.0,0.0,0.0,0.0,0.0,0.0,0.0,0.0,0.0,0.0,0.0,0.0,0.0,0.0,0.0,0.0,0.0,0.0,0.0,0.0,0.0,0.0,0.0,0.0,0.0,0.0,0.0,0.0,0.0,0.0,0.0,0.0,0.0,0.0,0.0,0.0,0.0,0.0,0.0,1.1169,1.1633,1.381,1.4104,1.4349,1.4865,1.3396,1.3378,1.5555,1.413,0.0,0.0,0.0,0.0,0.0,0.0,0.0,0.0,0.0,0.0,0.0,0.0,0.0,0.0,0.0,0.0,0.0,0.0,0.0,0.0,0.0,0.0,0.0,0.0,0.0,0.0,0.0,0.0,0.0,0.0,0.0,0.0,0.0,0.0,0.0,0.0,0.0,0.0,0.0,0.0,0.0,0.0,0.0,0.0,0.0,0.0,0.0,0.0,0.0,0.0,0.0,0.0,0.0,0.0,0.0,0.0,0.0,0.0,0.0,0.0,0.0,0.0,0.0,0.0,0.0,0.0,0.0,0.0,0.0,0.0,0.0,0.0,0.0,0.0,0.0,0.0,0.0,0.0,0.0,0.0,0.0,0.0,0.0,0.0,0.0,0.0,0.0,0.0,0.0,0.0,0.0,0.0,0.0,0.0,0.0,0.0,0.0,0.0,0.0,0.0,0.0,0.0,1.1924,1.2212,1.3408,1.3546,1.3483,1.3345,1.2454,1.2709,1.4588,0.0,0.0,0.0,0.0,0.0,0.0,0.0,0.0,0.0,0.0,0.0,0.0,0.0,0.0,0.0,0.0,0.0,0.0,0.0,0.0,0.0,0.0,0.0,0.0,0.0,0.0,0.0,0.0,0.0,0.0,0.0,0.0,0.0,0.0,0.0,0.0,0.0,0.0,0.0,0.0,0.0,0.0,0.0,0.0,0.0,0.0,0.0,0.0,0.0,0.0,0.0,0.0,0.0,0.0,0.0,0.0,0.0,0.0,0.0,0.0,0.0,0.0,0.0,0.0,0.0,0.0,0.0,0.0,0.0,0.0,0.0,0.0,0.0,0.0,0.0,0.0,0.0,0.0,0.0,0.0,0.0,0.0,0.0,0.0,0.0,0.0,0.0,0.0,0.0,0.0,0.0,0.0,0.0,0.0,0.0,0.0,0.0,0.0,0.0,0.0,0.0,0.0,1.2586,1.2361,1.235,1.2902,1.3036,1.2879,1.232,1.2064,1.2675,1.437,0.0,0.0,0.0,0.0,0.0,0.0,0.0,0.0,0.0,0.0,0.0,0.0,0.0,0.0,0.0,0.0,0.0,0.0,0.0,0.0,0.0,0.0,0.0,0.0,0.0,0.0,0.0,0.0,0.0,0.0,0.0,0.0,0.0,0.0,0.0,0.0,0.0,0.0,0.0,0.0,0.0,0.0,0.0,0.0,0.0,0.0,0.0,0.0,0.0,0.0,0.0,0.0,0.0,0.0,0.0,0.0,0.0,0.0,0.0,0.0,0.0,0.0,0.0,0.0,0.0,0.0,0.0,0.0,0.0,0.0,0.0,0.0,0.0,0.0,0.0,0.0,0.0,0.0,0.0,0.0,0.0,0.0,0.0,0.0,0.0,0.0,0.0,0.0,0.0,0.0,0.0,0.0,0.0,0.0,0.0,0.0,0.0,0.0,0.0,0.0,0.0,0.0,1.3169,1.2295,1.1789,1.2325,1.2695,1.2653,1.2038,1.2427,1.3436,0.0,0.0,0.0,0.0,0.0,0.0,0.0,0.0,0.0,0.0,0.0,0.0,0.0,0.0,0.0,0.0,0.0,0.0,0.0,0.0,0.0,0.0,0.0,0.0,0.0,0.0,0.0,0.0,0.0,0.0,0.0,0.0,0.0,0.0,0.0,0.0,0.0,0.0,0.0,0.0,0.0,0.0,0.0,0.0,0.0,0.0,0.0,0.0,0.0,0.0,0.0,0.0,0.0,0.0,0.0,0.0,0.0,0.0,0.0,0.0,0.0,0.0,0.0,0.0,0.0,0.0,0.0,0.0,0.0,0.0,0.0,0.0,0.0,0.0,0.0,0.0,0.0,0.0,0.0,0.0,0.0,0.0,0.0,0.0,0.0,0.0,0.0,0.0,0.0,0.0,0.0,0.0,0.0,0.0,0.0,0.0,0.0,0.0,0.0,0.0,0.0,0.0,0.0,1.3061,1.2262,1.1666,1.1829,1.226,1.225,1.1502,1.2002,1.3022,1.4633,0.0,0.0,0.0,0.0,0.0,0.0,0.0,0.0,0.0,0.0,0.0,0.0,0.0,0.0,0.0,0.0,0.0,0.0,0.0,0.0,0.0,0.0,0.0,0.0,0.0,0.0,0.0,0.0,0.0,0.0,0.0,0.0,0.0,0.0,0.0,0.0,0.0,0.0,0.0,0.0,0.0,0.0,0.0,0.0,0.0,0.0,0.0,0.0,0.0,0.0,0.0,0.0,0.0,0.0,0.0,0.0,0.0,0.0,0.0,0.0,0.0,0.0,0.0,0.0,0.0,0.0,0.0,0.0,0.0,0.0,0.0,0.0,0.0,0.0,0.0,0.0,0.0,0.0,0.0,0.0,0.0,0.0,0.0,0.0,0.0,0.0,0.0,0.0,0.0,0.0,0.0,0.0,0.0,0.0,0.0,0.0,0.0,0.0,0.0,0.0,0.0,0.0,1.3724,1.2531,1.1691,1.1889,1.2111,1.2124,1.1817,1.232,1.3318,1.4912,0.0,0.0,0.0,0.0,0.0,0.0,0.0,0.0,0.0,0.0,0.0,0.0,0.0,0.0,0.0,0.0,0.0,0.0,0.0,0.0,0.0,0.0,0.0,0.0,0.0,0.0,0.0,0.0,0.0,0.0,0.0,0.0,0.0,0.0,0.0,0.0,0.0,0.0,0.0,0.0,0.0,0.0,0.0,0.0,0.0,0.0,0.0,0.0,0.0,0.0,0.0,0.0,0.0,0.0,0.0,0.0,0.0,0.0,0.0,0.0,0.0,0.0,0.0,0.0,0.0,0.0,0.0,0.0,0.0,0.0,0.0,0.0,0.0,0.0,0.0,0.0,0.0,0.0,0.0,0.0,0.0,0.0,0.0,0.0,0.0,0.0,0.0,0.0,0.0,0.0,0.0,0.0,0.0,0.0,0.0,0.0,0.0,0.0,0.0,0.0,0.0,0.0,1.4683,1.2973,1.1839,1.2291,1.2111,1.213,1.2526,1.2907,1.3829,1.5504,0.0,0.0,0.0,0.0,0.0,0.0,0.0,0.0,0.0,0.0,0.0,0.0,0.0,0.0,0.0,0.0,0.0,0.0,0.0,0.0,0.0,0.0,0.0,0.0,0.0,0.0,0.0,0.0,0.0,0.0,0.0,0.0,0.0,0.0,0.0,0.0,0.0,0.0,0.0,0.0,0.0,0.0,0.0,0.0,0.0,0.0,0.0,0.0,0.0,0.0,0.0,0.0,0.0,0.0,0.0,0.0,0.0,0.0,0.0,0.0,1.6283,1.65,0.0,0.0,0.0,0.0,0.0,0.0,0.0,0.0,0.0,0.0,0.0,0.0,0.0,0.0,0.0,0.0,0.0,0.0,0.0,0.0,0.0,0.0,0.0,0.0,0.0,0.0,0.0,0.0,0.0,0.0,0.0,0.0,0.0,0.0,0.0,0.0,0.0,0.0,0.0,0.0,1.4236,1.3074,1.2115,1.1789,1.1726,1.1638,1.1521,1.1696,1.2485,1.4039,1.3849,0.0,0.0,0.0,0.0,0.0,0.0,0.0,0.0,0.0,0.0,0.0,0.0,0.0,0.0,0.0,0.0,0.0,0.0,0.0,0.0,0.0,0.0,0.0,0.0,0.0,0.0,0.0,0.0,0.0,0.0,0.0,0.0,0.0,0.0,0.0,0.0,0.0,0.0,0.0,0.0,0.0,0.0,0.0,0.0,0.0,0.0,0.0,0.0,0.0,0.0,0.0,0.0,0.0,0.0,0.0,0.0,0.0,0.0,0.0,1.6458,1.65,0.0,0.0,0.0,0.0,0.0,0.0,0.0,0.0,0.0,0.0,0.0,0.0,0.0,0.0,0.0,0.0,0.0,0.0,0.0,0.0,0.0,0.0,0.0,0.0,0.0,0.0,0.0,0.0,0.0,0.0,0.0,0.0,0.0,0.0,0.0,0.0,0.0,0.0,0.0,0.0,1.445,1.3257,1.2388,1.2363,1.214,1.2122,1.2479,1.2303,1.2721,1.4007,1.3662,0.0,0.0,0.0,0.0,0.0,0.0,0.0,0.0,0.0,0.0,0.0,0.0,0.0,0.0,0.0,0.0,0.0,0.0,0.0,0.0,0.0,0.0,0.0,0.0,0.0,0.0,0.0,0.0,0.0,0.0,0.0,0.0,0.0,0.0,0.0,0.0,0.0,0.0,0.0,0.0,0.0,0.0,0.0,0.0,0.0,0.0,0.0,0.0,0.0,0.0,0.0,0.0,0.0,1.5481,1.5959,1.61,1.7032,1.7361,1.7123,1.6838,1.6682,1.6672,1.6672,0.0,0.0,0.0,0.0,0.0,0.0,0.0,0.0,0.0,0.0,0.0,0.0,0.0,0.0,0.0,0.0,0.0,0.0,0.0,0.0,0.0,0.0,0.0,0.0,1.65,1.65,1.65,0.0,0.0,0.0,0.0,0.0,0.0,0.0,0.0,0.0,0.0,0.0,1.4833,1.3509,1.2714,1.3148,1.2726,1.2739,1.3569,1.3106,1.3154,1.4088,1.373,1.3575,0.0,0.0,0.0,0.0,0.0,0.0,0.0,0.0,0.0,0.0,0.0,0.0,0.0,0.0,0.0,0.0,0.0,0.0,0.0,0.0,0.0,0.0,0.0,0.0,0.0,0.0,0.0,0.0,0.0,0.0,0.0,0.0,1.3041,1.3128,0.0,0.0,0.0,0.0,0.0,0.0,0.0,0.0,0.0,0.0,0.0,0.0,0.0,1.3779,1.4549,1.4631,1.4875,1.5261,1.5406,1.5778,1.6343,1.649,1.6832,1.7289,1.7459,0.0,1.7285,1.7285,0.0,0.0,0.0,0.0,0.0,0.0,0.0,0.0,0.0,0.0,0.0,0.0,0.0,0.0,0.0,0.0,0.0,0.0,0.0,0.0,0.0,0.0,1.65,1.65,1.65,1.65,0.0,1.65,1.65,1.65,1.65,0.0,0.0,0.0,0.0,0.0,0.0,0.0,1.4884,1.3848,1.3123,1.3185,1.2726,1.2458,1.2585,1.2095,1.2038,1.2628,1.219,1.2323,1.3251,1.2784,0.0,0.0,0.0,0.0,0.0,0.0,0.0,0.0,0.0,0.0,0.0,0.0,0.0,0.0,0.0,0.0,0.0,0.0,0.0,0.0,0.0,0.0,0.0,0.0,0.0,0.0,0.0,0.0,0.0,1.3838,1.3805,1.3291,1.3997,1.4194,0.0,0.0,0.0,0.0,0.0,0.0,0.0,0.0,0.0,1.457,1.4814,1.5146,1.5527,1.5752,1.6094,1.6523,1.6758,1.6906,1.6989,1.7626,1.8071,1.8336,1.8858,1.8982,1.8668,1.7775,1.7237,1.6974,0.0,0.0,0.0,0.0,1.65,1.6538,1.6886,1.6763,1.6588,1.7187,0.0,0.0,0.0,0.0,0.0,0.0,0.0,1.65,0.0,0.0,1.6999,1.6999,1.6999,1.6999,1.6999,1.6748,1.65,0.0,1.65,1.65,1.65,0.0,0.0,0.0,0.0,1.5349,1.5349,1.4651,1.4036,1.374,1.3488,1.3224,1.2889,1.2638,1.2601,1.2839,1.2354,1.2404,1.3173,1.2689,1.2651,0.0,0.0,0.0,0.0,0.0,0.0,0.0,0.0,0.0,0.0,0.0,0.0,0.0,0.0,0.0,0.0,0.0,0.0,0.0,0.0,0.0,0.0,0.0,0.0,0.0,0.0,0.0,0.0,1.4473,1.4629,1.3769,1.4656,1.4783,0.0,0.0,0.0,0.0,0.0,0.0,1.5264,1.5576,1.5801,1.5908,1.6261,1.6535,1.675,1.7051,1.7432,1.7871,1.8184,1.8115,1.7748,1.8607,1.8928,1.887,1.9707,1.9949,1.969,1.8498,1.784,1.7551,1.7124,1.6926,1.6926,1.6926,1.6926,1.7011,1.7438,1.7313,1.7014,1.7614,1.7513,1.7114,1.6964,0.0,0.0,0.0,0.0,1.6926,1.6926,1.7275,1.7589,1.7589,1.7589,1.7589,1.7589,1.725,1.6839,0.0,1.65,1.65,1.65,0.0,0.0,0.0,0.0,1.5693,1.5693,1.511,1.4538,1.4141,1.3959,1.369,1.3235,1.3198,1.3198,1.3198,1.2839,1.2789,1.3185,1.2826,1.2801,1.3185,0.0,0.0,0.0,0.0,0.0,0.0,0.0,0.0,0.0,0.0,0.0,0.0,0.0,0.0,0.0,0.0,0.0,0.0,0.0,0.0,0.0,0.0,0.0,0.0,0.0,0.0,0.0,0.0,0.0,1.4172,1.5234,0.0,0.0,0.0,0.0,1.5312,1.5752,1.6193,1.658,1.6619,1.6824,1.7275,1.7337,1.7705,1.8461,1.849,1.8724,1.9189,1.9209,1.8994,1.8539,1.8594,1.8429,1.8113,1.9253,1.9731,1.9685,1.9685,1.9083,1.8166,1.8129,1.8116,1.8116,1.8116,1.8116,1.8129,1.8154,1.8141,1.8204,1.8744,1.8907,1.8782,1.8279,1.8116,0.0,0.0,1.8116,1.8116,1.8116,1.8141,1.8166,1.8166,1.8166,1.8166,1.8166,1.8141,1.7802,0.0,1.65,1.65,1.65,0.0,1.65,1.65,1.6045,1.5693,1.5693,1.479,1.4141,1.4103,1.3584,1.3223,1.3198,1.3198,1.3198,1.3198,1.3173,1.3173,1.3198,1.3173,1.3173,1.3198,1.3223,0.0,0.0,0.0,0.0,0.0,0.0,0.0,0.0,0.0,0.0,0.0,0.0,0.0,0.0,0.0,0.0,0.0,0.0,0.0,0.0,0.0,0.0,0.0,0.0,0.0,0.0,0.0,0.0,1.626,1.7363,0.0,1.6348,1.6504,1.6787,1.7061,1.748,1.8037,1.8705,1.9043,1.9268,1.946,1.947,1.9607,1.9873,1.9873,1.9961,2.0155,2.0155,1.9883,1.9416,1.918,1.9118,1.9243,1.9987,2.0381,2.0589,2.1178,2.0552,1.9196,1.8845,1.8494,1.8242,1.8581,1.8505,1.8254,1.8606,1.8707,1.8795,1.9334,1.9271,1.897,1.877,1.8456,1.8204,1.8204,1.8204,1.8204,1.8204,1.8468,1.8707,1.8707,1.8707,1.8707,1.8707,1.8455,1.8091,1.7677,1.7325,1.6961,1.6563,1.65,1.65,1.65,1.6337,1.6199,1.6199,1.5567,1.4997,1.4651,1.4104,1.3609,1.3223,1.3198,1.3198,1.3198,1.3198,1.3198,1.3198,1.3198,1.3198,1.3198,1.3917,1.4287,0.0,0.0,0.0,0.0,0.0,0.0,0.0,0.0,0.0,0.0,0.0,0.0,0.0,0.0,0.0,0.0,0.0,0.0,0.0,0.0,0.0,0.0,0.0,0.0,0.0,0.0,1.8027,1.8027,1.916,1.9443,1.8154,1.8326,1.8574,1.8857,1.9231,1.9787,2.0537,2.085,2.1055,2.1055,2.0909,2.0791,2.0791,2.0683,2.0605,2.0605,2.0605,2.0332,1.9902,1.9619,1.9495,1.9524,2.0412,2.0833,2.0953,2.1891,2.1656,2.0577,1.9861,1.9359,1.9083,1.9447,1.9459,1.9359,1.9723,1.9835,1.9911,2.0263,2.0137,1.9835,1.9835,1.961,1.9271,1.9083,1.9032,1.8995,1.8794,1.8983,1.9259,1.9259,1.9259,1.9259,1.9259,1.8995,1.8694,1.8518,1.789,1.7262,1.6873,1.6626,1.6563,1.6773,1.6635,1.6563,1.6785,1.6158,1.548,1.4947,1.4412,1.3871,1.3248,1.3391,1.3416,1.321,1.3391,1.3509,1.3509,1.3509,1.3596,1.3767,1.4626,1.5012,1.4863,0.0,0.0,0.0,0.0,0.0,0.0,0.0,0.0,0.0,0.0,0.0,0.0,0.0,0.0,0.0,0.0,0.0,0.0,0.0,0.0,0.0,0.0,0.0,1.6716,1.8262,1.9336,1.9365,2.0508,2.0752,1.9512,2.0175,2.0664,2.0664,2.1025,2.1424,2.1904,2.1924,2.1924,2.1924,2.1504,2.1239,2.1239,2.082,2.0625,2.0625,2.0615,2.0342,1.9932,1.9922,1.9416,1.8723,2.0447,2.0962,2.0685,2.1842,2.2334,2.2209,2.1169,2.0729,2.0717,2.0729,2.1069,2.1493,2.1506,2.1506,2.1546,2.1531,2.1531,2.1506,2.1506,2.1506,2.1408,2.0867,2.0717,2.0591,1.9999,1.9849,1.9849,1.9849,1.9849,1.9849,1.9849,1.9849,1.9673,1.9146,1.8191,1.7448,1.7436,1.6936,1.6735,1.7322,1.6886,0.0,1.731,1.6384,1.5512,1.4972,1.4437,1.3896,1.3298,1.379,1.3871,1.3261,1.379,1.4116,1.4103,1.4116,1.4374,1.4909,1.5254,1.5233,1.4853,0.0,0.0,0.0,0.0,0.0,0.0,0.0,0.0,0.0,0.0,0.0,0.0,0.0,0.0,0.0,0.0,0.0,0.0,0.0,0.0,0.0,0.0,1.8447,1.8564,1.9521,2.0488,2.1094,2.2021,2.2311,2.1689,2.1846,2.1982,2.1982,2.209,2.2353,2.273,2.275,2.275,2.275,2.234,2.2116,2.2116,2.1426,2.1055,2.1045,2.0723,2.0537,2.0419,2.0059,1.9619,1.92,2.0597,2.0962,2.0707,2.2244,2.2644,2.2284,2.1983,2.1606,2.1333,2.1707,2.1707,2.1543,2.1945,2.2083,2.2146,2.2518,2.241,2.2083,2.2083,2.1807,2.1455,2.1333,2.1295,2.1257,2.1066,2.1029,2.1029,2.1029,2.1029,2.1029,2.1029,2.0742,2.0415,2.0264,1.9321,1.8455,1.8053,1.7513,1.72,1.7385,1.6886,0.0,1.6735,1.6132,1.563,1.55,1.4997,1.4607,1.4456,1.4582,1.445,1.3896,1.4374,1.4513,1.4116,1.4475,1.4921,1.5475,1.5567,1.5761,0.0,0.0,0.0,0.0,0.0,0.0,0.0,0.0,0.0,0.0,0.0,0.0,0.0,0.0,0.0,0.0,0.0,0.0,0.0,0.0,0.0,0.0,1.9053,2.0116,2.085,2.1075,2.1544,2.2559,2.2959,2.3003,2.275,2.273,2.273,2.273,2.273,2.2838,2.3081,2.3091,2.3091,2.3091,2.2734,2.2432,2.2246,2.1531,2.119,2.119,2.0967,2.084,2.084,2.0586,2.0137,1.9632,2.0917,2.1241,2.0968,2.2469,2.292,0.0,0.0,0.0,0.0,0.0,2.2447,2.2221,2.2518,2.2631,2.2681,2.2995,2.2895,2.2669,2.2949,2.2623,2.2184,2.2184,2.202,2.1782,2.1543,2.1493,2.1493,2.1493,2.1493,2.1493,2.1493,2.1081,2.0691,2.0691,1.9962,0.0,1.8932,1.8242,1.7727,1.7727,1.725,1.6886,1.6886,1.6384,1.5957,1.5718,1.5424,1.5148,1.4928,1.511,0.0,0.0,0.0,1.5097,1.479,1.5286,0.0,0.0,0.0,1.6195,1.65,0.0,0.0,0.0,1.3286,1.2905,0.0,0.0,0.0,0.0,0.0,0.0,0.0,0.0,0.0,0.0,0.0,0.0,0.0,0.0,0.0,0.0,2.0537,2.1486,2.3188,2.2676,2.2568,2.3662,2.3408,2.3091,2.3091,2.3091,2.3091,2.3091,2.3091,2.3091,2.3091,0.0,0.0,0.0,0.0,2.2402,2.2031,2.1602,2.1337,2.1337,2.1288,2.1268,2.1268,2.122,2.0732,2.0026,2.124,2.1529,2.1296,2.2497,2.3005,2.3058,2.2569,2.2397,2.246,2.292,2.3108,2.3108,2.3108,0.0,0.0,2.3108,2.3145,2.3296,2.3841,2.369,2.3283,2.3221,2.2844,2.2372,2.182,2.1681,2.1681,2.1681,2.1681,2.1681,2.1681,2.127,2.0855,2.0792,2.0314,1.9874,1.9811,1.8907,1.8204,1.8204,1.7689,1.731,1.731,1.6835,1.6333,1.5844,0.0,0.0,1.5123,1.5525,1.5555,1.5022,1.5449,1.5718,1.5781,1.6258,1.65,1.65,1.65,1.65,1.65,1.5886,1.5298,1.4675,1.3515,1.2978,0.0,0.0,0.0,0.0,0.0,0.0,0.0,0.0,0.0,0.0,0.0,0.0,0.0,0.0,0.0,2.1338,2.2139,2.3125,2.4548,2.4248,2.3896,2.3799,2.3408,2.3091,2.3091,2.3091,2.3091,2.3091,2.3091,2.3091,2.3091,2.3091,2.3091,2.3091,2.3013,2.2935,2.2857,2.248,2.2266,2.2223,0.0,0.0,2.1748,2.1356,2.0937,2.0468,2.0752,2.098,2.1241,2.1859,2.2506,2.3095,2.2995,2.2945,2.2957,2.3058,2.3108,2.3108,2.3108,2.3108,2.3108,2.3108,2.3421,2.3853,2.3966,2.423,0.0,2.3954,2.3753,2.354,2.2932,2.2782,2.2782,2.2782,2.2782,2.2782,2.2782,2.2355,2.1857,2.1446,2.0905,2.0377,1.9874,1.8907,1.8204,1.8204,1.7338,1.6663,1.6663,1.6563,1.645,1.635,1.6337,1.6287,1.6208,1.6296,1.612,1.5567,1.563,1.5894,1.6333,1.6437,1.65,1.65,1.65,1.65,1.65,1.5886,1.5298,1.4675,1.3967,1.3372,0.0,0.0,0.0,0.0,0.0,0.0,0.0,0.0,0.0,0.0,0.0,1.9668,0.0,0.0,2.2122,2.2734,2.3369,2.4082,2.4988,2.4697,2.4414,2.4434,2.3857,2.3467,2.3467,2.3227,2.3091,2.3091,2.3091,2.3091,2.3091,2.3091,2.3091,2.3091,2.3091,2.2994,2.2779,2.2617,2.251,2.251,2.2305,2.2197,2.2187,2.1758,2.1318,2.0889,2.0913,2.1161,2.161,2.2548,2.3183,2.359,2.3847,2.3597,2.3108,2.3108,2.3283,2.3534,2.3534,2.3722,2.391,2.3622,2.3954,2.4406,2.4406,2.4607,2.4725,2.4494,2.4217,2.3866,2.3258,2.3108,2.3108,2.3108,2.3108,2.3108,2.3108,2.2456,2.182,2.1543,2.0815,2.0137,1.9849,1.9145,1.8506,1.8242,1.7727,1.714,1.6575,1.65,1.65,1.65,1.65,1.65,1.65,1.65,1.6387,1.612,1.6107,1.6093,1.6039,1.6337,1.6358,1.6051,1.6358,1.65,1.65,1.5886,1.5298,1.4686,1.4073,1.3481,0.0,0.0,0.0,0.0,0.0,0.0,0.0,0.0,1.928,1.9446,2.041,2.1309,2.167,2.2646,2.3589,2.3975,2.4326,2.4697,2.5137,2.4824,2.4668,2.5077,2.4316,2.375,2.3672,2.3305,2.3091,2.3091,2.3091,2.3091,2.3091,2.3091,2.3091,2.3091,2.3091,2.2925,2.2637,2.2637,2.2637,2.2637,2.2637,2.2637,2.2617,2.2119,2.1699,2.1349,2.1432,2.1646,2.2024,2.3559,2.4155,2.4205,2.4612,2.4236,2.3434,2.3434,2.3722,2.4155,2.4155,2.4456,2.4713,2.4305,2.4531,2.4971,2.4971,2.5059,2.5121,2.5008,2.4582,2.4029,2.3421,2.3195,2.3108,2.3108,2.3108,2.3108,2.3108,2.2406,2.1782,2.1669,2.0828,2.01,1.9987,1.9522,1.897,1.8442,1.8279,1.784,1.6823,1.6663,1.6635,1.65,1.65,1.65,1.65,1.65,1.65,1.65,1.65,1.6281,1.5798,1.6129,1.6139,1.5776,1.6139,1.638,1.65,1.5886,1.5298,1.4686,1.4073,1.3481,2.3203,2.182,2.0405,2.0879,2.0121,1.9766,0.0,0.0,2.1738,2.2542,2.3076,2.3447,2.3496,2.3926,2.4424,2.49,2.5008,2.5156,2.5596,2.5273,2.5057,2.5106,2.4316,2.3633,2.3208,2.312,2.3091,2.3091,2.3091,2.3091,2.3091,2.3091,2.3091,2.3091,2.3091,2.3071,2.3023,2.3023,2.3023,2.3023,2.3023,2.3023,2.3003,2.2246,2.1855,2.1861,2.2318,2.233,2.2138,2.3961,2.47,2.4713,2.4763,2.4713,2.46,2.46,2.4637,2.47,2.47,2.4738,2.4775,2.4713,2.5084,2.5511,2.5511,2.5875,2.6197,2.5649,2.5134,2.4607,2.4042,2.3496,2.3108,2.3108,2.3108,2.3108,2.3108,2.3007,2.2782,2.2309,2.1719,2.1142,2.0679,2.01,1.9535,1.8995,1.8518,1.7978,1.7385,1.731,1.7087,1.655,1.65,1.65,1.65,1.65,1.65,1.65,1.65,1.6466,1.6402,1.5964,1.5908,1.6402,1.593,1.5952,1.65,1.5886,1.5298,1.4686,1.4073,1.3481,2.2115,2.1555,2.1027,0.0,2.0996,2.1818,2.2685,2.3135,2.3467,2.3818,2.4443,2.4844,2.458,2.4893,2.5196,0.0,2.5459,2.5527,2.5664,2.5352,2.5018,2.4717,2.416,2.3721,2.3535,2.3247,2.3091,2.3091,2.3091,2.3091,2.3091,2.3091,2.3091,2.3091,2.3091,2.3091,2.3091,2.3091,2.3091,2.3091,2.3091,2.3091,2.3062,2.2266,2.1602,2.1154,2.1622,2.2059,2.2507,2.3899,2.4764,2.531,2.5636,2.5774,2.5699,2.5059,2.5008,2.5272,2.5272,2.5498,2.5724,2.5385,2.5649,2.6072,2.5699,2.6034,2.6373,2.5762,2.5435,2.5071,2.4217,2.3816,2.3552,2.3183,2.3108,2.3108,2.3108,2.2844,2.2556,2.2347,2.187,2.1446,2.1207,2.0968,2.0602,2.0062,1.9246,1.8456,1.7928,1.7576,1.7162,1.655,1.65,1.65,1.65,1.65,1.65,1.65,1.65,1.6173,1.5478,1.5555,1.5387,1.4937,1.5028,1.5197,1.5456,1.4846,1.4411,1.4167,1.3552,1.3152,2.1119,0.0,0.0,2.0839,2.1992,2.3472,2.3789,2.4434,2.4961,2.4961,2.5371,2.5596,2.5146,2.5332,2.5557,2.5557,2.5615,2.5693,2.5693,2.5244,2.4775,2.4453,2.3935,2.3613,2.3613,2.3276,2.3091,2.3091,2.3091,2.3091,2.3091,2.3091,2.3091,2.3091,2.3091,2.3091,2.3091,2.3091,2.3091,2.3091,2.3091,2.3091,2.3062,2.2266,2.1574,2.0977,2.1281,2.2039,2.3178,2.4073,2.4964,2.5908,2.6336,2.6499,2.6399,2.5561,2.5511,2.5837,2.5837,2.6135,2.6424,2.5996,2.6147,2.6411,2.5996,2.616,2.6411,2.5984,2.5724,2.5423,2.4632,2.433,2.4117,2.3672,2.3459,2.3346,2.3346,2.2907,2.2506,2.2506,2.2096,2.1719,2.1719,2.1594,2.1355,2.0981,2.0213,1.9371,1.8519,1.7953,1.7451,1.7024,1.6964,1.6901,1.6773,1.676,1.6685,1.65,1.65,1.6042,1.4994,1.5208,1.4937,1.4073,1.4306,1.4537,1.4698,1.4097,1.3792,1.3779,1.3296,1.3081,0.0,0.0,2.2056,2.2359,2.3105,2.4102,2.5323,2.6006,2.6328,2.6328,2.6016,2.5596,2.5146,2.5125,2.5135,2.5135,2.5449,2.5693,2.5693,2.4933,2.4434,2.4414,2.3627,2.311,0.0,2.3101,2.3091,2.3091,2.3091,2.3091,2.3091,2.3091,2.3091,2.3091,2.3091,2.3091,2.3091,2.3091,2.3091,2.3091,2.3091,2.3091,2.3062,2.2266,2.1875,2.1879,2.1935,2.2789,2.4186,2.4751,2.5569,2.6461,2.6487,2.6499,2.6499,2.6461,2.6449,2.6461,2.6461,2.6474,2.6499,2.6474,2.6474,2.6499,2.6474,2.6474,2.6499,2.6474,2.6059,2.5586,2.5548,2.5172,2.4763,2.4738,2.4356,2.3966,2.3966,2.3484,2.3083,2.3083,2.2631,2.2284,2.2284,2.1845,2.1481,2.1496,2.1443,2.0828,1.9183,1.8518,1.8179,1.8154,1.8154,1.794,1.7423,1.7373,1.7112,1.6538,1.65,1.6216,1.561,1.5028,1.4698,1.4675,1.412,1.412,1.4698,1.4097,1.3792,1.3779,1.3571,1.3486,0.0,0.0,2.2914,2.3614,2.4648,2.5781,2.6787,2.6904,2.6728,2.6445,2.5801,2.5068,2.4355,2.4219,2.4307,2.459,2.5206,2.5635,2.5332,2.5293,2.4971,2.4102,2.374,0.0,0.0,0.0,0.0,2.3091,2.3091,2.3091,2.3091,2.3091,2.3091,2.3091,2.3091,2.3091,2.3091,2.3091,2.3091,2.3091,2.3091,2.2945,2.2662,2.2139,2.1728,2.1435,2.1481,2.2349,2.3783,2.4249,2.5266,2.6499,2.6499,2.6499,2.6499,2.6499,2.6499,2.6499,2.6499,2.6499,2.6499,2.6499,2.6499,2.6499,2.6499,2.6499,2.6499,2.6499,2.6348,2.6109,2.5699,2.5473,2.5247,2.4876,2.465,2.4544,2.4544,2.4362,2.4224,2.4224,2.4073,2.3948,2.3948,2.3514,2.2899,2.2146,2.1446,2.0629,1.966,1.9058,1.8581,1.8242,1.7877,1.7612,1.7423,1.7024,1.6722,1.65,1.65,1.6398,1.6133,1.5474,1.5086,1.5035,1.4363,1.4093,1.4297,1.4093,1.3991,1.4001,1.3926,1.3899,0.0,2.2744,2.3832,2.5049,2.6103,2.6982,2.7591,2.7334,2.6807,2.6064,2.5215,2.4346,2.3496,2.3213,2.3301,2.3877,2.4397,2.4873,2.5086,2.5049,2.4844,2.4307,2.3975,2.374,0.0,0.0,0.0,2.311,2.3091,2.3091,2.3091,2.3091,2.3091,2.3091,2.3091,2.3091,2.3091,2.3091,2.3091,2.3091,2.3091,2.2955,2.2682,2.2305,2.2041,2.1853,2.1551,2.2308,2.3722,2.4276,2.514,2.6226,2.6636,2.6663,2.6499,2.6499,2.6499,2.6499,2.6499,2.6499,2.6499,2.6499,2.6499,2.6499,2.6499,2.6499,2.6499,2.6499,2.6499,2.6411,2.6034,2.59,2.5824,2.5485,2.5247,2.5096,2.5096,2.4958,2.4788,2.4788,2.4788,2.4788,2.4788,2.4519,2.3979,2.305,2.2133,2.1204,2.0238,1.9823,1.9397,1.8832,1.8292,1.789,1.7689,1.6945,1.6578,1.6801,1.66,1.6532,1.6705,1.6,1.5482,1.52,1.4483,1.4104,1.4104,1.4104,1.4104,1.4114,1.427,1.4338,2.291,2.3896,2.4951,2.6631,2.7363,2.7708,2.7689,2.7256,2.6543,2.5234,2.4268,2.3398,0.0,0.0,2.2139,2.3061,2.3203,2.3662,2.494,2.445,2.4199,0.0,0.0,0.0,0.0,0.0,0.0,2.3198,0.0,2.314,2.3159,2.314,2.313,2.313,2.311,2.3091,2.3091,2.3091,2.3091,2.3091,2.3091,2.3091,2.3081,2.2662,2.2734,2.3023,2.2266,2.2692,2.4032,2.4755,2.5283,2.5776,2.6913,2.7014,2.6537,2.6537,2.6512,2.6499,2.6499,2.6512,2.6537,2.6499,2.6512,2.6537,2.6537,2.6512,2.6499,2.6524,2.6512,2.6499,2.6524,2.6512,2.6512,2.6562,2.6109,2.5649,2.5674,2.5272,2.4876,2.4876,2.4876,2.4863,2.4838,2.4825,2.4669,2.4117,2.3521,2.2556,2.0993,2.0729,2.0478,1.9911,1.9334,1.8795,1.8268,1.7143,1.6711,1.7345,1.6792,1.6693,1.7327,1.6612,1.5942,1.5325,1.4553,1.4172,1.4172,1.4172,1.4172,1.4182,1.4619,1.4814,2.4284,2.5449,2.6543,2.7305,2.764,2.764,2.7256,2.6338,2.5195,2.3896,2.2705,2.1719,0.0,0.0,0.0,2.2959,2.3945,0.0,2.5067,2.5449,0.0,2.4678,0.0,2.4658,2.4443,2.4316,0.0,0.0,2.3799,2.376,2.4027,2.3789,2.3623,2.3623,2.3266,2.3091,2.3091,2.3091,2.3091,2.3091,2.3091,2.3091,2.3081,2.2662,2.2568,2.2656,2.2441,2.2782,2.3571,2.4912,2.576,2.6372,2.747,2.7557,2.7115,2.7115,2.6851,2.6499,2.6499,2.6763,2.704,2.6625,2.6776,2.7115,2.7115,2.6826,2.6575,2.6989,2.6813,2.6587,2.7002,2.6801,2.67,2.7494,2.6942,2.6386,2.6766,2.6461,2.6084,2.6084,2.6084,2.59,2.5473,2.5398,2.5222,2.4695,2.413,2.3326,2.2046,2.1207,2.0629,2.049,1.9597,1.8945,1.8807,1.7654,1.6979,1.7171,1.7015,1.7168,1.7716,1.7051,1.6751,1.6971,1.5708,1.5059,1.5059,1.5059,1.5059,1.5059,1.5195,1.5254,2.5576,2.6602,2.7363,2.7607,2.7529,2.7119,2.6103,2.5019,2.3854,2.2314,2.1289,0.0,2.0088,0.0,0.0,0.0,0.0,0.0,2.4697,2.5205,2.5391,0.0,2.5205,0.0,2.5019,2.4953,2.4953,0.0,2.4414,2.417,2.4404,2.4199,2.4062,2.4062,2.3652,2.3286,2.3091,2.3091,2.3091,2.3091,2.3091,2.3091,2.3091,2.2847,2.274,2.274,0.0,2.2925,2.3307,2.4708,2.5594,2.6178,2.7084,2.7359,2.7291,2.7052,2.6763,2.6499,2.6499,2.6851,2.7228,2.6675,2.7027,2.7595,2.7356,2.7102,2.6927,2.7228,2.6927,2.6612,2.7178,2.709,2.7065,2.7896,2.7632,2.7268,2.7582,2.7241,2.6788,2.6549,2.6499,2.6386,2.6059,2.5975,2.5787,2.5247,2.4895,2.4166,2.2678,2.1346,2.0327,1.9713,1.8689,1.8042,1.8042,1.7217,1.6783,1.6952,1.7025,1.7282,1.7754,1.7057,1.6819,1.7107,1.5997,1.541,1.541,1.541,1.541,1.541,1.541,1.541,2.6777,2.7461,2.7855,2.7748,2.7388,2.6665,2.4913,2.3846,2.2745,2.0938,0.0,1.9629,1.9268,1.959,2.0225,2.1132,0.0,2.3047,2.4316,2.4551,2.4826,2.5596,2.5791,2.583,2.5781,2.582,2.583,2.5781,2.5117,2.4658,2.46,2.4531,2.4453,2.4336,2.3975,2.3584,2.3101,2.3091,2.3091,2.3091,2.3091,2.3091,2.3091,2.3091,2.3091,2.3091,2.3091,2.3091,2.3178,2.4339,2.509,2.5576,2.6391,2.6917,2.714,2.6819,2.6543,2.6314,2.6314,2.6629,2.7039,2.664,2.7241,2.8009,2.7544,2.7394,2.7406,2.7482,2.714,2.6839,2.7356,2.7444,2.7544,2.8172,2.821,2.8122,2.8197,2.7783,2.7291,2.6801,2.6713,2.6713,2.6713,2.665,2.6436,2.5887,2.5686,2.4913,2.305,2.151,2.0076,1.863,1.7634,1.7078,1.7078,1.6617,1.6517,1.6955,1.6959,1.7116,1.7583,1.6959,1.6587,1.6587,1.5927,1.5557,1.5498,1.5498,1.5469,1.541,1.541,1.541,2.7393,2.8115,2.8535,2.7894,2.7743,2.7328,2.5429,2.4196,0.0,0.0,1.9645,1.8802,1.8724,1.9385,2.0322,2.1572,0.0,0.0,0.0,0.0,2.5518,0.0,0.0,0.0,0.0,2.6592,0.0,0.0,2.6133,2.5889,2.5479,2.5156,2.4629,2.3926,2.3828,2.3584,2.3101,2.3091,2.3091,2.3091,2.3091,2.3091,2.3091,2.3091,2.3091,2.3091,2.3091,0.0,2.3178,2.4339,2.4862,2.5113,2.7076,2.7341,2.6731,2.7519,2.6719,2.5264,2.5264,2.5624,2.6106,2.6407,2.7241,2.8084,2.7996,2.7959,2.8059,2.8511,2.8247,2.7946,2.8461,2.8298,2.8222,2.9252,2.8787,2.8235,2.865,2.8348,2.7934,2.7846,2.7821,2.7821,2.7821,2.7444,2.714,2.7005,2.6189,2.5062,2.3541,2.2337,2.1084,1.9596,1.8907,1.8533,1.8533,1.7593,1.7309,1.8002,1.7132,1.6892,1.7567,1.7252,1.7068,1.7068,1.6677,1.6318,1.5977,1.5977,1.5762,1.541,1.541,1.541,2.7754,2.8281,2.854,2.8317,2.7723,2.6842,2.5401,0.0,0.0,0.0,1.9714,1.8968,1.8968,0.0,0.0,0.0,0.0,0.0,0.0,0.0,0.0,0.0,0.0,0.0,0.0,2.6973,2.709,2.6435,2.6387,2.6201,2.5713,2.5527,2.5019,2.4141,2.4111,2.3799,2.3101,2.3091,2.3091,2.3091,2.3091,2.3091,2.3091,2.3091,2.3091,2.3091,2.3091,2.3091,2.3135,2.3671,2.4253,2.4893,2.5648,2.6,2.6023,2.6073,2.5456,2.4549,2.4321,2.4378,2.4684,2.5168,2.6749,2.8536,2.8536,2.8536,2.8549,2.8813,2.8499,2.8235,2.875,2.87,2.875,2.9591,2.9377,2.8976,2.89,2.8687,2.8411,2.816,2.8109,2.8109,2.8109,2.7883,2.7607,2.7318,2.6816,2.5706,2.3455,2.2728,2.1581,1.9379,1.8311,1.777,1.777,1.7603,1.7508,1.7478,1.7289,1.7164,1.7144,1.7012,1.692,1.692,1.6778,1.6599,1.6406,1.6406,1.6299,1.6073,1.6073,1.6073,2.7861,2.8291,2.8502,2.8754,2.7846,2.657,2.5513,2.411,0.0,0.0,2.0042,1.9299,1.9299,0.0,1.9814,0.0,0.0,0.0,0.0,0.0,0.0,0.0,0.0,0.0,0.0,2.7327,0.0,2.6582,2.6357,2.6103,2.5703,2.5693,2.5333,2.458,2.4463,2.4053,2.3247,2.314,2.3091,2.3091,2.3091,2.3091,2.3091,2.3091,2.3091,2.3091,2.3091,2.3091,2.3091,2.3091,2.3637,2.4426,2.4252,2.4623,2.5191,2.4704,2.4282,2.3935,2.3588,2.3455,2.3533,2.4029,2.5965,2.8135,2.8448,2.8648,2.8785,2.9025,2.88,2.8561,2.8963,2.9076,2.9189,2.9679,2.9792,2.9666,2.9214,2.9076,2.8988,2.8549,2.8461,2.8461,2.8461,2.836,2.8134,2.7708,2.7276,2.6103,2.3649,2.29,2.1673,1.928,1.7896,1.7067,1.698,1.7434,1.7531,1.711,1.7377,1.7388,1.6939,1.688,1.6843,1.6843,1.6931,1.6931,1.6843,1.6843,1.6794,1.6697,1.6697,1.6697,2.764,2.8281,2.8814,2.8826,2.8406,2.7734,2.6484,0.0,0.0,2.2104,2.0462,1.9299,1.9299,1.9344,1.9473,0.0,0.0,0.0,0.0,0.0,0.0,0.0,0.0,0.0,0.0,2.7669,2.7471,2.6992,2.6191,2.5732,2.5693,2.5693,2.5518,2.5077,2.4619,2.4199,2.374,2.3286,2.3091,2.3091,2.3091,2.3091,2.3091,2.3091,2.3091,2.3091,2.3091,2.3091,0.0,2.3091,2.3178,2.3333,2.433,2.4493,2.425,2.5139,2.4581,2.3379,2.3326,2.3316,2.344,2.3995,2.4716,2.5618,2.7014,2.7801,2.8394,2.942,2.9679,2.9654,2.9691,2.9716,2.9729,2.9779,2.9792,2.9779,2.9729,2.9716,2.9691,2.9641,2.9641,2.9641,2.9641,2.9202,2.88,2.875,2.714,2.566,2.4898,2.2886,2.1244,2.0512,1.9229,1.8276,1.792,1.7605,1.7695,1.8309,1.7369,1.7055,1.7678,1.7476,1.7324,1.7324,1.7695,1.7705,1.7324,1.7324,1.7119,1.6697,1.6697,1.6697,2.7086,2.8491,2.9693,2.9498,2.8957,2.8159,2.716,0.0,2.3712,2.2205,2.0942,1.9998,1.9723,1.946,1.9424,0.0,0.0,0.0,0.0,0.0,0.0,0.0,0.0,0.0,0.0,0.0,2.7754,2.707,2.6171,2.5693,2.5693,2.5693,2.5527,2.5135,2.4639,2.4219,2.3799,2.3315,2.3091,2.3091,2.3091,2.3091,2.3091,2.3091,2.3091,2.3091,2.3091,2.3091,0.0,2.3091,2.3091,2.3135,2.3594,2.3657,2.3476,2.3657,2.3359,2.2762,2.2542,2.2452,2.2532,2.3006,2.3318,2.3896,2.6145,2.6967,2.725,2.7678,2.7799,2.7959,2.8609,2.9275,2.9792,2.9792,2.9792,2.9792,2.9792,2.9792,2.9792,2.9792,2.9792,2.9792,2.9792,2.9603,2.9327,2.8938,2.7916,2.6529,2.4821,2.3463,2.2028,2.0343,1.9213,1.8539,1.8364,1.8008,1.7888,1.8168,1.7754,1.7622,1.7898,1.7823,1.7764,1.7764,1.793,1.793,1.7764,1.7764,1.7676,1.7467,1.7467,1.7467,2.58,2.7692,2.9426,2.9484,2.88,2.7965,0.0,0.0,2.3673,2.2493,2.1365,2.0497,2.0178,1.9656,1.9385,0.0,0.0,2.0674,0.0,0.0,0.0,0.0,0.0,2.6709,0.0,2.7851,2.7754,2.6894,2.6269,2.583,2.5693,2.5693,2.5596,2.5273,2.4834,2.4404,2.3975,2.3672,2.3344,2.3091,2.3227,2.3218,2.3091,2.3091,2.3091,2.3091,2.3091,2.3091,0.0,2.3091,2.3091,2.3091,2.3091,2.3091,2.3062,2.2769,2.2705,2.2656,2.2353,2.2256,2.2305,2.2607,2.2705,2.3044,2.4925,2.5724,2.6058,2.6389,2.6524,2.6678,2.7441,2.8239,2.891,2.9236,2.9287,2.9287,2.9287,2.9573,2.9702,2.9365,2.9573,2.9792,2.9792,2.9792,2.9654,2.9252,2.8149,2.6759,2.4966,2.3612,2.217,2.0485,1.9494,1.887,1.8627,1.8325,1.8144,1.8018,1.8008,1.8008,1.8008,1.8008,1.8008,1.8008,1.8008,1.8008,1.8008,1.8008,1.8008,1.8008,1.8008,1.8008,2.3584,2.5573,2.7625,2.8408,2.7748,2.6984,0.0,0.0,2.3841,2.3221,2.176,2.059,2.0602,1.9882,1.9287,1.9297,0.0,0.0,0.0,0.0,0.0,0.0,0.0,2.5596,2.6894,2.7412,2.7314,2.6455,2.6387,0.0,2.5713,2.5693,2.5693,2.5684,2.5293,2.4853,2.4414,2.4404,2.3929,2.3101,2.3574,2.3555,2.3091,2.3091,2.3091,2.3091,2.3091,2.3091,0.0,2.3091,2.3091,2.3091,2.3091,2.3091,2.3091,2.3091,2.3091,2.3091,2.3081,2.3081,2.3081,2.3091,2.3091,2.3091,2.3135,2.392,2.5041,2.6182,2.6524,2.6524,2.6513,2.6524,2.6801,2.7855,2.8136,2.8136,2.8136,2.8988,2.9456,2.8347,2.9028,2.9792,2.9792,2.9792,2.9792,2.9779,2.755,2.5801,2.5801,2.3118,2.1221,2.1181,2.0391,1.9524,1.8666,1.8598,1.8422,1.8037,1.8008,1.8008,1.8008,1.8008,1.8008,1.8008,1.8008,1.8008,1.8008,1.8008,1.8008,1.8008,1.8008,1.8008,2.2288,2.4281,2.632,2.6348,2.6479,2.6424,2.5749,0.0,2.2497,2.2328,2.091,1.979,2.0067,1.9392,1.9033,1.9619,2.0312,0.0,0.0,0.0,0.0,0.0,2.6289,2.7432,0.0,0.0,2.7432,2.6855,2.6553,2.6201,2.5713,2.5693,2.5693,2.5693,2.501,2.456,2.4414,2.3793,2.351,2.3584,2.3418,2.3428,2.3574,2.3227,2.3091,2.3091,2.3091,2.3091,2.3091,2.3091,2.3091,2.3091,2.3091,2.3091,2.3091,2.3091,2.3091,2.3091,2.3091,2.3091,2.3091,2.3091,2.3091,2.3091,2.3091,2.3343,2.3714,2.4059,2.4723,2.5336,2.5336,2.5933,2.6607,2.6924,2.7005,2.7005,2.7005,2.7302,2.7424,2.7087,2.7907,2.8636,2.8636,2.8636,2.8636,2.8636,2.6931,2.544,2.4802,2.3228,2.1947,2.1271,2.0713,2.0127,1.9524,1.8939,1.8676,1.8877,1.8603,1.8403,1.8403,1.8403,1.8266,1.8018,1.8008,1.8154,1.8403,1.812,1.812,1.8403,1.8403,1.8594,0.0,2.3045,2.4751,2.5026,2.5486,0.0,0.0,0.0,2.2261,2.197,2.0782,1.9779,1.97,1.9097,1.8831,1.9561,2.0039,0.0,0.0,0.0,0.0,2.5176,0.0,0.0,0.0,2.7725,2.748,2.7051,2.6631,2.6201,2.5713,2.5693,2.5615,2.5488,2.4951,2.458,2.4414,2.3842,2.3549,2.3545,2.3437,2.3437,2.3535,2.3218,2.3091,2.3091,2.3091,2.3091,0.0,2.3091,2.3091,2.3091,2.3091,2.3091,2.3091,2.3091,2.3091,2.3091,2.3091,2.3091,2.3091,2.3091,2.3091,2.3091,2.3091,2.3091,2.3091,2.3091,2.3594,2.4168,2.4168,2.4681,2.5305,2.5766,2.585,2.585,2.585,2.6182,2.6348,2.5922,2.7064,2.7976,2.7562,2.7844,2.7964,2.7574,2.6221,2.5092,2.4492,2.336,2.2342,2.1535,2.1084,2.0635,2.0195,1.9485,1.917,1.9277,1.9033,1.8851,1.8851,1.8851,1.876,1.8496,1.8496,1.8623,1.8841,1.8613,1.8633,1.8851,1.8851,1.9023,0.0,0.0,0.0,0.0,0.0,0.0,0.0,0.0,0.0,2.2137,2.1239,2.0344,1.9572,1.9039,1.8825,1.9258,1.9717,2.0449,0.0,2.2715,0.0,0.0,2.6582,0.0,2.7021,2.7432,2.7519,2.7051,2.665,2.623,2.5713,2.5693,2.5527,2.5135,2.5086,2.4814,2.4375,2.4336,2.3945,2.3149,2.3564,2.3545,2.314,2.311,2.3091,0.0,2.3091,2.3091,2.3091,2.3091,2.3091,2.3091,2.3091,2.3091,2.3091,2.3091,2.3091,2.3091,2.3091,2.3091,2.3091,2.3091,2.3091,2.3091,2.3091,2.3091,2.3091,2.3091,2.3091,2.3091,2.3091,2.3091,2.3387,2.4414,2.467,2.467,2.467,2.5515,2.5933,2.4872,2.6397,2.7562,2.6554,2.7197,2.7522,2.6513,2.542,2.467,2.467,2.3418,2.2363,2.1973,2.1543,2.1094,2.0693,2.0185,1.9756,1.9404,1.9346,1.9336,1.9336,1.9336,1.9316,1.9287,1.9316,1.9316,1.9287,1.9316,1.9336,1.9336,1.9336,1.9346,2.0398,0.0,2.0564,2.1452,2.2284,2.2869,0.0,0.0,0.0,0.0,0.0,0.0,0.0,2.0135,1.9626,1.975,2.0381,2.1152,2.1797,0.0,0.0,2.6592,2.7471,2.7734,2.708,2.7705,2.7832,2.707,2.6924,2.6533,2.5732,2.5693,2.5527,2.5135,2.4746,2.4365,2.3945,2.3559,2.3461,2.3633,2.3364,2.3408,2.3623,2.3247,2.3091,2.3091,2.3091,2.3091,2.3091,2.3091,2.3091,2.3091,2.3091,2.3091,2.3091,2.3091,2.3091,2.3091,2.3091,2.3091,2.3091,2.3091,2.3091,2.3091,2.3091,2.3091,2.3091,2.3091,2.3091,2.3091,2.3091,2.3091,2.3178,2.343,2.3507,2.3507,2.3507,2.3724,2.38,2.3551,2.4628,2.5493,2.5252,2.541,2.5493,2.5252,2.4211,2.3507,2.3507,2.2893,2.2471,2.2373,2.1982,2.1553,2.1113,2.0361,2.0019,2.0292,1.9951,1.9766,1.9766,1.9766,1.9619,1.9297,1.96,1.9609,1.9287,1.9609,1.9766,1.9766,1.9766,1.9941,2.0096,2.0324,2.0567,2.1562,2.2447,2.3088,0.0,0.0,0.0,0.0,0.0,0.0,0.0,0.0,1.949,2.0115,2.0615,0.0,0.0,0.0,2.5596,2.6865,2.7422,2.7676,0.0,2.7666,2.7519,2.7051,2.665,2.6181,2.5713,2.5537,2.5225,2.4785,2.4355,2.4014,2.3789,2.3315,2.3218,2.3486,2.3208,2.3218,2.3486,2.3198,2.3091,2.3091,2.3091,2.3091,2.3091,2.3091,2.3091,2.3091,2.3091,2.3091,2.3091,2.3091,2.3091,2.3091,2.3091,2.3091,2.3091,2.3091,2.3091,2.3091,2.3091,2.3091,2.3091,2.3091,2.3091,2.3091,2.3091,2.3091,2.3091,2.3091,2.3091,2.3091,2.3091,2.3091,2.3091,2.3091,2.4006,2.4628,2.4135,2.4457,2.4628,2.4092,2.3507,2.3091,2.3091,2.2896,2.2682,2.2539,2.2305,2.2002,2.1572,2.0869,2.0537,2.0605,2.0342,2.0215,2.0215,2.0215,2.0107,1.992,2.0098,2.0098,1.9911,2.0107,2.0215,2.0215,2.0215,2.038,2.0012,2.0822,2.1819,2.2546,2.3283,2.3841,0.0,0.0,0.0,0.0,0.0,0.0,0.0,1.9585,0.0,0.0,0.0,0.0,2.4192,2.4855,2.5581,2.6836,2.7129,0.0,2.7949,2.7461,2.706,2.6934,2.624,2.5732,2.5644,2.5273,2.4844,2.4336,2.3975,2.376,2.3691,2.3276,2.3091,2.3091,2.3091,2.3091,2.3091,2.3091,2.3091,2.3091,0.0,0.0,2.3091,2.3091,2.3091,2.3091,2.3091,2.3091,2.3091,2.3091,2.3091,2.3091,2.3091,2.3091,2.3091,2.3091,2.3091,2.3091,2.3091,2.3091,2.3091,2.3091,2.3091,2.3091,2.3091,2.3091,2.3091,2.3091,2.3091,2.3091,2.3091,2.3091,2.3091,2.3091,2.3877,2.4211,2.3256,2.392,2.4211,2.3266,2.3091,2.3091,2.3091,2.3091,2.2955,2.2646,2.2607,2.2441,2.2021,2.1641,2.124,2.083,2.0674,2.0605,2.0605,2.0605,2.0605,2.0605,2.0605,2.0605,2.0605,2.0605,2.0605,2.0605,2.0605,2.0605,2.0966,2.236,2.318,2.1493,2.2171,2.3108,0.0,0.0,0.0,0.0,0.0,0.0,0.0,2.1477,2.1631,0.0,0.0,2.6692,0.0,0.0,2.7959,2.7074,0.0,2.7725,2.6777,2.7217,2.7266,2.6543,2.6367,2.5957,2.5205,2.5155,2.4707,2.3906,2.3828,2.3613,2.3198,2.313,2.3091,2.3091,2.3091,2.3091,2.3091,2.3091,2.3091,2.3091,0.0,2.3091,2.3091,2.3091,2.3091,2.3091,2.3091,2.3091,2.3091,2.3091,2.3091,2.3091,2.3091,2.3091,2.3091,2.3091,2.3091,2.3091,2.3091,2.3091,2.3091,2.3091,2.3091,2.3091,2.3091,2.3091,2.3091,2.3091,2.3091,2.3091,2.3091,2.3091,2.3091,2.3091,2.3266,2.3309,2.3135,2.3266,2.3299,2.3135,2.3091,2.3091,2.3091,2.3091,2.3071,2.3003,2.3003,2.2828,2.2451,2.2353,2.2139,2.175,2.1016,2.0605,2.0605,2.0605,2.0605,2.0605,2.0605,2.0605,2.0605,2.0605,2.0605,2.0605,2.0605,2.0605,2.0439,2.1807,2.2836,2.1807,2.3251,2.4707,0.0,0.0,0.0,0.0,0.0,0.0,0.0,0.0,2.3837,2.5532,0.0,2.8432,2.8973,2.8614,2.8136,0.0,0.0,2.7119,2.6758,2.6875,2.6816,2.6416,2.6172,2.5752,2.5145,2.4844,2.4434,2.3809,2.3555,2.334,2.3091,2.3091,2.3091,2.3091,2.3091,2.3091,2.3091,2.3091,2.3091,2.3091,0.0,2.3091,2.3091,2.3091,2.3091,2.3091,2.3091,2.3091,2.3091,2.3091,2.3091,2.3091,2.3091,2.3091,2.3091,2.3091,2.3091,2.3091,2.3091,2.3091,2.3091,2.3091,2.3091,2.3091,2.3091,2.3091,2.3091,2.3091,2.3091,2.3091,2.3091,2.3091,2.3091,2.3091,2.3091,2.3091,2.3091,2.3091,2.3091,2.3091,2.3091,2.3091,2.3091,2.3091,2.3091,2.3091,2.3091,2.3013,2.2818,2.2604,2.2236,2.1572,2.1367,2.1104,2.0625,2.0801,2.081,2.0605,2.0605,2.0605,2.0605,2.081,2.0928,2.0937,2.1172,2.1319,2.0125,2.133,2.2498,2.2498,0.0,0.0,0.0,0.0,0.0,0.0,0.0,0.0,0.0,2.4889,0.0,2.7881,2.9053,2.9804,3.025,2.9336,2.8593,2.8494,2.734,2.6621,2.6846,2.6863,2.6636,2.6143,2.6005,2.5619,2.4842,2.4453,2.4072,2.3652,2.331,2.3091,2.3091,2.3091,2.3091,2.3091,2.3091,2.3091,2.3091,2.3091,2.3091,2.3091,2.3091,2.3091,2.3091,2.3091,2.3091,2.3091,2.3091,2.3091,2.3091,2.3091,2.3091,2.3091,2.3091,2.3091,2.3091,2.3091,2.3091,2.3091,2.3091,2.3091,2.3091,2.3091,2.3091,2.3091,2.3091,2.3091,2.3091,2.3091,2.3091,2.3091,2.3091,2.3091,2.3091,2.3091,2.3091,2.3091,2.3091,2.3091,2.3091,2.3091,2.3091,2.3091,2.3091,2.3091,2.3091,2.3091,2.3091,2.3091,2.3091,2.2799,2.2334,2.1541,2.1758,2.1582,2.0938,2.1201,2.123,2.0918,2.0918,2.086,2.0723,2.1172,2.1298,2.121,2.168,2.1885,2.1079,2.2196,2.3045,2.3045,2.3627,0.0,2.5335,2.5172,0.0,2.4788,0.0,0.0,0.0,2.5402,2.6757,2.7933,3.0217,3.1833,3.1766,0.0,3.0762,2.8982,2.7693,2.6826,2.6465,2.7435,2.7252,2.5358,2.618,2.5977,2.4016,2.3857,2.3633,2.3159,2.311,2.3091,2.3091,2.3091,2.3091,2.3091,2.3091,2.3091,2.3091,2.3091,2.3091,2.3091,2.3091,2.3091,2.3091,2.3091,2.3091,2.3091,2.3091,2.3091,2.3091,2.3091,2.3091,2.3091,2.3091,2.3091,2.3091,2.3091,2.3091,2.3091,2.3091,2.3091,2.3091,2.3091,2.3091,2.3091,2.3091,2.3091,2.3091,2.3091,2.3091,2.3091,2.3091,2.3091,2.3091,2.3091,2.3091,2.3091,2.3091,2.3091,2.3091,2.3091,2.3091,2.3091,2.3091,2.3091,2.3091,2.3091,2.3091,2.3091,2.3091,2.3062,2.2857,2.2451,2.209,2.1855,2.1797,2.1816,2.1826,2.1797,2.1787,2.1592,2.1151,2.1621,2.1631,2.121,2.168,2.1885,2.0326,2.1276,2.2183,2.2521,2.3304,0.0,0.0,2.6779,2.7338,2.7373,2.7808,0.0,0.0,0.0,2.8484,2.9936,3.1007,3.2142,3.3453,3.2218,3.112,3.0897,2.8988,2.7754,2.7755,2.8182,2.7947,2.6783,2.6536,2.5913,2.4849,2.4173,2.3584,2.311,2.3091,2.3091,2.3091,2.3091,2.3091,2.3091,2.3091,2.3091,2.3091,2.3091,2.3091,2.3091,2.3091,2.3091,2.3091,2.3091,2.3091,2.3091,2.3091,2.3091,2.3091,2.3091,2.3091,2.3091,2.3091,2.3091,2.3091,2.3091,2.3091,2.3091,2.3091,2.3091,2.3091,2.3091,2.3091,2.3091,2.3091,2.3091,2.3091,2.3091,2.3091,2.3091,2.3091,2.3091,2.3091,2.3091,2.3091,2.3091,2.3091,2.3091,2.3091,2.3091,2.3091,2.3091,2.3091,2.3091,2.3091,2.3091,2.3091,2.3091,2.3091,2.3091,2.3033,2.2867,2.2711,2.2432,2.1904,2.2139,2.2158,2.1894,2.1885,2.1807,2.1641,2.206,2.2187,2.1999,2.2461,2.2666,1.9798,2.0615,2.162,0.0,0.0,0.0,2.6839,2.7984,2.875,2.9116,2.9539,0.0,0.0,0.0,0.0,0.0,3.0707,3.1765,3.3888,3.2493,3.1425,3.1796,2.9765,2.8402,2.8555,2.8799,2.8538,2.7586,2.7173,2.6454,2.5258,2.4517,2.3781,2.3101,2.3091,2.3091,2.3091,2.3091,2.3091,2.3091,2.3091,2.3091,2.3091,2.3091,2.3091,2.3091,2.3091,2.3091,2.3091,2.3091,2.3091,2.3091,2.3091,2.3091,2.3091,2.3091,2.3091,2.3091,2.3091,2.3091,2.3091,2.3091,2.3091,2.3091,2.3091,2.3091,2.3091,2.3091,2.3091,2.3091,2.3091,2.3091,2.3091,2.3091,2.3091,2.3091,2.3091,2.3091,2.3091,2.3091,2.3091,2.3091,2.3091,2.3091,2.3091,2.3091,2.3091,2.3091,2.3091,2.3091,2.3091,2.3091,2.3091,2.3091,2.3091,2.3091,2.3091,2.3091,2.3091,2.2838,2.2305,2.2559,2.2578,2.2285,2.2275,2.2217,2.209,2.251,2.2604,2.2519,2.2896,2.3091,1.9811,2.0639,2.1631,0.0,0.0,0.0,2.8386,2.8511,2.845,2.9563,0.0,2.762,2.5956,2.5878,0.0,2.7907,2.9308,3.0882,3.2816,3.2515,3.1862,3.127,2.9676,2.8623,2.8612,2.9222,2.8923,2.7265,2.8226,2.7704,2.4978,2.4787,2.4296,2.3135,2.3101,2.3101,2.3135,2.3101,2.3091,2.3091,2.3091,2.3091,2.3091,2.3091,2.3091,2.3091,2.3091,2.3091,2.3091,2.3091,2.3091,2.3091,2.3091,2.3091,2.3091,2.3091,2.3091,2.3091,2.3091,2.3091,2.3091,2.3091,2.3091,2.3091,2.3091,2.3091,2.3091,2.3091,2.3091,2.3091,2.3091,2.3091,2.3091,2.3091,2.3091,2.3091,2.3091,2.3091,2.3091,2.3091,2.3091,2.3091,2.3091,2.3091,2.3091,2.3091,2.3091,2.3091,2.3091,2.3091,2.3091,2.3091,2.3091,2.3091,2.3091,2.3091,2.3091,2.3091,2.3091,2.3091,2.3091,2.3091,2.3091,2.3091,2.3091,2.2886,2.2519,2.2896,2.2877,2.2529,2.2896,2.3091,2.0327,2.0962,0.0,2.3156,0.0,0.0,0.0,2.9377,0.0,0.0,2.9918,2.8904,2.8021,0.0,0.0,2.9592,3.0211,3.0954,3.2267,3.157,3.1028,3.1329,3.0114,2.9494,2.9968,3.018,2.9942,2.9059,2.8587,2.7644,2.6058,2.5252,2.467,2.4296,2.3507,2.3464,2.4296,2.3507,2.3091,2.3091,2.3091,2.3091,2.3091,2.3091,2.3091,2.3091,2.3091,2.3091,2.3091,2.3091,2.3091,2.3091,2.3091,2.3091,2.3091,2.3091,2.3091,2.3091,2.3091,2.3091,2.3091,2.3091,2.3091,2.3091,2.3091,2.3091,2.3091,2.3091,2.3091,2.3091,2.3091,2.3091,2.3091,2.3091,2.3091,2.3091,2.3091,2.3091,2.3091,2.3091,2.3091,2.3091,2.3091,2.3091,2.3091,2.3091,2.3091,2.3091,2.3091,2.3091,2.3091,2.3091,2.3091,2.3091,2.3091,2.3091,2.3091,2.3091,2.3091,2.3091,2.3091,2.3091,2.3091,2.3091,2.3091,2.3033,2.2906,2.3033,2.3033,2.2916,2.3033,2.3091,2.0478,2.1096,0.0,2.3848,2.5314,2.6846,2.9087,0.0,0.0,0.0,0.0,3.0146,2.9598,2.8432,0.0,3.0,3.0017,3.0162,3.1094,3.0973,3.0796,3.0782,3.0313,3.0151,3.0566,3.0419,3.0156,2.9817,2.9145,2.8108,2.6595,2.5839,2.5041,2.4168,2.3474,2.343,2.4125,2.343,2.3091,2.3091,2.3091,2.3013,2.2847,2.3023,2.3091,2.3091,2.3091,2.3091,2.3091,2.3091,2.3091,2.3091,2.3091,2.3091,2.3091,2.3091,2.3091,2.3091,2.3091,2.3091,2.3091,2.3091,2.3091,2.3091,2.3091,2.3091,2.3091,2.3091,2.3091,2.3091,2.3091,2.3091,2.3091,2.3091,2.3091,2.3091,2.3091,2.3091,2.3091,2.3091,2.3091,2.3091,2.3091,2.3091,2.3091,2.3091,2.3091,2.3091,2.3091,2.3091,2.3091,2.3091,2.3091,2.3091,2.3091,2.3091,2.3091,2.3091,2.3091,2.3091,2.3091,2.3091,2.3091,2.3091,2.3091,2.3091,2.3091,2.3091,2.3091,2.3091,2.3091,2.3091,2.0453,0.0,0.0,2.4406,2.6289,0.0,3.0156,3.1813,3.2918,3.2789,0.0,3.1097,3.0486,2.8612,2.7707,2.9494,2.9283,2.9093,2.9773,3.0725,3.0959,2.9935,3.0244,3.0545,3.0545,3.0093,2.9792,2.9792,2.9792,2.8882,2.676,2.6554,2.5557,2.3474,2.3183,2.312,2.3207,2.3047,2.2984,2.2984,2.2984,2.2779,2.2471,2.2886,2.3091,2.3091,2.3091,2.3091,2.3091,2.3091,2.3091,2.3091,2.3091,2.3091,2.3091,2.3091,2.3091,2.3091,2.3091,2.3091,2.3091,2.3091,2.3091,2.3091,2.3091,2.3091,2.3091,2.3091,2.3091,2.3091,2.3091,2.3091,2.3091,2.3091,2.3091,2.3091,2.3091,2.3091,2.3091,2.3091,2.3091,2.3091,2.3091,2.3091,2.3091,2.3091,2.3091,2.3091,2.3091,2.3091,2.3091,2.3091,2.3091,2.3091,2.3091,2.3091,2.3091,2.3091,2.3091,2.3091,2.3091,2.3091,2.3091,2.3091,2.3091,2.3091,2.3091,2.3091,2.3091,2.3091,2.3091,2.3091,0.0,2.1707,0.0,0.0,0.0,3.0018,3.0507,3.1198,3.1489,3.0531,3.0503,3.019,2.8742,2.8792,2.9188,2.9701,3.0373,3.0692,3.0484,3.0611,3.0541,2.9866,2.9913,2.9967,2.9967,2.9867,2.9792,2.9792,2.9792,2.9197,2.7815,2.6964,2.6265,2.5766,2.3724,2.3053,2.3939,2.2757,2.2158,2.2158,2.2158,2.2109,2.2041,2.275,2.3091,2.3091,2.3091,2.3091,2.3091,2.3091,2.3091,2.3091,2.3091,2.3091,2.3091,2.3091,2.3091,2.3091,2.3091,2.3091,2.3091,2.3091,2.3091,2.3091,2.3091,2.3091,2.3091,2.3091,2.3091,2.3091,2.3091,2.3091,2.3091,2.3091,2.3091,2.3091,2.3091,2.3091,2.3091,2.3091,2.3091,2.3091,2.3091,2.3091,2.3091,2.3091,2.3091,2.3091,2.3091,2.3091,2.3091,2.3091,2.3091,2.3091,2.3091,2.3091,2.3091,2.3091,2.3091,2.3091,2.3091,2.3091,2.3091,2.3091,2.3091,2.3091,2.3091,2.3091,2.3091,2.3091,2.3091,2.3091,0.0,0.0,0.0,0.0,0.0,0.0,3.062,3.1022,3.1148,3.0261,3.0492,3.0592,2.9755,2.9569,2.972,3.0126,3.0159,3.0004,2.9466,2.9878,2.9897,2.9104,2.9495,2.9792,2.9792,2.9792,2.9792,2.9792,2.9792,2.9203,2.7778,2.72,2.6284,2.4998,2.3629,2.2949,2.3083,2.2314,2.1885,2.1885,2.1885,2.1992,2.2197,2.2637,2.2789,2.2808,2.3013,2.2984,2.2808,2.3013,2.3091,2.3091,2.3091,2.3091,2.3091,2.3091,2.3091,2.3091,2.3091,2.3091,2.3091,2.3091,2.3091,2.3091,2.3091,2.3091,2.3091,2.3091,2.3091,2.3091,2.3091,2.3091,2.3091,2.3091,2.3091,2.3091,2.3091,2.3091,2.3091,2.3091,2.3091,2.3091,2.3091,2.3091,2.3091,2.3091,2.3091,2.3091,2.3091,2.3091,2.3091,2.3091,2.3091,2.3091,2.3091,2.3091,2.3091,2.3091,2.3091,2.3091,2.3091,2.3091,2.3091,2.3091,2.3091,2.3091,2.3091,2.3091,2.3091,2.3091,2.3091,2.3091,0.0,0.0,0.0,0.0,0.0,0.0,3.0319,3.0733,3.0997,3.0557,3.0896,3.1182,3.0867,3.0175,2.9728,3.0109,2.9488,2.885,2.8447,2.9197,2.9456,2.8518,2.9236,2.9792,2.9792,2.9792,2.9792,2.9792,2.9691,2.9018,2.7657,2.7305,2.6065,2.3652,2.3328,2.2756,2.1768,2.1699,2.1701,2.1701,2.1701,2.1885,2.2295,2.2295,2.2373,2.2539,2.2916,2.2857,2.2549,2.2925,2.3091,2.3091,2.3091,2.3091,2.3091,2.3091,2.3091,2.3091,2.3091,2.3091,2.3091,2.3091,2.3091,2.3091,2.3091,2.3091,2.3091,2.3091,2.3091,2.3091,2.3091,2.3091,2.3091,2.3091,2.3091,2.3091,2.3091,2.3091,2.3091,2.3091,2.3091,2.3091,2.3091,2.3091,2.3091,2.3091,2.3091,2.3091,2.3091,2.3091,2.3091,2.3091,2.3091,2.3091,2.3091,2.3091,2.3091,2.3091,2.3091,2.3091,2.3091,2.3091,2.3091,2.3091,2.3091,2.3091,2.3091,2.3091,2.3091,2.3091,2.3091,2.3091,0.0,0.0,0.0,0.0,0.0,0.0,0.0,0.0,2.998,0.0,3.0331,3.0266,2.8807,2.9236,2.9473,2.8586,2.9138,2.9621,2.9585,2.9702,2.9753,2.9585,2.9702,2.9792,2.9792,2.9792,2.9792,2.9792,2.9327,2.8925,2.8699,2.735,2.605,2.4798,2.3495,2.2295,2.1278,2.0937,2.0781,2.0781,2.0781,2.0977,2.1366,2.1366,2.1765,2.2539,2.2916,2.2857,2.2549,2.2925,2.3091,2.3091,2.3091,2.3091,2.3091,2.3091,2.3091,2.3091,2.3091,2.3091,2.3091,2.3091,2.3091,2.3091,2.3091,2.3091,2.3091,2.3091,2.3091,2.3091,2.3091,2.3091,2.3091,2.3091,2.3091,2.3091,2.3091,2.3091,2.3091,2.3091,2.3091,2.3091,2.3091,2.3091,2.3091,2.3091,2.3091,2.3091,2.3091,2.3091,2.3091,2.3091,2.3091,2.3091,2.3091,2.3091,2.3091,2.3091,2.3091,2.3091,2.3091,2.3091,2.3091,2.3091,2.3091,2.3091,2.3091,2.3091,2.3091,2.3091,2.3091,2.3091,2.0855,0.0,0.0,0.0,0.0,0.0,0.0,0.0,2.885,2.885,2.9038,2.9162,2.9084,2.9456,2.9624,2.9145,2.9495,2.9792,2.9792,2.9792,2.9792,2.9792,2.9792,2.9792,2.9792,2.9792,2.9654,2.934,2.9038,2.8624,2.8047,2.7322,2.6335,2.5057,2.4334,2.3252,2.168,2.1476,2.1116,2.0605,2.0605,2.0801,2.119,2.119,2.1395,2.1785,2.2256,2.2334,2.2197,2.2617,2.2886,2.3091,2.3091,2.3091,2.3091,2.3091,2.3091,2.3091,2.3091,2.3091,2.3091,2.3091,2.3091,2.3091,2.3091,2.3091,2.3091,2.3091,2.3091,2.3091,2.3091,2.3091,2.3091,2.3091,2.3091,2.3091,2.3091,2.3091,2.3169,2.3457,2.3257,2.3169,2.3467,2.3257,2.3091,2.3091,2.3091,2.3091,2.3091,2.3091,2.3091,2.3091,2.3091,2.3091,2.3091,2.3091,2.3091,2.3091,2.3091,2.3091,2.3091,2.3091,2.3091,2.3091,2.3091,2.3091,2.3091,2.3091,2.3091,2.3091,2.3091,2.3091,0.0,0.0,0.0,0.0,0.0,0.0,0.0,0.0,2.7934,0.0,2.8109,2.836,2.9214,2.9478,2.9616,2.9767,2.9792,2.9792,2.9792,2.9666,2.9628,2.9779,2.9666,2.9628,2.9779,2.9666,2.939,2.8925,2.8662,2.8147,2.7318,2.719,2.6433,2.5052,2.5004,2.4156,2.2403,2.214,2.1669,2.0934,2.0712,2.0781,2.1064,2.1064,2.1064,2.1094,2.165,2.1816,2.1758,2.2178,2.2555,2.2935,2.2935,2.3003,2.3091,2.3091,2.3091,2.3091,2.3091,2.3091,2.3091,2.3091,2.3091,2.3091,2.3091,2.3091,2.3091,2.3091,2.3091,2.3091,2.3091,2.3091,2.3091,2.3091,2.3091,2.3091,2.3091,2.3091,2.3227,2.3711,2.3437,2.3227,2.3711,2.3428,2.3091,2.3091,2.3091,2.3091,2.3091,2.3188,2.3257,2.3257,2.3257,2.3257,2.3257,2.3159,2.3091,2.3091,2.3091,2.3091,2.3091,2.3091,2.3091,2.3091,2.3091,2.3091,2.3091,2.3091,2.3091,2.3091,2.3091,2.3091,0.0,0.0,0.0,0.0,0.0,0.0,0.0,0.0,0.0,2.7996,2.8109,2.8122,2.8185,2.8612,2.9113,2.9704,2.9792,2.9792,2.9792,2.9315,2.9176,2.9729,2.9315,2.9189,2.9741,2.9302,2.8925,2.8888,2.7959,2.7379,2.7281,2.6826,2.6084,2.5052,2.5004,2.4492,2.3441,2.2478,2.2,2.1924,2.1049,2.0615,2.0635,2.0635,2.0635,2.0693,2.1514,2.165,2.1259,2.1738,2.2168,2.2549,2.2549,2.274,2.3091,2.3091,2.3091,2.3091,2.3091,2.3091,2.3091,2.3091,2.3091,2.3091,2.3091,2.3091,2.3091,2.3091,2.3091,2.3091,2.3091,2.3091,2.3091,2.3091,2.3091,2.3091,2.3091,2.3091,2.3227,2.3711,2.3437,2.3227,2.3711,2.3428,2.3091,2.3091,2.3091,2.3091,2.3091,2.3496,2.375,2.375,2.375,2.375,2.375,2.3379,2.3091,2.3091,2.3091,2.3091,2.3091,2.3091,2.3091,2.3091,2.3091,2.3091,2.3091,2.3091,2.3091,2.3091,2.3091,2.3091,0.0,0.0,0.0,0.0,0.0,0.0,2.3138,2.423,2.5234,2.5435,2.5749,2.6101,2.6427,2.7544,2.8473,2.8674,2.8712,2.8712,2.8712,2.8536,2.8486,2.8687,2.8524,2.8486,2.8687,2.8524,2.8247,2.7896,2.7507,2.7165,2.6801,2.6248,2.5927,2.5978,2.5598,2.4909,2.3956,2.232,2.1486,2.1486,2.0871,2.0605,2.0605,2.0605,2.0605,2.0625,2.0938,2.1113,2.121,2.1366,2.1719,2.2139,2.2412,2.2607,2.2773,2.2994,2.3091,2.3091,2.3091,2.3091,2.3091,2.3091,2.3091,2.3091,2.3091,2.3091,2.3091,2.3091,2.3091,2.3091,2.3091,2.3091,2.3091,2.3091,2.3305,2.3555,2.3555,2.3555,2.376,2.4473,2.4043,2.3779,2.4482,2.4023,2.3555,2.3555,2.3276,2.3091,2.3091,2.3516,2.3789,2.3789,2.3789,2.3789,2.3789,2.3389,2.3091,2.3091,2.3091,2.3091,2.3091,2.3091,2.3091,2.3091,2.3091,2.3091,2.3091,2.3091,2.3091,2.3091,2.3091,2.3091,0.0,0.0,0.0,0.0,0.0,2.1333,2.1681,0.0,2.354,2.3916,2.4293,2.4707,2.5234,2.6251,2.718,2.7745,2.7984,2.8109,2.8109,2.7946,2.7896,2.8084,2.7946,2.7896,2.8084,2.7946,2.767,2.7341,2.714,0.0,2.6512,2.5946,2.5686,2.5933,2.5536,2.5112,2.4665,2.2704,2.1784,2.1944,2.1052,2.0605,2.0605,2.0605,2.0605,2.0605,2.0605,2.0732,2.1016,2.1016,2.1269,2.1709,2.2139,2.2383,2.2568,2.2945,2.3091,2.3091,2.3091,2.3091,2.3091,2.3091,2.3091,2.3091,2.3091,2.3091,2.3091,2.3091,2.3091,2.3091,2.3091,2.3091,2.3091,2.3091,2.3574,2.4004,2.4004,2.4004,2.4209,2.4979,2.4492,2.4228,2.4988,2.4473,2.4004,2.4004,2.375,2.352,2.352,2.3945,2.416,2.4014,2.4131,2.416,2.4014,2.374,2.352,2.352,2.3393,2.3315,2.3315,2.3169,2.3091,2.3091,2.3091,2.3091,2.3091,2.3091,2.3091,2.3091,2.3091,2.3091,0.0,0.0,0.0,0.0,0.0,0.0,2.0666,0.0,2.2573,2.3665,2.3916,2.4092,2.4619,2.4713,2.5272,2.6879,2.762,2.8009,2.8009,2.7544,2.7406,2.7946,2.7557,2.7444,2.7984,2.7557,2.7291,2.7291,2.6788,2.6461,2.6461,2.5887,2.5335,2.4775,2.4763,2.5046,2.5573,2.3642,2.2938,2.3455,2.1517,2.0605,2.0605,2.0605,2.0605,2.0605,2.0605,2.0605,2.0605,2.0605,2.082,2.122,2.1699,2.2129,2.2549,2.2925,2.3081,2.3091,2.3091,2.3091,2.3091,2.3091,2.3091,2.3091,2.3091,2.3091,2.3091,2.3091,2.3091,2.3091,2.3091,2.3091,2.3101,2.311,2.3799,2.4424,2.4434,2.4443,2.458,2.501,2.4736,2.458,2.5057,2.4727,2.4434,2.4434,2.4424,2.4414,2.4414,2.4795,2.4912,2.4482,2.4814,2.4893,2.4473,2.4424,2.4414,2.4414,2.4033,2.3799,2.3789,2.3379,2.311,2.3091,2.3091,2.3091,2.3091,2.3091,2.3091,2.3091,2.3091,2.3091,2.0752,0.0,0.0,0.0,0.0,0.0,0.0,0.0,2.1232,2.1546,2.1936,2.2234,2.2385,2.2736,2.312,2.3615,2.4845,2.5691,2.5691,2.5598,2.5561,2.5711,2.5925,2.6126,2.6276,2.6562,2.6725,0.0,2.6197,2.5837,2.5837,2.5322,2.4795,2.4243,2.423,2.4494,2.5034,2.3084,2.239,2.288,2.1336,2.0605,2.0605,2.0605,2.0605,2.0605,2.0605,2.0605,2.0605,2.0605,2.0674,2.0791,2.124,2.168,2.2109,2.2529,2.2838,2.3091,2.3091,2.3091,2.3091,2.3091,2.3091,2.3091,2.3091,2.3091,2.3091,2.3091,2.3091,2.3091,2.3091,2.3091,2.3169,2.3535,2.4023,2.4502,2.4814,2.5137,2.5362,2.5527,2.5185,2.5029,2.5478,2.5185,2.4893,2.4893,2.4619,2.4414,2.4414,2.4795,2.5067,2.4902,2.5047,2.5067,2.4893,2.46,2.4414,2.4414,2.4307,2.4111,2.3799,2.3672,2.3457,2.3101,2.3091,2.3091,2.3091,2.3091,2.3091,2.3091,2.3091,2.3091,0.0,0.0,0.0,0.0,0.0,0.0,1.9798,2.0062,2.0402,2.0641,2.0754,2.0865,2.1131,2.1405,2.1631,2.1631,2.2636,2.3678,2.4381,2.4669,2.4788,2.4788,2.5096,2.5272,2.5272,2.5573,2.5774,2.5774,2.546,2.5172,2.4933,2.4644,2.4217,2.3653,2.364,2.3904,2.4469,2.315,2.2788,2.3303,2.1855,2.1183,2.1155,2.0789,2.0605,2.0605,2.0605,2.0605,2.0605,2.0605,2.0605,2.0664,2.126,2.166,2.1963,2.2549,2.2886,2.3091,2.3091,2.3091,2.3091,2.3091,2.3091,2.3091,2.3091,2.3091,2.3091,2.3091,2.3091,2.3091,2.3091,2.3091,2.3208,2.3682,2.4111,2.4531,2.5018,2.542,2.5693,2.5693,2.5527,2.543,2.5645,2.5518,2.5283,2.5145,2.501,2.4902,2.4707,2.5078,2.5273,2.5135,2.5234,2.5273,2.5135,2.5,2.4923,2.4923,2.4619,2.4307,2.4062,2.3711,2.3398,2.3101,2.3091,2.3091,2.3091,2.3091,2.3091,2.3091,2.3091,2.3091,0.0,0.0,0.0,0.0,0.0,0.0,1.9987,1.9987,2.0112,2.0591,2.0289,2.0037,2.0515,2.0591,2.0591,2.0591,2.1069,2.1945,2.3502,2.4142,2.4424,2.4424,2.4525,2.46,2.46,2.4713,2.4788,2.4788,2.4725,2.4462,2.3929,2.3904,2.3634,2.312,2.3108,2.3409,2.4079,2.357,2.3585,2.4107,2.268,2.1962,2.1811,2.0972,2.0605,2.0605,2.0605,2.0605,2.0605,2.0605,2.0635,2.0752,2.1504,2.1875,2.2041,2.275,2.3052,2.3091,2.3091,2.3091,2.3091,2.3091,2.3091,2.3091,2.3091,2.3091,2.3091,2.3091,2.3091,2.3091,2.3091,2.3091,2.3208,2.3682,2.4111,2.4531,2.5018,2.542,2.5693,2.5693,2.5693,2.5693,2.5693,2.5693,2.5605,2.5205,2.5478,2.5596,2.5195,2.5488,2.5538,2.5185,2.5498,2.5576,2.5223,2.5508,2.5693,2.5693,2.4953,2.4541,2.4492,2.3666,2.3218,2.3169,2.312,2.3091,2.3091,2.3091,2.3091,2.3091,2.3091,2.3091,0.0,0.0,0.0,0.0,0.0,0.0,2.1154,2.1154,2.1094,2.0754,2.0603,2.0415,2.0037,1.9974,1.9974,1.9974,2.0478,2.1119,2.187,2.2071,2.2133,2.2133,2.2924,2.3434,2.3434,2.4261,2.4788,2.4788,2.4406,2.3904,2.3308,2.3283,2.3221,2.3108,2.3108,2.3597,2.4612,2.3751,2.3409,2.3634,2.2499,2.1593,2.0857,2.0673,2.0605,2.0605,2.0605,2.0605,2.0605,2.0605,2.0781,2.1083,2.1259,2.1787,2.2412,2.2578,2.2808,2.3091,2.3091,2.3091,2.3091,2.3091,2.3091,2.3091,2.3091,2.3091,2.3091,2.3091,2.3091,2.3091,2.3091,2.3091,2.3208,2.3682,2.4111,2.4531,2.5018,2.542,2.5693,2.5693,2.5693,2.5693,2.5693,2.5693,2.5664,2.5567,2.5635,2.5654,2.5567,2.5635,2.5654,2.5567,2.5635,2.5654,2.5567,2.5635,2.5693,2.5693,2.5528,2.5312,2.4998,2.4443,2.4004,2.3672,2.3276,2.3091,2.3091,2.3091,2.3091,2.3091,2.3091,2.3091,0.0,0.0,0.0,2.197,0.0,0.0,0.0,2.1493,2.1405,2.1157,2.0654,2.015,1.9861,1.9585,1.9384,1.9384,1.9874,2.0365,2.0614,2.1129,2.1493,2.1493,2.197,2.2309,2.2309,2.3075,2.3647,2.3935,2.3697,2.3409,2.312,2.3108,2.3108,2.3108,2.3384,2.381,2.4406,2.4439,2.4248,2.3848,2.311,2.2253,2.1298,2.0828,2.0605,2.0605,2.0605,2.0605,2.0605,2.0605,2.0957,2.1562,2.1562,2.1953,2.2539,2.2744,2.2916,2.3091,2.3091,2.3091,2.3091,2.3091,2.3091,2.3091,2.3091,2.3091,2.3091,2.3091,2.3091,2.3091,2.3091,2.3091,2.3208,2.3682,2.4111,2.4531,2.5018,2.542,2.5693,2.5693,2.5693,2.5693,2.5693,2.5693,2.5615,2.5439,2.5596,2.5615,2.543,2.5596,2.5693,2.5693,2.5693,2.5693,2.5693,2.5693,2.5693,2.5693,2.5527,2.5303,2.5125,2.4648,2.4219,2.3799,2.3574,2.3315,2.3091,2.3091,2.3091,2.3091,2.3091,2.3091,0.0,0.0,0.0,0.0,0.0,2.1945,0.0,0.0,0.0,2.1669,0.0,0.0,0.0,0.0,0.0,0.0,0.0,0.0,0.0,2.0589,0.0,2.1154,2.1295,2.1358,2.1358,2.192,2.2498,2.2907,2.3045,2.3108,2.3108,2.3108,2.3108,2.3108,2.3703,2.4054,2.4155,2.5121,2.5167,2.4351,2.3769,2.2962,2.1952,2.1039,2.0605,2.0605,2.0605,2.0605,2.0605,2.0605,2.1124,2.1885,2.1885,2.2197,2.2676,2.2974,2.3091,2.3091,2.3091,2.3091,2.3091,2.3091,2.3091,2.3091,2.3091,2.3091,2.3091,2.3091,2.3091,2.311,2.3198,2.3218,2.3305,2.3711,2.4111,2.4492,2.4766,2.5234,2.5557,2.5557,2.5625,2.5693,2.5693,2.5693,2.5567,2.5254,2.5508,2.5557,2.5244,2.5518,2.5693,2.5693,2.5693,2.5693,2.5693,2.5693,2.5693,2.5693,2.54,2.5195,2.5195,2.4697,2.4219,2.3799,2.3789,2.3574,2.3091,2.3179,2.3179,2.3091,2.3091,2.3091,0.0,0.0,0.0,0.0,2.3389,0.0,0.0,0.0,2.2782,2.2322,0.0,0.0,0.0,0.0,0.0,0.0,0.0,0.0,1.9874,1.9911,1.9999,1.9999,2.0478,2.0779,2.0779,2.1707,2.2334,2.2397,2.2832,2.3108,2.3108,2.3108,2.3108,2.3108,2.3703,2.4243,2.4687,2.531,2.5364,2.4886,2.394,2.2962,2.1952,2.1039,2.0605,2.0605,2.0605,2.0605,2.0605,2.0605,2.1124,2.1885,2.1885,2.2373,2.3033,2.3081,2.3091,2.3091,2.3091,2.3091,2.3091,2.3091,2.3091,2.3091,2.3091,2.3091,2.3091,2.3091,2.3091,2.3188,2.3613,2.3721,2.373,2.3779,2.4111,2.4326,2.4004,2.457,2.5194,2.5194,2.5469,2.5693,2.5693,2.5693,2.5674,2.5625,2.5654,2.5674,2.5625,2.5654,2.5693,2.5693,2.5693,2.5693,2.5693,2.5693,2.5693,2.5693,2.5635,2.5615,2.5615,2.4863,2.4219,2.3799,2.3789,2.3574,2.3091,2.3525,2.3516,2.3091,2.3091,2.3091,0.0,0.0,0.0,0.0,0.0,0.0,2.3158,0.0,2.3045,0.0,0.0,0.0,0.0,0.0,0.0,0.0,2.1169,0.0,0.0,0.0,2.0539,0.0,0.0,0.0,2.0666,2.1408,2.1832,2.1832,2.2606,2.2957,2.2644,2.2932,2.3108,2.3108,2.3973,2.4562,2.4788,2.5674,2.5743,2.4981,2.3963,2.2962,2.1989,2.1593,2.1116,2.0644,2.1193,2.1116,2.0625,2.084,2.1318,2.1904,2.2158,2.2617,2.3091,2.3091,2.3091,2.3091,2.3091,2.3091,2.3091,2.3091,2.3091,2.3091,2.3091,2.3091,2.3091,2.3091,2.3276,2.3555,2.374,2.3789,2.3789,2.3789,2.3926,2.4004,2.3828,2.4463,2.5116,2.5116,2.543,2.5693,2.5693,2.5693,2.5693,2.5693,2.5693,2.5693,2.5693,2.5693,2.5693,2.5693,2.5693,2.5693,2.5693,2.5693,2.5693,2.5693,2.5693,2.5693,2.5693,2.5333,2.498,2.4541,2.4531,2.4316,2.3832,2.3818,2.3818,2.3822,2.3325,2.3091,2.3296,0.0,0.0,0.0,0.0,0.0,0.0,0.0,0.0,0.0,0.0,0.0,0.0,0.0,0.0,0.0,0.0,2.1656,0.0,2.1493,0.0,0.0,0.0,0.0,0.0,2.0968,2.1295,2.1295,2.2255,2.2706,2.2305,2.2807,2.3183,2.3333,2.4286,2.4863,2.5034,2.6021,2.6129,2.5406,2.4373,2.3514,2.2813,2.2253,2.1631,2.1011,2.1451,2.1221,2.0625,2.1174,2.154,2.1789,2.2441,2.2791,2.2935,2.3052,2.3091,2.3091,2.3091,2.3091,2.3091,2.3091,2.3091,2.3091,2.3091,2.3091,2.3091,2.3091,2.3369,2.3662,2.3906,2.3877,2.3848,2.4082,2.4053,2.3965,2.3965,2.4453,2.4969,2.5096,2.5332,2.5596,2.5664,2.5693,2.5693,2.5693,2.5693,2.5693,2.5693,2.5693,2.5693,2.5693,2.5693,2.5693,2.5693,2.5693,2.5693,2.5693,2.5693,2.5693,2.5693,2.5567,2.54,2.5125,2.5116,2.4853,2.4414,2.4238,2.4238,2.4394,2.3662,2.3335,0.0,0.0,0.0,2.4104,0.0,0.0,0.0,0.0,2.3816,0.0,0.0,0.0,0.0,0.0,0.0,0.0,0.0,0.0,0.0,0.0,0.0,0.0,0.0,0.0,0.0,2.0377,2.0717,2.0717,2.1707,2.2334,2.2309,2.2807,2.3358,2.3954,2.4519,2.5059,2.5573,2.6197,2.6487,2.6452,2.5441,2.4933,2.4826,2.2888,2.1989,2.1924,2.1049,2.0644,2.0673,2.1603,2.1669,2.1369,2.2745,2.2971,2.2578,2.2945,2.3091,2.3091,2.3091,2.3091,2.3091,2.3091,2.3091,2.3091,2.3091,2.3091,2.3091,2.3091,2.311,2.3305,2.418,2.4092,2.3994,2.4881,2.4697,2.4394,2.4394,2.4414,2.456,2.5028,2.5125,2.5225,2.5615,2.5693,2.5693,2.5693,2.5693,2.5693,2.5693,2.5693,2.5693,2.5693,2.5693,2.5693,2.5693,2.5693,2.5693,2.5693,2.5693,2.5693,2.5693,2.5322,2.5135,2.5116,2.5116,2.4853,2.4414,2.4824,2.4814,2.4404,2.3975,2.3984,0.0,0.0,2.4318,2.4506,0.0,0.0,0.0,0.0,0.0,0.0,0.0,0.0,0.0,0.0,0.0,0.0,0.0,0.0,0.0,0.0,0.0,0.0,0.0,0.0,0.0,0.0,2.0691,2.0691,2.1681,2.2159,2.1782,2.2606,2.3371,2.3979,2.4531,2.5071,2.5586,2.6197,2.6499,2.6499,2.5476,2.4636,2.3963,2.3294,2.2301,2.1078,2.1403,2.1155,2.0702,2.1961,2.2136,2.1781,2.3197,2.3407,2.2896,2.3042,2.3091,2.3091,2.3091,2.3091,2.3091,2.3091,2.3091,2.3091,2.3091,2.3091,2.3091,2.3091,2.3305,2.3701,2.4268,2.4307,2.4355,2.4979,2.4736,2.4414,2.4414,2.4639,2.4893,2.5086,2.5303,2.5557,2.5664,2.5693,2.5693,2.5693,2.5693,2.5693,2.5693,2.5693,2.5693,2.5693,2.5693,2.5693,2.5693,2.5693,2.5693,2.5693,2.5693,2.5693,2.5693,2.5596,2.5508,2.5508,2.5508,2.5439,2.5245,2.5137,2.5146,2.5235,2.4844,2.456,2.4532,2.4569,0.0,2.5008,2.4833,0.0,2.4079,0.0,0.0,0.0,0.0,0.0,0.0,0.0,0.0,0.0,0.0,0.0,0.0,2.2794,0.0,0.0,0.0,0.0,0.0,0.0,2.0981,2.0981,2.1794,2.2159,0.0,2.2606,2.3371,2.3979,2.4531,2.5071,2.5586,2.6197,2.6499,2.6499,2.5476,2.485,2.4541,2.3806,2.2824,2.1669,2.2253,2.2,2.1213,2.2478,2.2655,2.2271,2.334,2.3397,2.2886,2.3042,2.3091,2.3091,2.3091,2.3091,2.3091,2.3091,2.3091,2.3091,2.3091,2.3091,2.3091,2.3091,2.334,2.3662,2.4082,2.4072,2.4111,2.4697,2.4619,2.4463,2.4609,2.4863,2.5165,2.5273,2.541,2.5547,2.5664,2.5693,2.5693,2.5693,2.5693,2.5693,2.5693,2.5693,2.5693,2.5693,2.5693,2.5693,2.5693,2.5693,2.5693,2.5693,2.5693,2.5693,2.5693,2.5693,2.583,2.6132,2.5849,2.584,2.6142,2.5596,2.5449,2.5684,2.5439,2.5156]}]]